| time (UTC) | temp F | wind direction | speed knots | gust knots | rain 1hr in | rain 24hr in | rain mn in | humidity % | barometer mb |
| 20260507170129 | 56 | 316 | 3.5 | 7.8 | 0.00 | 0.00 | 0.00 | 63 | 1017.0 |
| 20260507170030 | 56 | 344 | 3.5 | 7.8 | 0.00 | 0.00 | 0.00 | 63 | 1017.0 |
| 20260507165929 | 56 | 337 | 3.5 | 9.6 | 0.00 | 0.00 | 0.00 | 63 | 1017.1 |
| 20260507165829 | 56 | 358 | 5.2 | 9.6 | 0.00 | 0.00 | 0.00 | 63 | 1017.0 |
| 20260507165730 | 56 | 337 | 5.2 | 9.6 | 0.00 | 0.00 | 0.00 | 63 | 1017.0 |
| 20260507165630 | 57 | 336 | 4.3 | 9.6 | 0.00 | 0.00 | 0.00 | 64 | 1017.0 |
| 20260507165531 | 57 | 348 | 3.5 | 9.6 | 0.00 | 0.00 | 0.00 | 64 | 1017.1 |
| 20260507165431 | 57 | 336 | 2.6 | 9.6 | 0.00 | 0.00 | 0.00 | 64 | 1017.1 |
| 20260507165330 | 56 | 343 | 1.7 | 9.6 | 0.00 | 0.00 | 0.00 | 63 | 1017.1 |
| 20260507165230 | 57 | 0 | 2.6 | 9.6 | 0.00 | 0.00 | 0.00 | 62 | 1017.1 |
| 20260507165129 | 57 | 0 | 5.2 | 9.6 | 0.00 | 0.00 | 0.00 | 61 | 1017.1 |
| 20260507165028 | 57 | 0 | 5.2 | 9.6 | 0.00 | 0.00 | 0.00 | 62 | 1017.1 |
| 20260507164928 | 57 | 341 | 5.2 | 7.8 | 0.00 | 0.00 | 0.00 | 63 | 1017.0 |
| 20260507164828 | 57 | 341 | 3.5 | 7.8 | 0.00 | 0.00 | 0.00 | 64 | 1017.1 |
| 20260507164728 | 57 | 312 | 2.6 | 7.8 | 0.00 | 0.00 | 0.00 | 65 | 1017.0 |
| 20260507164628 | 57 | 326 | 1.7 | 7.8 | 0.00 | 0.00 | 0.00 | 65 | 1017.0 |
| 20260507164526 | 57 | 326 | 1.7 | 7.8 | 0.00 | 0.00 | 0.00 | 65 | 1017.0 |
| 20260507164426 | 57 | 326 | 2.6 | 7.8 | 0.00 | 0.00 | 0.00 | 66 | 1017.0 |
| 20260507164326 | 57 | 330 | 2.6 | 7.8 | 0.00 | 0.00 | 0.00 | 66 | 1017.0 |
| 20260507164226 | 57 | 330 | 2.6 | 7.8 | 0.00 | 0.00 | 0.00 | 66 | 1017.0 |
| 20260507164129 | 57 | 329 | 3.5 | 7.8 | 0.00 | 0.00 | 0.00 | 65 | 1017.0 |
| 20260507164025 | 57 | 329 | 4.3 | 7.8 | 0.00 | 0.00 | 0.00 | 64 | 1017.0 |
| 20260507163924 | 57 | 348 | 5.2 | 7.8 | 0.00 | 0.00 | 0.00 | 64 | 1017.0 |
| 20260507163824 | 57 | 348 | 4.3 | 7.8 | 0.00 | 0.00 | 0.00 | 63 | 1017.0 |
| 20260507163722 | 57 | 340 | 4.3 | 7.8 | 0.00 | 0.00 | 0.00 | 63 | 1017.0 |
| 20260507163620 | 57 | 343 | 4.3 | 7.8 | 0.00 | 0.00 | 0.00 | 64 | 1017.0 |
| 20260507163521 | 57 | 341 | 4.3 | 8.7 | 0.00 | 0.00 | 0.00 | 64 | 1017.0 |
| 20260507163420 | 57 | 340 | 4.3 | 8.7 | 0.00 | 0.00 | 0.00 | 64 | 1017.1 |
| 20260507163317 | 57 | 329 | 4.3 | 8.7 | 0.00 | 0.00 | 0.00 | 64 | 1017.0 |
| 20260507163216 | 57 | 343 | 3.5 | 8.7 | 0.00 | 0.00 | 0.00 | 64 | 1017.0 |
| 20260507163117 | 57 | 345 | 3.5 | 8.7 | 0.00 | 0.00 | 0.00 | 64 | 1017.0 |
| 20260507163015 | 57 | 345 | 4.3 | 8.7 | 0.00 | 0.00 | 0.00 | 64 | 1017.0 |
| 20260507162916 | 57 | 303 | 4.3 | 8.7 | 0.00 | 0.00 | 0.00 | 64 | 1016.9 |
| 20260507162816 | 57 | 357 | 4.3 | 8.7 | 0.00 | 0.00 | 0.00 | 63 | 1017.0 |
| 20260507162715 | 57 | 326 | 5.2 | 8.7 | 0.00 | 0.00 | 0.00 | 62 | 1017.0 |
| 20260507162614 | 57 | 334 | 5.2 | 8.7 | 0.00 | 0.00 | 0.00 | 62 | 1017.0 |
| 20260507162514 | 57 | 317 | 5.2 | 8.7 | 0.00 | 0.00 | 0.00 | 61 | 1017.1 |
| 20260507162412 | 57 | 326 | 5.2 | 8.7 | 0.00 | 0.00 | 0.00 | 62 | 1017.0 |
| 20260507162308 | 57 | 337 | 4.3 | 8.7 | 0.00 | 0.00 | 0.00 | 61 | 1017.1 |
| 20260507162208 | 57 | 338 | 5.2 | 8.7 | 0.00 | 0.00 | 0.00 | 61 | 1017.1 |
| 20260507162109 | 57 | 312 | 5.2 | 8.7 | 0.00 | 0.00 | 0.00 | 60 | 1017.0 |
| 20260507162007 | 57 | 341 | 5.2 | 8.7 | 0.00 | 0.00 | 0.00 | 60 | 1017.0 |
| 20260507161906 | 57 | 340 | 4.3 | 8.7 | 0.00 | 0.00 | 0.00 | 60 | 1017.1 |
| 20260507161804 | 57 | 0 | 5.2 | 8.7 | 0.00 | 0.00 | 0.00 | 59 | 1017.0 |
| 20260507161703 | 57 | 347 | 5.2 | 8.7 | 0.00 | 0.00 | 0.00 | 60 | 1017.0 |
| 20260507161603 | 57 | 338 | 5.2 | 8.7 | 0.00 | 0.00 | 0.00 | 61 | 1017.0 |
| 20260507161504 | 57 | 358 | 4.3 | 8.7 | 0.00 | 0.00 | 0.00 | 61 | 1017.0 |
| 20260507161402 | 57 | 341 | 5.2 | 8.7 | 0.00 | 0.00 | 0.00 | 61 | 1017.0 |
| 20260507161302 | 57 | 340 | 5.2 | 8.7 | 0.00 | 0.00 | 0.00 | 61 | 1017.0 |
| 20260507161202 | 57 | 337 | 5.2 | 8.7 | 0.00 | 0.00 | 0.00 | 61 | 1017.1 |
| 20260507161109 | 57 | 337 | 6.1 | 8.7 | 0.00 | 0.00 | 0.00 | 61 | 1017.0 |
| 20260507161001 | 57 | 344 | 5.2 | 8.7 | 0.00 | 0.00 | 0.00 | 61 | 1016.9 |
| 20260507160901 | 57 | 343 | 4.3 | 8.7 | 0.00 | 0.00 | 0.00 | 60 | 1017.1 |
| 20260507160802 | 57 | 341 | 5.2 | 8.7 | 0.00 | 0.00 | 0.00 | 60 | 1017.0 |
| 20260507160701 | 57 | 305 | 4.3 | 8.7 | 0.00 | 0.00 | 0.00 | 61 | 1017.0 |
| 20260507160601 | 57 | 345 | 3.5 | 7.8 | 0.00 | 0.00 | 0.00 | 62 | 1017.0 |
| 20260507160459 | 57 | 324 | 4.3 | 7.8 | 0.00 | 0.00 | 0.00 | 61 | 1017.0 |
| 20260507160358 | 57 | 307 | 4.3 | 7.8 | 0.00 | 0.00 | 0.00 | 61 | 1017.0 |
| 20260507160258 | 57 | 344 | 3.5 | 7.8 | 0.00 | 0.00 | 0.00 | 61 | 1017.0 |
| 20260507160157 | 57 | 344 | 2.6 | 7.8 | 0.00 | 0.00 | 0.00 | 61 | 1016.9 |
| 20260507160053 | 57 | 358 | 3.5 | 7.8 | 0.00 | 0.00 | 0.00 | 61 | 1017.0 |
| 20260507155950 | 57 | 355 | 3.5 | 7.8 | 0.00 | 0.00 | 0.00 | 61 | 1016.9 |
| 20260507155848 | 57 | 347 | 4.3 | 7.8 | 0.00 | 0.00 | 0.00 | 61 | 1017.0 |
| 20260507155749 | 57 | 345 | 4.3 | 7.8 | 0.00 | 0.00 | 0.00 | 61 | 1016.9 |
| 20260507155646 | 57 | 329 | 4.3 | 7.8 | 0.00 | 0.00 | 0.00 | 62 | 1017.0 |
| 20260507155548 | 57 | 293 | 2.6 | 7.8 | 0.00 | 0.00 | 0.00 | 63 | 1017.0 |
| 20260507155447 | 57 | 290 | 3.5 | 8.7 | 0.00 | 0.00 | 0.00 | 63 | 1017.0 |
| 20260507155345 | 57 | 353 | 4.3 | 8.7 | 0.00 | 0.00 | 0.00 | 62 | 1017.0 |
| 20260507155244 | 57 | 357 | 4.3 | 8.7 | 0.00 | 0.00 | 0.00 | 62 | 1017.0 |
| 20260507155144 | 57 | 0 | 3.5 | 8.7 | 0.00 | 0.00 | 0.00 | 62 | 1017.0 |
| 20260507155043 | 57 | 338 | 4.3 | 8.7 | 0.00 | 0.00 | 0.00 | 62 | 1017.0 |
| 20260507154942 | 57 | 343 | 5.2 | 8.7 | 0.00 | 0.00 | 0.00 | 62 | 1016.9 |
| 20260507154843 | 57 | 0 | 5.2 | 8.7 | 0.00 | 0.00 | 0.00 | 62 | 1017.0 |
| 20260507154741 | 57 | 334 | 5.2 | 9.6 | 0.00 | 0.00 | 0.00 | 62 | 1017.0 |
| 20260507154639 | 57 | 336 | 5.2 | 9.6 | 0.00 | 0.00 | 0.00 | 62 | 1017.0 |
| 20260507154538 | 57 | 340 | 5.2 | 9.6 | 0.00 | 0.00 | 0.00 | 62 | 1016.9 |
| 20260507154438 | 57 | 353 | 5.2 | 9.6 | 0.00 | 0.00 | 0.00 | 63 | 1017.0 |
| 20260507154337 | 57 | 330 | 5.2 | 9.6 | 0.00 | 0.00 | 0.00 | 65 | 1017.0 |
| 20260507154238 | 57 | 316 | 4.3 | 9.6 | 0.00 | 0.00 | 0.00 | 65 | 1016.9 |
| 20260507154138 | 57 | 358 | 3.5 | 9.6 | 0.00 | 0.00 | 0.00 | 65 | 1016.9 |
| 20260507154037 | 57 | 340 | 5.2 | 9.6 | 0.00 | 0.00 | 0.00 | 65 | 1017.0 |
| 20260507154019 | 57 | 331 | 6.1 | 9.6 | 0.00 | 0.00 | 0.00 | 65 | 1016.9 |
| 20260507153939 | 57 | 331 | 6.1 | 9.6 | 0.00 | 0.00 | 0.00 | 65 | 1016.9 |
| 20260507153919 | 57 | 320 | 6.1 | 9.6 | 0.00 | 0.00 | 0.00 | 65 | 1016.9 |
| 20260507153839 | 57 | 320 | 6.1 | 9.6 | 0.00 | 0.00 | 0.00 | 65 | 1016.9 |
| 20260507153811 | 57 | 333 | 5.2 | 8.7 | 0.00 | 0.00 | 0.00 | 64 | 1017.0 |
| 20260507153737 | 57 | 343 | 5.2 | 8.7 | 0.00 | 0.00 | 0.00 | 65 | 1017.0 |
| 20260507153637 | 57 | 333 | 5.2 | 8.7 | 0.00 | 0.00 | 0.00 | 64 | 1017.0 |
| 20260507153535 | 57 | 0 | 5.2 | 8.7 | 0.00 | 0.00 | 0.00 | 64 | 1017.0 |
| 20260507153435 | 57 | 321 | 5.2 | 8.7 | 0.00 | 0.00 | 0.00 | 63 | 1016.9 |
| 20260507153412 | 57 | 0 | 5.2 | 8.7 | 0.00 | 0.00 | 0.00 | 64 | 1016.9 |
| 20260507153335 | 57 | 350 | 5.2 | 8.7 | 0.00 | 0.00 | 0.00 | 63 | 1016.8 |
| 20260507153303 | 57 | 351 | 5.2 | 8.7 | 0.00 | 0.00 | 0.00 | 64 | 1017.0 |
| 20260507153236 | 57 | 357 | 5.2 | 8.7 | 0.00 | 0.00 | 0.00 | 64 | 1016.9 |
| 20260507153135 | 57 | 0 | 5.2 | 8.7 | 0.00 | 0.00 | 0.00 | 64 | 1016.9 |
| 20260507153035 | 57 | 353 | 5.2 | 8.7 | 0.00 | 0.00 | 0.00 | 64 | 1016.9 |
| 20260507152935 | 57 | 351 | 5.2 | 8.7 | 0.00 | 0.00 | 0.00 | 64 | 1017.0 |
| 20260507152838 | 57 | 6 | 5.2 | 8.7 | 0.00 | 0.00 | 0.00 | 65 | 1016.9 |
| 20260507152734 | 57 | 329 | 5.2 | 8.7 | 0.00 | 0.00 | 0.00 | 66 | 1017.0 |
| 20260507152534 | 57 | 25 | 4.3 | 8.7 | 0.00 | 0.00 | 0.00 | 66 | 1016.9 |
| 20260507152437 | 57 | 0 | 3.5 | 8.7 | 0.00 | 0.00 | 0.00 | 66 | 1017.0 |
| 20260507152333 | 57 | 0 | 3.5 | 8.7 | 0.00 | 0.00 | 0.00 | 66 | 1016.9 |
| 20260507152230 | 58 | 0 | 5.2 | 8.7 | 0.00 | 0.00 | 0.00 | 65 | 1016.9 |
| 20260507152129 | 58 | 353 | 5.2 | 8.7 | 0.00 | 0.00 | 0.00 | 66 | 1016.9 |
| 20260507152029 | 58 | 1 | 4.3 | 8.7 | 0.00 | 0.00 | 0.00 | 65 | 1016.9 |
| 20260507151933 | 58 | 17 | 4.3 | 8.7 | 0.00 | 0.00 | 0.00 | 64 | 1016.9 |
| 20260507151831 | 58 | 307 | 5.2 | 8.7 | 0.00 | 0.00 | 0.00 | 63 | 1016.9 |
| 20260507151729 | 58 | 0 | 5.2 | 8.7 | 0.00 | 0.00 | 0.00 | 63 | 1016.9 |
| 20260507151627 | 58 | 355 | 5.2 | 8.7 | 0.00 | 0.00 | 0.00 | 64 | 1016.8 |
| 20260507151525 | 58 | 358 | 5.2 | 9.6 | 0.00 | 0.00 | 0.00 | 65 | 1016.9 |
| 20260507151425 | 58 | 341 | 3.5 | 9.6 | 0.00 | 0.00 | 0.00 | 65 | 1016.8 |
| 20260507151323 | 58 | 8 | 4.3 | 9.6 | 0.00 | 0.00 | 0.00 | 65 | 1016.9 |
| 20260507151223 | 58 | 0 | 5.2 | 9.6 | 0.00 | 0.00 | 0.00 | 64 | 1016.9 |
| 20260507151121 | 58 | 0 | 5.2 | 9.6 | 0.00 | 0.00 | 0.00 | 64 | 1016.9 |
| 20260507151020 | 58 | 3 | 5.2 | 9.6 | 0.00 | 0.00 | 0.00 | 64 | 1016.9 |
| 20260507150920 | 58 | 14 | 4.3 | 9.6 | 0.00 | 0.00 | 0.00 | 63 | 1016.8 |
| 20260507150819 | 58 | 0 | 5.2 | 10.4 | 0.00 | 0.00 | 0.00 | 63 | 1016.9 |
| 20260507150719 | 58 | 355 | 6.1 | 10.4 | 0.00 | 0.00 | 0.00 | 63 | 1016.9 |
| 20260507150618 | 58 | 353 | 6.1 | 10.4 | 0.00 | 0.00 | 0.00 | 64 | 1016.8 |
| 20260507150518 | 58 | 13 | 5.2 | 10.4 | 0.00 | 0.00 | 0.00 | 65 | 1016.8 |
| 20260507150418 | 58 | 350 | 4.3 | 10.4 | 0.00 | 0.00 | 0.00 | 65 | 1016.8 |
| 20260507150317 | 58 | 358 | 4.3 | 10.4 | 0.00 | 0.00 | 0.00 | 65 | 1016.9 |
| 20260507150218 | 57 | 0 | 5.2 | 10.4 | 0.00 | 0.00 | 0.00 | 65 | 1016.8 |
| 20260507150117 | 57 | 0 | 5.2 | 10.4 | 0.00 | 0.00 | 0.00 | 66 | 1016.8 |
| 20260507150014 | 57 | 351 | 7.8 | 10.4 | 0.00 | 0.00 | 0.00 | 65 | 1016.8 |
| 20260507145914 | 57 | 327 | 6.1 | 11.3 | 0.00 | 0.00 | 0.00 | 65 | 1016.9 |
| 20260507145813 | 57 | 8 | 6.1 | 12.2 | 0.00 | 0.00 | 0.00 | 65 | 1017.0 |
| 20260507145713 | 57 | 0 | 6.1 | 12.2 | 0.00 | 0.00 | 0.00 | 65 | 1016.8 |
| 20260507145613 | 57 | 0 | 6.1 | 12.2 | 0.00 | 0.00 | 0.00 | 65 | 1016.8 |
| 20260507145512 | 58 | 351 | 7.0 | 12.2 | 0.00 | 0.00 | 0.00 | 66 | 1016.8 |
| 20260507145409 | 58 | 343 | 7.0 | 12.2 | 0.00 | 0.00 | 0.00 | 66 | 1016.9 |
| 20260507145307 | 57 | 357 | 6.1 | 12.2 | 0.00 | 0.00 | 0.00 | 65 | 1016.8 |
| 20260507145205 | 58 | 17 | 6.1 | 12.2 | 0.00 | 0.00 | 0.00 | 64 | 1016.8 |
| 20260507145105 | 58 | 354 | 6.1 | 12.2 | 0.00 | 0.00 | 0.00 | 64 | 1016.9 |
| 20260507145005 | 58 | 353 | 7.0 | 12.2 | 0.00 | 0.00 | 0.00 | 65 | 1016.9 |
| 20260507144905 | 58 | 347 | 7.0 | 12.2 | 0.00 | 0.00 | 0.00 | 65 | 1016.9 |
| 20260507144804 | 58 | 358 | 6.1 | 9.6 | 0.00 | 0.00 | 0.00 | 65 | 1016.8 |
| 20260507144706 | 58 | 10 | 5.2 | 9.6 | 0.00 | 0.00 | 0.00 | 64 | 1016.8 |
| 20260507144604 | 58 | 355 | 5.2 | 9.6 | 0.00 | 0.00 | 0.00 | 64 | 1016.8 |
| 20260507144505 | 58 | 350 | 5.2 | 9.6 | 0.00 | 0.00 | 0.00 | 63 | 1016.8 |
| 20260507144403 | 58 | 0 | 5.2 | 9.6 | 0.00 | 0.00 | 0.00 | 63 | 1016.8 |
| 20260507144304 | 58 | 351 | 6.1 | 10.4 | 0.00 | 0.00 | 0.00 | 64 | 1016.7 |
| 20260507144203 | 58 | 327 | 5.2 | 10.4 | 0.00 | 0.00 | 0.00 | 64 | 1016.8 |
| 20260507144101 | 58 | 331 | 5.2 | 10.4 | 0.00 | 0.00 | 0.00 | 64 | 1016.8 |
| 20260507144001 | 58 | 10 | 4.3 | 10.4 | 0.00 | 0.00 | 0.00 | 63 | 1016.8 |
| 20260507143902 | 58 | 354 | 4.3 | 10.4 | 0.00 | 0.00 | 0.00 | 64 | 1016.8 |
| 20260507143801 | 58 | 354 | 5.2 | 10.4 | 0.00 | 0.00 | 0.00 | 64 | 1016.7 |
| 20260507143702 | 58 | 348 | 6.1 | 12.2 | 0.00 | 0.00 | 0.00 | 64 | 1016.8 |
| 20260507143601 | 58 | 326 | 5.2 | 12.2 | 0.00 | 0.00 | 0.00 | 64 | 1016.8 |
| 20260507143501 | 58 | 10 | 6.1 | 12.2 | 0.00 | 0.00 | 0.00 | 64 | 1016.8 |
| 20260507143401 | 58 | 0 | 7.0 | 12.2 | 0.00 | 0.00 | 0.00 | 64 | 1016.8 |
| 20260507143301 | 58 | 344 | 7.0 | 12.2 | 0.00 | 0.00 | 0.00 | 63 | 1016.8 |
| 20260507143201 | 59 | 316 | 7.0 | 12.2 | 0.00 | 0.00 | 0.00 | 64 | 1016.9 |
| 20260507143102 | 59 | 345 | 6.1 | 12.2 | 0.00 | 0.00 | 0.00 | 64 | 1016.9 |
| 20260507143001 | 59 | 338 | 5.2 | 12.2 | 0.00 | 0.00 | 0.00 | 64 | 1016.8 |
| 20260507142902 | 59 | 326 | 7.0 | 12.2 | 0.00 | 0.00 | 0.00 | 64 | 1016.9 |
| 20260507142754 | 59 | 0 | 6.1 | 12.2 | 0.00 | 0.00 | 0.00 | 64 | 1016.8 |
| 20260507142653 | 59 | 354 | 6.1 | 11.3 | 0.00 | 0.00 | 0.00 | 64 | 1016.7 |
| 20260507142552 | 59 | 345 | 5.2 | 11.3 | 0.00 | 0.00 | 0.00 | 65 | 1016.7 |
| 20260507142450 | 59 | 320 | 6.1 | 11.3 | 0.00 | 0.00 | 0.00 | 64 | 1016.8 |
| 20260507142350 | 59 | 343 | 7.8 | 11.3 | 0.00 | 0.00 | 0.00 | 65 | 1016.8 |
| 20260507142249 | 59 | 320 | 6.1 | 11.3 | 0.00 | 0.00 | 0.00 | 66 | 1016.8 |
| 20260507142148 | 59 | 350 | 6.1 | 11.3 | 0.00 | 0.00 | 0.00 | 67 | 1016.8 |
| 20260507142048 | 59 | 0 | 7.0 | 11.3 | 0.00 | 0.00 | 0.00 | 67 | 1016.8 |
| 20260507141947 | 59 | 340 | 6.1 | 11.3 | 0.00 | 0.00 | 0.00 | 68 | 1016.8 |
| 20260507141848 | 59 | 331 | 5.2 | 11.3 | 0.00 | 0.00 | 0.00 | 67 | 1016.7 |
| 20260507141744 | 59 | 274 | 5.2 | 11.3 | 0.00 | 0.00 | 0.00 | 67 | 1016.8 |
| 20260507141642 | 59 | 358 | 6.1 | 12.2 | 0.00 | 0.00 | 0.00 | 67 | 1016.8 |
| 20260507141541 | 59 | 313 | 7.0 | 12.2 | 0.00 | 0.00 | 0.00 | 66 | 1016.7 |
| 20260507141442 | 59 | 283 | 6.1 | 12.2 | 0.00 | 0.00 | 0.00 | 66 | 1016.8 |
| 20260507141341 | 59 | 285 | 6.1 | 12.2 | 0.00 | 0.00 | 0.00 | 66 | 1016.8 |
| 20260507141241 | 60 | 331 | 7.8 | 12.2 | 0.00 | 0.00 | 0.00 | 66 | 1016.8 |
| 20260507141140 | 60 | 0 | 7.0 | 12.2 | 0.00 | 0.00 | 0.00 | 66 | 1016.9 |
| 20260507141040 | 60 | 355 | 6.1 | 12.2 | 0.00 | 0.00 | 0.00 | 66 | 1016.8 |
| 20260507140938 | 60 | 330 | 7.0 | 12.2 | 0.00 | 0.00 | 0.00 | 66 | 1016.8 |
| 20260507140837 | 60 | 336 | 7.0 | 12.2 | 0.00 | 0.00 | 0.00 | 65 | 1016.9 |
| 20260507140737 | 60 | 330 | 6.1 | 12.2 | 0.00 | 0.00 | 0.00 | 66 | 1016.8 |
| 20260507140637 | 60 | 344 | 5.2 | 10.4 | 0.00 | 0.00 | 0.00 | 66 | 1016.9 |
| 20260507140538 | 60 | 238 | 5.2 | 10.4 | 0.00 | 0.00 | 0.00 | 67 | 1017.0 |
| 20260507140435 | 60 | 337 | 5.2 | 10.4 | 0.00 | 0.00 | 0.00 | 66 | 1017.0 |
| 20260507140336 | 60 | 312 | 5.2 | 10.4 | 0.00 | 0.00 | 0.00 | 66 | 1016.9 |
| 20260507140235 | 60 | 306 | 5.2 | 10.4 | 0.00 | 0.00 | 0.00 | 66 | 1017.0 |
| 20260507140135 | 60 | 306 | 6.1 | 10.4 | 0.00 | 0.00 | 0.00 | 67 | 1017.0 |
| 20260507140035 | 60 | 276 | 6.1 | 10.4 | 0.00 | 0.00 | 0.00 | 66 | 1016.9 |
| 20260507135935 | 60 | 341 | 5.2 | 10.4 | 0.00 | 0.00 | 0.00 | 66 | 1017.0 |
| 20260507135835 | 60 | 345 | 5.2 | 10.4 | 0.00 | 0.00 | 0.00 | 65 | 1016.9 |
| 20260507135734 | 60 | 283 | 7.0 | 11.3 | 0.00 | 0.00 | 0.00 | 66 | 1017.1 |
| 20260507135635 | 60 | 345 | 7.0 | 12.2 | 0.00 | 0.00 | 0.00 | 66 | 1017.1 |
| 20260507135535 | 60 | 336 | 6.1 | 12.2 | 0.00 | 0.00 | 0.00 | 67 | 1017.0 |
| 20260507135435 | 60 | 355 | 6.1 | 12.2 | 0.00 | 0.00 | 0.00 | 67 | 1017.0 |
| 20260507135335 | 60 | 329 | 6.1 | 12.2 | 0.00 | 0.00 | 0.00 | 67 | 1017.0 |
| 20260507135236 | 60 | 333 | 6.1 | 12.2 | 0.00 | 0.00 | 0.00 | 67 | 1017.0 |
| 20260507135136 | 59 | 323 | 6.1 | 12.2 | 0.00 | 0.00 | 0.00 | 67 | 1017.0 |
| 20260507135035 | 59 | 0 | 7.8 | 12.2 | 0.00 | 0.00 | 0.00 | 67 | 1017.1 |
| 20260507134936 | 59 | 6 | 7.8 | 12.2 | 0.00 | 0.00 | 0.00 | 66 | 1017.1 |
| 20260507134836 | 59 | 290 | 7.0 | 12.2 | 0.00 | 0.00 | 0.00 | 67 | 1017.0 |
| 20260507134735 | 59 | 306 | 7.8 | 12.2 | 0.00 | 0.00 | 0.00 | 68 | 1017.1 |
| 20260507134635 | 59 | 343 | 6.1 | 12.2 | 0.00 | 0.00 | 0.00 | 69 | 1017.1 |
| 20260507134535 | 59 | 344 | 5.2 | 12.2 | 0.00 | 0.00 | 0.00 | 69 | 1017.1 |
| 20260507134437 | 58 | 329 | 5.2 | 12.2 | 0.00 | 0.00 | 0.00 | 70 | 1017.1 |
| 20260507134338 | 58 | 307 | 5.2 | 12.2 | 0.00 | 0.00 | 0.00 | 69 | 1017.1 |
| 20260507134235 | 58 | 261 | 5.2 | 12.2 | 0.00 | 0.00 | 0.00 | 70 | 1017.1 |
| 20260507134135 | 58 | 319 | 3.5 | 12.2 | 0.00 | 0.00 | 0.00 | 70 | 1017.1 |
| 20260507134035 | 58 | 296 | 5.2 | 12.2 | 0.00 | 0.00 | 0.00 | 69 | 1017.1 |
| 20260507133935 | 58 | 324 | 7.0 | 12.2 | 0.00 | 0.00 | 0.00 | 68 | 1017.1 |
| 20260507133835 | 58 | 0 | 7.8 | 12.2 | 0.00 | 0.00 | 0.00 | 68 | 1017.1 |
| 20260507133735 | 58 | 0 | 7.0 | 10.4 | 0.00 | 0.00 | 0.00 | 68 | 1017.1 |
| 20260507133638 | 59 | 326 | 6.1 | 10.4 | 0.00 | 0.00 | 0.00 | 67 | 1017.2 |
| 20260507133536 | 59 | 306 | 5.2 | 10.4 | 0.00 | 0.00 | 0.00 | 68 | 1017.2 |
| 20260507133435 | 59 | 278 | 5.2 | 10.4 | 0.00 | 0.00 | 0.00 | 68 | 1017.2 |
| 20260507133335 | 59 | 292 | 6.1 | 10.4 | 0.00 | 0.00 | 0.00 | 68 | 1017.2 |
| 20260507133235 | 59 | 272 | 5.2 | 10.4 | 0.00 | 0.00 | 0.00 | 68 | 1017.2 |
| 20260507133135 | 59 | 282 | 5.2 | 10.4 | 0.00 | 0.00 | 0.00 | 68 | 1017.2 |
| 20260507133036 | 59 | 298 | 6.1 | 10.4 | 0.00 | 0.00 | 0.00 | 67 | 1017.2 |
| 20260507132934 | 59 | 289 | 6.1 | 10.4 | 0.00 | 0.00 | 0.00 | 67 | 1017.2 |
| 20260507132837 | 59 | 289 | 6.1 | 10.4 | 0.00 | 0.00 | 0.00 | 68 | 1017.2 |
| 20260507132737 | 60 | 329 | 5.2 | 9.6 | 0.00 | 0.00 | 0.00 | 67 | 1017.2 |
| 20260507132638 | 60 | 344 | 5.2 | 11.3 | 0.00 | 0.00 | 0.00 | 68 | 1017.3 |
| 20260507132537 | 60 | 258 | 5.2 | 11.3 | 0.00 | 0.00 | 0.00 | 67 | 1017.3 |
| 20260507132436 | 60 | 286 | 5.2 | 11.3 | 0.00 | 0.00 | 0.00 | 67 | 1017.2 |
| 20260507132336 | 60 | 320 | 5.2 | 11.3 | 0.00 | 0.00 | 0.00 | 67 | 1017.2 |
| 20260507132236 | 60 | 312 | 6.1 | 11.3 | 0.00 | 0.00 | 0.00 | 66 | 1017.2 |
| 20260507132135 | 60 | 305 | 6.1 | 11.3 | 0.00 | 0.00 | 0.00 | 66 | 1017.1 |
| 20260507132035 | 60 | 336 | 6.1 | 11.3 | 0.00 | 0.00 | 0.00 | 66 | 1017.1 |
| 20260507131935 | 60 | 288 | 6.1 | 11.3 | 0.00 | 0.00 | 0.00 | 66 | 1017.2 |
| 20260507131835 | 60 | 338 | 6.1 | 11.3 | 0.00 | 0.00 | 0.00 | 66 | 1017.2 |
| 20260507131735 | 60 | 313 | 6.1 | 11.3 | 0.00 | 0.00 | 0.00 | 65 | 1017.0 |
| 20260507131635 | 60 | 340 | 5.2 | 10.4 | 0.00 | 0.00 | 0.00 | 66 | 1017.1 |
| 20260507131538 | 60 | 331 | 5.2 | 10.4 | 0.00 | 0.00 | 0.00 | 68 | 1017.1 |
| 20260507131435 | 60 | 338 | 6.1 | 10.4 | 0.00 | 0.00 | 0.00 | 67 | 1017.2 |
| 20260507131335 | 60 | 0 | 6.1 | 10.4 | 0.00 | 0.00 | 0.00 | 66 | 1017.2 |
| 20260507131236 | 60 | 296 | 6.1 | 10.4 | 0.00 | 0.00 | 0.00 | 66 | 1017.1 |
| 20260507131136 | 60 | 0 | 6.1 | 10.4 | 0.00 | 0.00 | 0.00 | 67 | 1017.2 |
| 20260507131035 | 60 | 266 | 6.1 | 10.4 | 0.00 | 0.00 | 0.00 | 68 | 1017.2 |
| 20260507130941 | 59 | 345 | 7.0 | 10.4 | 0.00 | 0.00 | 0.00 | 67 | 1017.2 |
| 20260507130836 | 59 | 302 | 7.0 | 12.2 | 0.00 | 0.00 | 0.00 | 67 | 1017.2 |
| 20260507130735 | 59 | 329 | 7.0 | 12.2 | 0.00 | 0.00 | 0.00 | 68 | 1017.1 |
| 20260507130635 | 59 | 341 | 6.1 | 12.2 | 0.00 | 0.00 | 0.00 | 67 | 1017.1 |
| 20260507130535 | 59 | 281 | 4.3 | 12.2 | 0.00 | 0.00 | 0.00 | 69 | 1017.1 |
| 20260507130438 | 59 | 306 | 5.2 | 12.2 | 0.00 | 0.00 | 0.00 | 68 | 1017.1 |
| 20260507130336 | 59 | 289 | 7.0 | 12.2 | 0.00 | 0.00 | 0.00 | 66 | 1017.1 |
| 20260507130236 | 59 | 296 | 7.0 | 12.2 | 0.00 | 0.00 | 0.00 | 66 | 1017.1 |
| 20260507130135 | 60 | 305 | 5.2 | 12.2 | 0.00 | 0.00 | 0.00 | 66 | 1017.1 |
| 20260507130035 | 59 | 351 | 6.1 | 12.2 | 0.00 | 0.00 | 0.00 | 66 | 1017.1 |
| 20260507125935 | 60 | 357 | 7.0 | 12.2 | 0.00 | 0.00 | 0.00 | 67 | 1017.1 |
| 20260507125835 | 59 | 343 | 6.1 | 12.2 | 0.00 | 0.00 | 0.00 | 67 | 1017.2 |
| 20260507125735 | 59 | 344 | 7.0 | 12.2 | 0.00 | 0.00 | 0.00 | 66 | 1017.0 |
| 20260507125636 | 60 | 333 | 7.0 | 12.2 | 0.00 | 0.00 | 0.00 | 66 | 1017.0 |
| 20260507125535 | 60 | 289 | 6.1 | 12.2 | 0.00 | 0.00 | 0.00 | 66 | 1017.1 |
| 20260507125435 | 60 | 312 | 5.2 | 12.2 | 0.00 | 0.00 | 0.00 | 67 | 1017.1 |
| 20260507125335 | 60 | 248 | 5.2 | 12.2 | 0.00 | 0.00 | 0.00 | 66 | 1017.1 |
| 20260507125234 | 60 | 344 | 6.1 | 12.2 | 0.00 | 0.00 | 0.00 | 66 | 1017.1 |
| 20260507125135 | 60 | 281 | 6.1 | 12.2 | 0.00 | 0.00 | 0.00 | 67 | 1017.1 |
| 20260507125036 | 60 | 14 | 5.2 | 11.3 | 0.00 | 0.00 | 0.00 | 67 | 1017.0 |
| 20260507124935 | 60 | 282 | 6.1 | 11.3 | 0.00 | 0.00 | 0.00 | 66 | 1017.0 |
| 20260507124835 | 59 | 289 | 7.0 | 11.3 | 0.00 | 0.00 | 0.00 | 66 | 1017.0 |
| 20260507124736 | 59 | 276 | 5.2 | 11.3 | 0.00 | 0.00 | 0.00 | 68 | 1017.0 |
| 20260507124635 | 59 | 320 | 6.1 | 11.3 | 0.00 | 0.00 | 0.00 | 67 | 1017.0 |
| 20260507124535 | 59 | 327 | 7.0 | 11.3 | 0.00 | 0.00 | 0.00 | 66 | 1017.1 |
| 20260507124435 | 59 | 306 | 7.0 | 11.3 | 0.00 | 0.00 | 0.00 | 67 | 1017.1 |
| 20260507124336 | 59 | 0 | 7.8 | 11.3 | 0.00 | 0.00 | 0.00 | 67 | 1017.0 |
| 20260507124236 | 59 | 336 | 8.7 | 11.3 | 0.00 | 0.00 | 0.00 | 66 | 1017.0 |
| 20260507124136 | 59 | 307 | 8.7 | 11.3 | 0.00 | 0.00 | 0.00 | 65 | 1017.0 |
| 20260507124035 | 59 | 307 | 7.8 | 11.3 | 0.00 | 0.00 | 0.00 | 65 | 1016.9 |
| 20260507123936 | 59 | 333 | 6.1 | 11.3 | 0.00 | 0.00 | 0.00 | 65 | 1016.9 |
| 20260507123836 | 59 | 321 | 7.0 | 11.3 | 0.00 | 0.00 | 0.00 | 67 | 1016.9 |
| 20260507123736 | 59 | 259 | 7.8 | 11.3 | 0.00 | 0.00 | 0.00 | 64 | 1017.0 |
| 20260507123637 | 60 | 303 | 7.8 | 11.3 | 0.00 | 0.00 | 0.00 | 64 | 1017.0 |
| 20260507123535 | 60 | 306 | 7.0 | 11.3 | 0.00 | 0.00 | 0.00 | 64 | 1016.9 |
| 20260507123435 | 60 | 312 | 6.1 | 9.6 | 0.00 | 0.00 | 0.00 | 65 | 1017.0 |
| 20260507123335 | 60 | 259 | 6.1 | 9.6 | 0.00 | 0.00 | 0.00 | 64 | 1017.0 |
| 20260507123235 | 60 | 323 | 6.1 | 9.6 | 0.00 | 0.00 | 0.00 | 65 | 1017.0 |
| 20260507123136 | 60 | 271 | 6.1 | 9.6 | 0.00 | 0.00 | 0.00 | 65 | 1016.9 |
| 20260507123035 | 60 | 295 | 6.1 | 9.6 | 0.00 | 0.00 | 0.00 | 65 | 1017.0 |
| 20260507122936 | 60 | 271 | 5.2 | 9.6 | 0.00 | 0.00 | 0.00 | 65 | 1017.0 |
| 20260507122835 | 60 | 338 | 5.2 | 9.6 | 0.00 | 0.00 | 0.00 | 66 | 1016.9 |
| 20260507122735 | 60 | 330 | 5.2 | 9.6 | 0.00 | 0.00 | 0.00 | 66 | 1017.0 |
| 20260507122636 | 60 | 299 | 5.2 | 9.6 | 0.00 | 0.00 | 0.00 | 65 | 1016.9 |
| 20260507122538 | 60 | 347 | 6.1 | 9.6 | 0.00 | 0.00 | 0.00 | 66 | 1016.9 |
| 20260507122438 | 60 | 336 | 5.2 | 9.6 | 0.00 | 0.00 | 0.00 | 64 | 1016.9 |
| 20260507122337 | 60 | 316 | 6.1 | 9.6 | 0.00 | 0.00 | 0.00 | 64 | 1016.9 |
| 20260507122239 | 60 | 298 | 6.1 | 9.6 | 0.00 | 0.00 | 0.00 | 66 | 1016.9 |
| 20260507122136 | 60 | 275 | 6.1 | 9.6 | 0.00 | 0.00 | 0.00 | 64 | 1017.0 |
| 20260507122036 | 60 | 282 | 5.2 | 9.6 | 0.00 | 0.00 | 0.00 | 66 | 1016.9 |
| 20260507121935 | 60 | 0 | 5.2 | 9.6 | 0.00 | 0.00 | 0.00 | 66 | 1017.0 |
| 20260507121835 | 60 | 305 | 5.2 | 9.6 | 0.00 | 0.00 | 0.00 | 66 | 1017.0 |
| 20260507121735 | 60 | 314 | 6.1 | 9.6 | 0.00 | 0.00 | 0.00 | 65 | 1016.9 |
| 20260507121635 | 60 | 351 | 6.1 | 9.6 | 0.00 | 0.00 | 0.00 | 65 | 1016.9 |
| 20260507121535 | 60 | 296 | 6.1 | 9.6 | 0.00 | 0.00 | 0.00 | 65 | 1016.9 |
| 20260507121436 | 61 | 313 | 5.2 | 9.6 | 0.00 | 0.00 | 0.00 | 64 | 1017.0 |
| 20260507121335 | 61 | 0 | 4.3 | 9.6 | 0.00 | 0.00 | 0.00 | 65 | 1017.1 |
| 20260507121235 | 60 | 331 | 4.3 | 9.6 | 0.00 | 0.00 | 0.00 | 64 | 1016.9 |
| 20260507121135 | 60 | 293 | 4.3 | 9.6 | 0.00 | 0.00 | 0.00 | 62 | 1017.0 |
| 20260507121035 | 61 | 0 | 5.2 | 9.6 | 0.00 | 0.00 | 0.00 | 63 | 1017.0 |
| 20260507120935 | 61 | 353 | 5.2 | 9.6 | 0.00 | 0.00 | 0.00 | 66 | 1017.0 |
| 20260507120835 | 60 | 343 | 5.2 | 9.6 | 0.00 | 0.00 | 0.00 | 66 | 1017.0 |
| 20260507120735 | 60 | 262 | 4.3 | 8.7 | 0.00 | 0.00 | 0.00 | 66 | 1017.0 |
| 20260507120637 | 60 | 278 | 4.3 | 9.6 | 0.00 | 0.00 | 0.00 | 64 | 1017.0 |
| 20260507120537 | 60 | 271 | 4.3 | 9.6 | 0.00 | 0.00 | 0.00 | 64 | 1017.1 |
| 20260507120436 | 60 | 344 | 4.3 | 9.6 | 0.00 | 0.00 | 0.00 | 66 | 1017.0 |
| 20260507120337 | 60 | 293 | 4.3 | 11.3 | 0.00 | 0.00 | 0.00 | 66 | 1017.0 |
| 20260507120236 | 60 | 333 | 6.1 | 11.3 | 0.00 | 0.00 | 0.00 | 67 | 1017.0 |
| 20260507120135 | 60 | 0 | 6.1 | 11.3 | 0.00 | 0.00 | 0.00 | 68 | 1017.0 |
| 20260507120036 | 60 | 285 | 6.1 | 11.3 | 0.00 | 0.00 | 0.00 | 67 | 1016.9 |
| 20260507115935 | 60 | 265 | 6.1 | 11.3 | 0.00 | 0.00 | 0.00 | 66 | 1017.0 |
| 20260507115835 | 60 | 292 | 6.1 | 11.3 | 0.00 | 0.00 | 0.00 | 67 | 1017.0 |
| 20260507115735 | 60 | 283 | 5.2 | 11.3 | 0.00 | 0.00 | 0.00 | 68 | 1017.0 |
| 20260507115636 | 60 | 285 | 4.3 | 11.3 | 0.00 | 0.00 | 0.00 | 68 | 1017.0 |
| 20260507115536 | 60 | 269 | 6.1 | 11.3 | 0.00 | 0.00 | 0.00 | 66 | 1017.0 |
| 20260507115435 | 60 | 279 | 7.0 | 11.3 | 0.00 | 0.00 | 0.00 | 67 | 1017.0 |
| 20260507115335 | 60 | 310 | 6.1 | 10.4 | 0.00 | 0.00 | 0.00 | 67 | 1017.0 |
| 20260507115236 | 60 | 292 | 7.0 | 10.4 | 0.00 | 0.00 | 0.00 | 66 | 1017.1 |
| 20260507115135 | 60 | 312 | 6.1 | 10.4 | 0.00 | 0.00 | 0.00 | 66 | 1017.0 |
| 20260507115035 | 60 | 306 | 5.2 | 8.7 | 0.00 | 0.00 | 0.00 | 65 | 1017.0 |
| 20260507114936 | 60 | 285 | 5.2 | 8.7 | 0.00 | 0.00 | 0.00 | 65 | 1017.0 |
| 20260507114838 | 60 | 296 | 5.2 | 8.7 | 0.00 | 0.00 | 0.00 | 64 | 1016.9 |
| 20260507114736 | 60 | 326 | 6.1 | 8.7 | 0.00 | 0.00 | 0.00 | 65 | 1017.0 |
| 20260507114635 | 60 | 283 | 5.2 | 8.7 | 0.00 | 0.00 | 0.00 | 64 | 1017.0 |
| 20260507114536 | 60 | 302 | 3.5 | 8.7 | 0.00 | 0.00 | 0.00 | 63 | 1017.0 |
| 20260507114434 | 60 | 324 | 5.2 | 8.7 | 0.00 | 0.00 | 0.00 | 63 | 1017.0 |
| 20260507114336 | 60 | 343 | 5.2 | 8.7 | 0.00 | 0.00 | 0.00 | 64 | 1017.0 |
| 20260507114235 | 60 | 340 | 5.2 | 8.7 | 0.00 | 0.00 | 0.00 | 64 | 1017.0 |
| 20260507114136 | 60 | 326 | 5.2 | 7.8 | 0.00 | 0.00 | 0.00 | 65 | 1017.0 |
| 20260507114034 | 60 | 317 | 5.2 | 10.4 | 0.00 | 0.00 | 0.00 | 64 | 1017.0 |
| 20260507113936 | 60 | 320 | 4.3 | 10.4 | 0.00 | 0.00 | 0.00 | 66 | 1017.0 |
| 20260507113848 | 60 | 323 | 3.5 | 10.4 | 0.00 | 0.00 | 0.00 | 66 | 1017.0 |
| 20260507113735 | 60 | 347 | 3.5 | 10.4 | 0.00 | 0.00 | 0.00 | 65 | 1017.0 |
| 20260507113635 | 60 | 302 | 4.3 | 10.4 | 0.00 | 0.00 | 0.00 | 66 | 1017.0 |
| 20260507113535 | 59 | 316 | 3.5 | 10.4 | 0.00 | 0.00 | 0.00 | 64 | 1017.0 |
| 20260507113435 | 59 | 320 | 2.6 | 10.4 | 0.00 | 0.00 | 0.00 | 63 | 1017.0 |
| 20260507113335 | 59 | 7 | 3.5 | 10.4 | 0.00 | 0.00 | 0.00 | 63 | 1017.0 |
| 20260507113235 | 59 | 358 | 5.2 | 10.4 | 0.00 | 0.00 | 0.00 | 64 | 1017.0 |
| 20260507113135 | 59 | 334 | 6.1 | 10.4 | 0.00 | 0.00 | 0.00 | 67 | 1017.0 |
| 20260507113037 | 59 | 279 | 5.2 | 10.4 | 0.00 | 0.00 | 0.00 | 67 | 1016.9 |
| 20260507112936 | 59 | 324 | 5.2 | 10.4 | 0.00 | 0.00 | 0.00 | 67 | 1016.9 |
| 20260507112835 | 59 | 324 | 6.1 | 10.4 | 0.00 | 0.00 | 0.00 | 65 | 1017.0 |
| 20260507112735 | 59 | 274 | 5.2 | 10.4 | 0.00 | 0.00 | 0.00 | 66 | 1016.9 |
| 20260507112635 | 59 | 283 | 5.2 | 10.4 | 0.00 | 0.00 | 0.00 | 66 | 1017.0 |
| 20260507112535 | 59 | 274 | 4.3 | 10.4 | 0.00 | 0.00 | 0.00 | 66 | 1016.9 |
| 20260507112435 | 59 | 290 | 5.2 | 10.4 | 0.00 | 0.00 | 0.00 | 66 | 1017.0 |
| 20260507112334 | 59 | 276 | 5.2 | 10.4 | 0.00 | 0.00 | 0.00 | 66 | 1017.0 |
| 20260507112236 | 59 | 345 | 6.1 | 10.4 | 0.00 | 0.00 | 0.00 | 68 | 1017.0 |
| 20260507112136 | 59 | 265 | 6.1 | 10.4 | 0.00 | 0.00 | 0.00 | 67 | 1017.0 |
| 20260507112035 | 59 | 292 | 6.1 | 10.4 | 0.00 | 0.00 | 0.00 | 67 | 1017.0 |
| 20260507111936 | 59 | 285 | 5.2 | 10.4 | 0.00 | 0.00 | 0.00 | 66 | 1017.0 |
| 20260507111836 | 59 | 286 | 6.1 | 10.4 | 0.00 | 0.00 | 0.00 | 66 | 1017.0 |
| 20260507111736 | 59 | 281 | 6.1 | 10.4 | 0.00 | 0.00 | 0.00 | 66 | 1017.0 |
| 20260507111635 | 59 | 275 | 5.2 | 8.7 | 0.00 | 0.00 | 0.00 | 67 | 1017.0 |
| 20260507111535 | 59 | 333 | 5.2 | 8.7 | 0.00 | 0.00 | 0.00 | 67 | 1017.0 |
| 20260507111436 | 59 | 289 | 6.1 | 10.4 | 0.00 | 0.00 | 0.00 | 67 | 1017.1 |
| 20260507111336 | 58 | 303 | 6.1 | 10.4 | 0.00 | 0.00 | 0.00 | 67 | 1017.0 |
| 20260507111235 | 58 | 288 | 6.1 | 10.4 | 0.00 | 0.00 | 0.00 | 66 | 1017.0 |
| 20260507111134 | 58 | 323 | 6.1 | 10.4 | 0.00 | 0.00 | 0.00 | 66 | 1017.0 |
| 20260507111037 | 59 | 302 | 5.2 | 10.4 | 0.00 | 0.00 | 0.00 | 65 | 1017.0 |
| 20260507110937 | 59 | 283 | 5.2 | 10.4 | 0.00 | 0.00 | 0.00 | 64 | 1017.2 |
| 20260507110837 | 59 | 289 | 5.2 | 10.4 | 0.00 | 0.00 | 0.00 | 64 | 1017.2 |
| 20260507110735 | 59 | 286 | 5.2 | 10.4 | 0.00 | 0.00 | 0.00 | 64 | 1017.1 |
| 20260507110635 | 59 | 344 | 6.1 | 10.4 | 0.00 | 0.00 | 0.00 | 64 | 1017.1 |
| 20260507110535 | 59 | 292 | 6.1 | 10.4 | 0.00 | 0.00 | 0.00 | 65 | 1017.1 |
| 20260507110436 | 59 | 310 | 4.3 | 9.6 | 0.00 | 0.00 | 0.00 | 66 | 1017.1 |
| 20260507110335 | 59 | 272 | 5.2 | 9.6 | 0.00 | 0.00 | 0.00 | 66 | 1017.2 |
| 20260507110235 | 59 | 289 | 4.3 | 9.6 | 0.00 | 0.00 | 0.00 | 67 | 1017.2 |
| 20260507110134 | 59 | 307 | 4.3 | 9.6 | 0.00 | 0.00 | 0.00 | 66 | 1017.2 |
| 20260507110036 | 59 | 290 | 5.2 | 9.6 | 0.00 | 0.00 | 0.00 | 66 | 1017.1 |
| 20260507105935 | 59 | 276 | 6.1 | 9.6 | 0.00 | 0.00 | 0.00 | 65 | 1017.3 |
| 20260507105836 | 59 | 285 | 5.2 | 9.6 | 0.00 | 0.00 | 0.00 | 67 | 1017.3 |
| 20260507105735 | 59 | 285 | 4.3 | 9.6 | 0.00 | 0.00 | 0.00 | 66 | 1017.2 |
| 20260507105635 | 59 | 283 | 4.3 | 9.6 | 0.00 | 0.00 | 0.00 | 66 | 1017.3 |
| 20260507105535 | 58 | 288 | 3.5 | 9.6 | 0.00 | 0.00 | 0.00 | 66 | 1017.2 |
| 20260507105435 | 58 | 288 | 2.6 | 9.6 | 0.00 | 0.00 | 0.00 | 65 | 1017.2 |
| 20260507105237 | 58 | 336 | 4.3 | 9.6 | 0.00 | 0.00 | 0.00 | 65 | 1017.3 |
| 20260507105034 | 58 | 275 | 5.2 | 9.6 | 0.00 | 0.00 | 0.00 | 63 | 1017.2 |
| 20260507104936 | 58 | 286 | 6.1 | 9.6 | 0.00 | 0.00 | 0.00 | 63 | 1017.1 |
| 20260507104834 | 59 | 276 | 5.2 | 9.6 | 0.00 | 0.00 | 0.00 | 65 | 1017.1 |
| 20260507104735 | 58 | 293 | 4.3 | 9.6 | 0.00 | 0.00 | 0.00 | 65 | 1017.1 |
| 20260507104635 | 59 | 289 | 5.2 | 9.6 | 0.00 | 0.00 | 0.00 | 66 | 1017.2 |
| 20260507104535 | 59 | 285 | 6.1 | 9.6 | 0.00 | 0.00 | 0.00 | 66 | 1017.2 |
| 20260507104436 | 59 | 324 | 5.2 | 9.6 | 0.00 | 0.00 | 0.00 | 67 | 1017.2 |
| 20260507104335 | 59 | 252 | 5.2 | 8.7 | 0.00 | 0.00 | 0.00 | 66 | 1017.2 |
| 20260507104237 | 59 | 278 | 5.2 | 8.7 | 0.00 | 0.00 | 0.00 | 65 | 1017.2 |
| 20260507104134 | 59 | 266 | 6.1 | 8.7 | 0.00 | 0.00 | 0.00 | 64 | 1017.2 |
| 20260507104035 | 59 | 300 | 6.1 | 8.7 | 0.00 | 0.00 | 0.00 | 64 | 1017.2 |
| 20260507103935 | 59 | 278 | 5.2 | 7.8 | 0.00 | 0.00 | 0.00 | 64 | 1017.1 |
| 20260507103835 | 59 | 279 | 4.3 | 7.8 | 0.00 | 0.00 | 0.00 | 62 | 1017.2 |
| 20260507103736 | 59 | 261 | 3.5 | 7.8 | 0.00 | 0.00 | 0.00 | 59 | 1017.3 |
| 20260507103635 | 59 | 276 | 4.3 | 7.8 | 0.00 | 0.00 | 0.00 | 60 | 1017.2 |
| 20260507103535 | 59 | 334 | 3.5 | 7.8 | 0.00 | 0.00 | 0.00 | 59 | 1017.2 |
| 20260507103436 | 59 | 320 | 3.5 | 7.8 | 0.00 | 0.00 | 0.00 | 59 | 1017.3 |
| 20260507103336 | 59 | 0 | 4.3 | 7.8 | 0.00 | 0.00 | 0.00 | 57 | 1017.3 |
| 20260507103235 | 59 | 1 | 3.5 | 7.8 | 0.00 | 0.00 | 0.00 | 57 | 1017.2 |
| 20260507103135 | 59 | 340 | 1.7 | 7.8 | 0.00 | 0.00 | 0.00 | 57 | 1017.3 |
| 20260507103034 | 59 | 340 | 3.5 | 8.7 | 0.00 | 0.00 | 0.00 | 54 | 1017.2 |
| 20260507102934 | 59 | 0 | 3.5 | 8.7 | 0.00 | 0.00 | 0.00 | 53 | 1017.2 |
| 20260507102835 | 59 | 4 | 3.5 | 8.7 | 0.00 | 0.00 | 0.00 | 59 | 1017.3 |
| 20260507102735 | 59 | 0 | 4.3 | 8.7 | 0.00 | 0.00 | 0.00 | 60 | 1017.2 |
| 20260507102635 | 59 | 357 | 4.3 | 8.7 | 0.00 | 0.00 | 0.00 | 61 | 1017.2 |
| 20260507102536 | 59 | 3 | 3.5 | 8.7 | 0.00 | 0.00 | 0.00 | 60 | 1017.2 |
| 20260507102435 | 59 | 329 | 3.5 | 8.7 | 0.00 | 0.00 | 0.00 | 57 | 1017.2 |
| 20260507102337 | 59 | 329 | 3.5 | 8.7 | 0.00 | 0.00 | 0.00 | 59 | 1017.2 |
| 20260507102236 | 58 | 355 | 4.3 | 8.7 | 0.00 | 0.00 | 0.00 | 59 | 1017.2 |
| 20260507102135 | 58 | 1 | 5.2 | 8.7 | 0.00 | 0.00 | 0.00 | 58 | 1017.2 |
| 20260507102036 | 58 | 326 | 4.3 | 7.8 | 0.00 | 0.00 | 0.00 | 58 | 1017.1 |
| 20260507101936 | 58 | 348 | 3.5 | 7.8 | 0.00 | 0.00 | 0.00 | 58 | 1017.1 |
| 20260507101834 | 58 | 0 | 4.3 | 7.8 | 0.00 | 0.00 | 0.00 | 60 | 1017.2 |
| 20260507101735 | 58 | 0 | 5.2 | 7.8 | 0.00 | 0.00 | 0.00 | 60 | 1017.2 |
| 20260507101634 | 58 | 331 | 5.2 | 7.8 | 0.00 | 0.00 | 0.00 | 60 | 1017.2 |
| 20260507101538 | 58 | 348 | 5.2 | 7.8 | 0.00 | 0.00 | 0.00 | 60 | 1017.2 |
| 20260507101435 | 58 | 340 | 5.2 | 7.8 | 0.00 | 0.00 | 0.00 | 62 | 1017.2 |
| 20260507101336 | 58 | 0 | 4.3 | 8.7 | 0.00 | 0.00 | 0.00 | 60 | 1017.3 |
| 20260507101235 | 59 | 0 | 3.5 | 9.6 | 0.00 | 0.00 | 0.00 | 61 | 1017.3 |
| 20260507101135 | 59 | 7 | 4.3 | 9.6 | 0.00 | 0.00 | 0.00 | 56 | 1017.2 |
| 20260507101035 | 59 | 4 | 3.5 | 9.6 | 0.00 | 0.00 | 0.00 | 59 | 1017.2 |
| 20260507100936 | 59 | 6 | 3.5 | 9.6 | 0.00 | 0.00 | 0.00 | 59 | 1017.2 |
| 20260507100835 | 59 | 1 | 3.5 | 9.6 | 0.00 | 0.00 | 0.00 | 60 | 1017.2 |
| 20260507100735 | 58 | 13 | 3.5 | 9.6 | 0.00 | 0.00 | 0.00 | 59 | 1017.2 |
| 20260507100634 | 58 | 1 | 3.5 | 9.6 | 0.00 | 0.00 | 0.00 | 60 | 1017.1 |
| 20260507100535 | 58 | 0 | 4.3 | 9.6 | 0.00 | 0.00 | 0.00 | 62 | 1017.1 |
| 20260507100435 | 58 | 16 | 4.3 | 9.6 | 0.00 | 0.00 | 0.00 | 63 | 1017.2 |
| 20260507100335 | 58 | 353 | 4.3 | 9.6 | 0.00 | 0.00 | 0.00 | 62 | 1017.1 |
| 20260507100235 | 58 | 344 | 4.3 | 8.7 | 0.00 | 0.00 | 0.00 | 61 | 1017.0 |
| 20260507100135 | 58 | 350 | 5.2 | 8.7 | 0.00 | 0.00 | 0.00 | 61 | 1017.1 |
| 20260507100035 | 58 | 351 | 4.3 | 8.7 | 0.00 | 0.00 | 0.00 | 60 | 1017.1 |
| 20260507095936 | 58 | 0 | 4.3 | 8.7 | 0.00 | 0.00 | 0.00 | 62 | 1017.0 |
| 20260507095835 | 58 | 25 | 5.2 | 8.7 | 0.00 | 0.00 | 0.00 | 61 | 1017.1 |
| 20260507095736 | 58 | 343 | 4.3 | 8.7 | 0.00 | 0.00 | 0.00 | 62 | 1017.1 |
| 20260507095635 | 58 | 312 | 3.5 | 6.1 | 0.00 | 0.00 | 0.00 | 61 | 1017.0 |
| 20260507095535 | 58 | 34 | 3.5 | 6.1 | 0.00 | 0.00 | 0.00 | 60 | 1017.0 |
| 20260507095435 | 58 | 345 | 3.5 | 6.1 | 0.00 | 0.00 | 0.00 | 60 | 1017.0 |
| 20260507095335 | 58 | 358 | 3.5 | 6.1 | 0.00 | 0.00 | 0.00 | 61 | 1017.1 |
| 20260507095235 | 58 | 0 | 4.3 | 6.1 | 0.00 | 0.00 | 0.00 | 60 | 1017.1 |
| 20260507095135 | 58 | 330 | 3.5 | 6.1 | 0.00 | 0.00 | 0.00 | 61 | 1017.1 |
| 20260507095035 | 58 | 344 | 2.6 | 8.7 | 0.00 | 0.00 | 0.00 | 62 | 1017.0 |
| 20260507094935 | 58 | 347 | 2.6 | 8.7 | 0.00 | 0.00 | 0.00 | 59 | 1017.0 |
| 20260507094835 | 58 | 0 | 3.5 | 8.7 | 0.00 | 0.00 | 0.00 | 61 | 1017.0 |
| 20260507094735 | 58 | 0 | 3.5 | 8.7 | 0.00 | 0.00 | 0.00 | 63 | 1017.0 |
| 20260507094635 | 58 | 3 | 2.6 | 8.7 | 0.00 | 0.00 | 0.00 | 63 | 1017.0 |
| 20260507094534 | 58 | 0 | 1.7 | 8.7 | 0.00 | 0.00 | 0.00 | 64 | 1017.0 |
| 20260507094436 | 58 | 358 | 1.7 | 8.7 | 0.00 | 0.00 | 0.00 | 63 | 1017.0 |
| 20260507094335 | 58 | 0 | 3.5 | 8.7 | 0.00 | 0.00 | 0.00 | 61 | 1017.0 |
| 20260507094235 | 58 | 0 | 4.3 | 8.7 | 0.00 | 0.00 | 0.00 | 62 | 1017.0 |
| 20260507094135 | 58 | 0 | 3.5 | 8.7 | 0.00 | 0.00 | 0.00 | 61 | 1017.2 |
| 20260507094035 | 58 | 0 | 2.6 | 6.1 | 0.00 | 0.00 | 0.00 | 62 | 1017.0 |
| 20260507093934 | 58 | 0 | 3.5 | 6.1 | 0.00 | 0.00 | 0.00 | 63 | 1017.0 |
| 20260507093840 | 58 | 0 | 4.3 | 6.1 | 0.00 | 0.00 | 0.00 | 63 | 1017.0 |
| 20260507093736 | 58 | 358 | 4.3 | 6.1 | 0.00 | 0.00 | 0.00 | 64 | 1017.0 |
| 20260507093637 | 58 | 0 | 3.5 | 6.1 | 0.00 | 0.00 | 0.00 | 64 | 1017.0 |
| 20260507093537 | 58 | 351 | 3.5 | 6.1 | 0.00 | 0.00 | 0.00 | 64 | 1017.0 |
| 20260507093437 | 58 | 326 | 3.5 | 6.1 | 0.00 | 0.00 | 0.00 | 64 | 1017.0 |
| 20260507093336 | 58 | 348 | 3.5 | 6.1 | 0.00 | 0.00 | 0.00 | 63 | 1017.0 |
| 20260507093236 | 58 | 0 | 4.3 | 6.1 | 0.00 | 0.00 | 0.00 | 64 | 1017.0 |
| 20260507093135 | 58 | 1 | 5.2 | 6.1 | 0.00 | 0.00 | 0.00 | 64 | 1016.9 |
| 20260507093035 | 58 | 0 | 3.5 | 6.1 | 0.00 | 0.00 | 0.00 | 65 | 1016.9 |
| 20260507092935 | 58 | 14 | 2.6 | 6.1 | 0.00 | 0.00 | 0.00 | 68 | 1017.0 |
| 20260507092836 | 58 | 14 | 2.6 | 6.1 | 0.00 | 0.00 | 0.00 | 67 | 1017.0 |
| 20260507092735 | 57 | 8 | 2.6 | 6.1 | 0.00 | 0.00 | 0.00 | 65 | 1016.9 |
| 20260507092635 | 57 | 0 | 3.5 | 6.1 | 0.00 | 0.00 | 0.00 | 65 | 1017.0 |
| 20260507092535 | 57 | 21 | 3.5 | 7.8 | 0.00 | 0.00 | 0.00 | 65 | 1017.0 |
| 20260507092434 | 57 | 0 | 4.3 | 7.8 | 0.00 | 0.00 | 0.00 | 65 | 1016.9 |
| 20260507092335 | 57 | 3 | 4.3 | 7.8 | 0.00 | 0.00 | 0.00 | 66 | 1016.9 |
| 20260507092235 | 57 | 331 | 4.3 | 7.8 | 0.00 | 0.00 | 0.00 | 65 | 1016.9 |
| 20260507092135 | 57 | 1 | 4.3 | 7.8 | 0.00 | 0.00 | 0.00 | 65 | 1016.9 |
| 20260507092035 | 57 | 334 | 4.3 | 7.8 | 0.00 | 0.00 | 0.00 | 64 | 1016.9 |
| 20260507091935 | 57 | 341 | 4.3 | 7.8 | 0.00 | 0.00 | 0.00 | 64 | 1016.9 |
| 20260507091836 | 57 | 340 | 4.3 | 7.8 | 0.00 | 0.00 | 0.00 | 66 | 1016.8 |
| 20260507091735 | 57 | 351 | 4.3 | 7.8 | 0.00 | 0.00 | 0.00 | 67 | 1016.8 |
| 20260507091635 | 58 | 3 | 3.5 | 7.8 | 0.00 | 0.00 | 0.00 | 69 | 1016.7 |
| 20260507091535 | 57 | 0 | 1.7 | 7.8 | 0.00 | 0.00 | 0.00 | 70 | 1016.8 |
| 20260507091437 | 57 | 310 | 1.7 | 7.8 | 0.00 | 0.00 | 0.00 | 68 | 1016.8 |
| 20260507091338 | 57 | 310 | 2.6 | 7.8 | 0.00 | 0.00 | 0.00 | 67 | 1016.8 |
| 20260507091238 | 57 | 312 | 3.5 | 7.8 | 0.00 | 0.00 | 0.00 | 68 | 1016.8 |
| 20260507091137 | 57 | 320 | 3.5 | 7.8 | 0.00 | 0.00 | 0.00 | 69 | 1016.9 |
| 20260507091035 | 57 | 21 | 2.6 | 7.8 | 0.00 | 0.00 | 0.00 | 69 | 1016.8 |
| 20260507090934 | 57 | 0 | 2.6 | 7.8 | 0.00 | 0.00 | 0.00 | 68 | 1016.8 |
| 20260507090835 | 57 | 333 | 3.5 | 7.8 | 0.00 | 0.00 | 0.00 | 68 | 1016.8 |
| 20260507090734 | 57 | 358 | 4.3 | 7.8 | 0.00 | 0.00 | 0.00 | 70 | 1016.8 |
| 20260507090634 | 57 | 0 | 4.3 | 6.1 | 0.00 | 0.00 | 0.00 | 70 | 1016.8 |
| 20260507090535 | 57 | 358 | 2.6 | 6.1 | 0.00 | 0.00 | 0.00 | 70 | 1016.8 |
| 20260507090435 | 56 | 344 | 2.6 | 6.1 | 0.00 | 0.00 | 0.00 | 69 | 1016.8 |
| 20260507090334 | 56 | 343 | 3.5 | 7.8 | 0.00 | 0.00 | 0.00 | 71 | 1016.8 |
| 20260507090235 | 56 | 338 | 1.7 | 8.7 | 0.00 | 0.00 | 0.00 | 71 | 1016.8 |
| 20260507090135 | 56 | 42 | 2.6 | 8.7 | 0.00 | 0.00 | 0.00 | 69 | 1016.8 |
| 20260507090035 | 56 | 42 | 3.5 | 8.7 | 0.00 | 0.00 | 0.00 | 70 | 1016.8 |
| 20260507085935 | 56 | 42 | 3.5 | 8.7 | 0.00 | 0.00 | 0.00 | 70 | 1016.8 |
| 20260507085835 | 56 | 3 | 4.3 | 8.7 | 0.00 | 0.00 | 0.00 | 70 | 1016.8 |
| 20260507085734 | 56 | 1 | 4.3 | 8.7 | 0.00 | 0.00 | 0.00 | 70 | 1016.9 |
| 20260507085636 | 56 | 323 | 4.3 | 8.7 | 0.00 | 0.00 | 0.00 | 69 | 1016.8 |
| 20260507085536 | 57 | 323 | 4.3 | 8.7 | 0.00 | 0.00 | 0.00 | 70 | 1016.8 |
| 20260507085436 | 57 | 338 | 5.2 | 8.7 | 0.00 | 0.00 | 0.00 | 70 | 1016.8 |
| 20260507085336 | 57 | 331 | 5.2 | 8.7 | 0.00 | 0.00 | 0.00 | 70 | 1016.9 |
| 20260507085236 | 56 | 330 | 3.5 | 7.8 | 0.00 | 0.00 | 0.00 | 69 | 1016.8 |
| 20260507085136 | 56 | 358 | 4.3 | 7.8 | 0.00 | 0.00 | 0.00 | 70 | 1016.8 |
| 20260507085037 | 56 | 0 | 4.3 | 7.8 | 0.00 | 0.00 | 0.00 | 70 | 1016.8 |
| 20260507084937 | 56 | 323 | 2.6 | 7.8 | 0.00 | 0.00 | 0.00 | 71 | 1016.7 |
| 20260507084837 | 56 | 350 | 2.6 | 7.8 | 0.00 | 0.00 | 0.00 | 71 | 1016.7 |
| 20260507084735 | 56 | 350 | 4.3 | 7.8 | 0.00 | 0.00 | 0.00 | 71 | 1016.8 |
| 20260507084635 | 56 | 0 | 4.3 | 7.8 | 0.00 | 0.00 | 0.00 | 71 | 1016.7 |
| 20260507084535 | 56 | 350 | 3.5 | 7.8 | 0.00 | 0.00 | 0.00 | 73 | 1016.7 |
| 20260507084435 | 56 | 326 | 3.5 | 7.8 | 0.00 | 0.00 | 0.00 | 73 | 1016.7 |
| 20260507084335 | 56 | 334 | 3.5 | 7.8 | 0.00 | 0.00 | 0.00 | 70 | 1016.7 |
| 20260507084235 | 56 | 336 | 5.2 | 7.8 | 0.00 | 0.00 | 0.00 | 71 | 1016.7 |
| 20260507084134 | 56 | 354 | 4.3 | 7.8 | 0.00 | 0.00 | 0.00 | 70 | 1016.7 |
| 20260507084035 | 56 | 337 | 4.3 | 7.8 | 0.00 | 0.00 | 0.00 | 70 | 1016.7 |
| 20260507083935 | 57 | 10 | 4.3 | 7.8 | 0.00 | 0.00 | 0.00 | 71 | 1016.7 |
| 20260507083835 | 57 | 0 | 2.6 | 6.1 | 0.00 | 0.00 | 0.00 | 71 | 1016.7 |
| 20260507083736 | 57 | 14 | 3.5 | 6.1 | 0.00 | 0.00 | 0.00 | 71 | 1016.8 |
| 20260507083635 | 57 | 0 | 4.3 | 6.1 | 0.00 | 0.00 | 0.00 | 71 | 1016.7 |
| 20260507083535 | 56 | 0 | 3.5 | 6.1 | 0.00 | 0.00 | 0.00 | 73 | 1016.6 |
| 20260507083437 | 56 | 355 | 3.5 | 6.1 | 0.00 | 0.00 | 0.00 | 72 | 1016.7 |
| 20260507083338 | 56 | 358 | 3.5 | 6.1 | 0.00 | 0.00 | 0.00 | 71 | 1016.7 |
| 20260507083235 | 56 | 0 | 2.6 | 6.1 | 0.00 | 0.00 | 0.00 | 72 | 1016.7 |
| 20260507083135 | 56 | 16 | 2.6 | 6.1 | 0.00 | 0.00 | 0.00 | 71 | 1016.7 |
| 20260507083034 | 56 | 16 | 2.6 | 6.1 | 0.00 | 0.00 | 0.00 | 71 | 1016.8 |
| 20260507082935 | 56 | 16 | 3.5 | 6.1 | 0.00 | 0.00 | 0.00 | 71 | 1016.8 |
| 20260507082835 | 56 | 10 | 4.3 | 6.1 | 0.00 | 0.00 | 0.00 | 71 | 1016.8 |
| 20260507082735 | 56 | 8 | 4.3 | 6.1 | 0.00 | 0.00 | 0.00 | 70 | 1016.8 |
| 20260507082635 | 56 | 1 | 3.5 | 5.2 | 0.00 | 0.00 | 0.00 | 71 | 1016.7 |
| 20260507082535 | 56 | 343 | 3.5 | 5.2 | 0.00 | 0.00 | 0.00 | 71 | 1016.6 |
| 20260507082435 | 56 | 0 | 3.5 | 5.2 | 0.00 | 0.00 | 0.00 | 70 | 1016.6 |
| 20260507082335 | 56 | 326 | 2.6 | 5.2 | 0.00 | 0.00 | 0.00 | 71 | 1016.7 |
| 20260507082234 | 56 | 0 | 2.6 | 5.2 | 0.00 | 0.00 | 0.00 | 71 | 1016.7 |
| 20260507082135 | 56 | 1 | 1.7 | 5.2 | 0.00 | 0.00 | 0.00 | 72 | 1016.7 |
| 20260507082035 | 56 | 1 | 2.6 | 5.2 | 0.00 | 0.00 | 0.00 | 73 | 1016.8 |
| 20260507081935 | 56 | 0 | 2.6 | 6.1 | 0.00 | 0.00 | 0.00 | 73 | 1016.8 |
| 20260507081835 | 56 | 31 | 2.6 | 6.1 | 0.00 | 0.00 | 0.00 | 74 | 1016.7 |
| 20260507081735 | 56 | 58 | 2.6 | 6.1 | 0.00 | 0.00 | 0.00 | 73 | 1016.7 |
| 20260507081637 | 56 | 58 | 3.5 | 6.1 | 0.00 | 0.00 | 0.00 | 73 | 1016.7 |
| 20260507081536 | 56 | 55 | 2.6 | 6.1 | 0.00 | 0.00 | 0.00 | 73 | 1016.7 |
| 20260507081436 | 56 | 28 | 1.7 | 6.1 | 0.00 | 0.00 | 0.00 | 73 | 1016.6 |
| 20260507081335 | 56 | 28 | 2.6 | 6.1 | 0.00 | 0.00 | 0.00 | 73 | 1016.6 |
| 20260507081235 | 56 | 27 | 3.5 | 6.1 | 0.00 | 0.00 | 0.00 | 72 | 1016.6 |
| 20260507081135 | 56 | 0 | 3.5 | 7.8 | 0.00 | 0.00 | 0.00 | 72 | 1016.6 |
| 20260507081035 | 56 | 0 | 3.5 | 7.8 | 0.00 | 0.00 | 0.00 | 73 | 1016.6 |
| 20260507080935 | 56 | 353 | 2.6 | 7.8 | 0.00 | 0.00 | 0.00 | 74 | 1016.6 |
| 20260507080836 | 55 | 0 | 1.7 | 7.8 | 0.00 | 0.00 | 0.00 | 74 | 1016.7 |
| 20260507080736 | 55 | 0 | 2.6 | 7.8 | 0.00 | 0.00 | 0.00 | 73 | 1016.6 |
| 20260507080635 | 55 | 0 | 3.5 | 7.8 | 0.00 | 0.00 | 0.00 | 73 | 1016.7 |
| 20260507080535 | 55 | 0 | 3.5 | 7.8 | 0.00 | 0.00 | 0.00 | 72 | 1016.7 |
| 20260507080435 | 55 | 334 | 3.5 | 7.8 | 0.00 | 0.00 | 0.00 | 72 | 1016.6 |
| 20260507080335 | 55 | 11 | 3.5 | 7.8 | 0.00 | 0.00 | 0.00 | 73 | 1016.7 |
| 20260507080235 | 55 | 34 | 4.3 | 7.8 | 0.00 | 0.00 | 0.00 | 73 | 1016.7 |
| 20260507080135 | 56 | 39 | 2.6 | 5.2 | 0.00 | 0.00 | 0.00 | 73 | 1016.6 |
| 20260507080036 | 56 | 28 | 1.7 | 6.1 | 0.00 | 0.00 | 0.00 | 73 | 1016.6 |
| 20260507075937 | 56 | 28 | 1.7 | 6.1 | 0.00 | 0.00 | 0.00 | 73 | 1016.6 |
| 20260507075837 | 56 | 28 | 2.6 | 6.1 | 0.00 | 0.00 | 0.00 | 74 | 1016.6 |
| 20260507075737 | 55 | 27 | 2.6 | 6.1 | 0.00 | 0.00 | 0.00 | 74 | 1016.6 |
| 20260507075638 | 55 | 0 | 2.6 | 6.1 | 0.00 | 0.00 | 0.00 | 73 | 1016.6 |
| 20260507075538 | 55 | 0 | 2.6 | 6.1 | 0.00 | 0.00 | 0.00 | 74 | 1016.6 |
| 20260507075436 | 55 | 0 | 1.7 | 6.1 | 0.00 | 0.00 | 0.00 | 75 | 1016.6 |
| 20260507075335 | 55 | 0 | 1.7 | 6.1 | 0.00 | 0.00 | 0.00 | 74 | 1016.6 |
| 20260507075234 | 55 | 1 | 3.5 | 6.1 | 0.00 | 0.00 | 0.00 | 74 | 1016.6 |
| 20260507075135 | 55 | 0 | 3.5 | 6.1 | 0.00 | 0.00 | 0.00 | 74 | 1016.5 |
| 20260507075035 | 55 | 341 | 2.6 | 6.1 | 0.00 | 0.00 | 0.00 | 74 | 1016.5 |
| 20260507074935 | 55 | 355 | 3.5 | 6.1 | 0.00 | 0.00 | 0.00 | 74 | 1016.6 |
| 20260507074834 | 55 | 355 | 3.5 | 6.1 | 0.00 | 0.00 | 0.00 | 75 | 1016.6 |
| 20260507074735 | 55 | 0 | 2.6 | 6.1 | 0.00 | 0.00 | 0.00 | 76 | 1016.5 |
| 20260507074635 | 55 | 44 | 1.7 | 6.1 | 0.00 | 0.00 | 0.00 | 75 | 1016.5 |
| 20260507074535 | 55 | 35 | 1.7 | 6.1 | 0.00 | 0.00 | 0.00 | 74 | 1016.5 |
| 20260507074435 | 55 | 358 | 2.6 | 6.1 | 0.00 | 0.00 | 0.00 | 74 | 1016.5 |
| 20260507074335 | 55 | 358 | 3.5 | 6.1 | 0.00 | 0.00 | 0.00 | 73 | 1016.5 |
| 20260507074235 | 55 | 358 | 3.5 | 6.1 | 0.00 | 0.00 | 0.00 | 74 | 1016.5 |
| 20260507074135 | 55 | 0 | 2.6 | 6.1 | 0.00 | 0.00 | 0.00 | 75 | 1016.5 |
| 20260507074037 | 55 | 28 | 2.6 | 6.1 | 0.00 | 0.00 | 0.00 | 75 | 1016.5 |
| 20260507073938 | 55 | 30 | 1.7 | 5.2 | 0.00 | 0.00 | 0.00 | 77 | 1016.5 |
| 20260507073835 | 55 | 30 | 1.7 | 5.2 | 0.00 | 0.00 | 0.00 | 77 | 1016.5 |
| 20260507073736 | 55 | 6 | 0.9 | 5.2 | 0.00 | 0.00 | 0.00 | 76 | 1016.5 |
| 20260507073635 | 55 | 6 | 1.7 | 5.2 | 0.00 | 0.00 | 0.00 | 77 | 1016.5 |
| 20260507073535 | 55 | 4 | 1.7 | 5.2 | 0.00 | 0.00 | 0.00 | 77 | 1016.6 |
| 20260507073435 | 54 | 6 | 2.6 | 5.2 | 0.00 | 0.00 | 0.00 | 76 | 1016.5 |
| 20260507073335 | 54 | 10 | 1.7 | 5.2 | 0.00 | 0.00 | 0.00 | 77 | 1016.5 |
| 20260507073236 | 54 | 32 | 1.7 | 5.2 | 0.00 | 0.00 | 0.00 | 76 | 1016.5 |
| 20260507073136 | 54 | 32 | 1.7 | 5.2 | 0.00 | 0.00 | 0.00 | 76 | 1016.4 |
| 20260507073035 | 54 | 32 | 2.6 | 5.2 | 0.00 | 0.00 | 0.00 | 76 | 1016.5 |
| 20260507072935 | 54 | 32 | 3.5 | 5.2 | 0.00 | 0.00 | 0.00 | 76 | 1016.6 |
| 20260507072835 | 54 | 3 | 2.6 | 5.2 | 0.00 | 0.00 | 0.00 | 76 | 1016.5 |
| 20260507072734 | 54 | 0 | 2.6 | 5.2 | 0.00 | 0.00 | 0.00 | 76 | 1016.5 |
| 20260507072634 | 55 | 0 | 2.6 | 5.2 | 0.00 | 0.00 | 0.00 | 76 | 1016.5 |
| 20260507072534 | 54 | 344 | 1.7 | 5.2 | 0.00 | 0.00 | 0.00 | 76 | 1016.5 |
| 20260507072435 | 54 | 47 | 1.7 | 5.2 | 0.00 | 0.00 | 0.00 | 77 | 1016.5 |
| 20260507072335 | 54 | 47 | 1.7 | 5.2 | 0.00 | 0.00 | 0.00 | 78 | 1016.6 |
| 20260507072235 | 54 | 45 | 1.7 | 5.2 | 0.00 | 0.00 | 0.00 | 78 | 1016.5 |
| 20260507072138 | 54 | 118 | 2.6 | 5.2 | 0.00 | 0.00 | 0.00 | 76 | 1016.5 |
| 20260507072037 | 54 | 102 | 2.6 | 5.2 | 0.00 | 0.00 | 0.00 | 77 | 1016.5 |
| 20260507071936 | 54 | 90 | 2.6 | 5.2 | 0.00 | 0.00 | 0.00 | 76 | 1016.5 |
| 20260507071836 | 54 | 92 | 3.5 | 5.2 | 0.00 | 0.00 | 0.00 | 75 | 1016.5 |
| 20260507071736 | 54 | 90 | 3.5 | 5.2 | 0.00 | 0.00 | 0.00 | 77 | 1016.5 |
| 20260507071635 | 54 | 116 | 2.6 | 5.2 | 0.00 | 0.00 | 0.00 | 79 | 1016.5 |
| 20260507071536 | 53 | 121 | 2.6 | 5.2 | 0.00 | 0.00 | 0.00 | 77 | 1016.5 |
| 20260507071434 | 54 | 90 | 3.5 | 5.2 | 0.00 | 0.00 | 0.00 | 78 | 1016.5 |
| 20260507071336 | 53 | 96 | 2.6 | 5.2 | 0.00 | 0.00 | 0.00 | 78 | 1016.4 |
| 20260507071236 | 53 | 0 | 3.5 | 5.2 | 0.00 | 0.00 | 0.00 | 78 | 1016.4 |
| 20260507071135 | 53 | 0 | 3.5 | 5.2 | 0.00 | 0.00 | 0.00 | 78 | 1016.4 |
| 20260507071034 | 53 | 34 | 3.5 | 7.8 | 0.00 | 0.00 | 0.00 | 79 | 1016.4 |
| 20260507070936 | 53 | 358 | 2.6 | 7.8 | 0.00 | 0.00 | 0.00 | 79 | 1016.4 |
| 20260507070834 | 53 | 44 | 1.7 | 7.8 | 0.00 | 0.00 | 0.00 | 80 | 1016.3 |
| 20260507070735 | 53 | 44 | 2.6 | 7.8 | 0.00 | 0.00 | 0.00 | 80 | 1016.4 |
| 20260507070635 | 53 | 44 | 3.5 | 7.8 | 0.00 | 0.00 | 0.00 | 80 | 1016.5 |
| 20260507070536 | 53 | 0 | 3.5 | 7.8 | 0.00 | 0.00 | 0.00 | 80 | 1016.4 |
| 20260507070435 | 53 | 8 | 2.6 | 7.8 | 0.00 | 0.00 | 0.00 | 80 | 1016.4 |
| 20260507070335 | 53 | 16 | 2.6 | 7.8 | 0.00 | 0.00 | 0.00 | 80 | 1016.4 |
| 20260507070236 | 53 | 45 | 2.6 | 7.8 | 0.00 | 0.00 | 0.00 | 80 | 1016.4 |
| 20260507070136 | 53 | 0 | 3.5 | 7.8 | 0.00 | 0.00 | 0.00 | 80 | 1016.4 |
| 20260507070037 | 53 | 357 | 4.3 | 6.1 | 0.00 | 0.00 | 0.00 | 80 | 1016.4 |
| 20260507065936 | 53 | 0 | 4.3 | 6.1 | 0.00 | 0.00 | 0.00 | 80 | 1016.4 |
| 20260507065834 | 53 | 3 | 3.5 | 6.1 | 0.00 | 0.00 | 0.00 | 80 | 1016.4 |
| 20260507065734 | 53 | 45 | 3.5 | 6.1 | 0.00 | 0.00 | 0.00 | 81 | 1016.4 |
| 20260507065633 | 53 | 21 | 3.5 | 6.1 | 0.00 | 0.00 | 0.00 | 81 | 1016.4 |
| 20260507065532 | 53 | 0 | 3.5 | 6.1 | 0.00 | 0.00 | 0.00 | 81 | 1016.4 |
| 20260507065430 | 53 | 0 | 3.5 | 6.1 | 0.00 | 0.00 | 0.00 | 81 | 1016.3 |
| 20260507065329 | 53 | 0 | 3.5 | 6.1 | 0.00 | 0.00 | 0.00 | 81 | 1016.5 |
| 20260507065229 | 52 | 14 | 3.5 | 6.1 | 0.00 | 0.00 | 0.00 | 81 | 1016.3 |
| 20260507065129 | 52 | 24 | 3.5 | 7.8 | 0.00 | 0.00 | 0.00 | 81 | 1016.4 |
| 20260507065029 | 52 | 27 | 3.5 | 7.8 | 0.00 | 0.00 | 0.00 | 81 | 1016.4 |
| 20260507064930 | 52 | 31 | 4.3 | 7.8 | 0.00 | 0.00 | 0.00 | 82 | 1016.4 |
| 20260507064828 | 52 | 17 | 3.5 | 7.8 | 0.00 | 0.00 | 0.00 | 82 | 1016.4 |
| 20260507064728 | 53 | 47 | 3.5 | 7.8 | 0.00 | 0.00 | 0.00 | 82 | 1016.4 |
| 20260507064628 | 53 | 59 | 3.5 | 7.8 | 0.00 | 0.00 | 0.00 | 82 | 1016.4 |
| 20260507064527 | 53 | 79 | 3.5 | 7.8 | 0.00 | 0.00 | 0.00 | 82 | 1016.4 |
| 20260507064426 | 53 | 39 | 2.6 | 7.8 | 0.00 | 0.00 | 0.00 | 83 | 1016.3 |
| 20260507064326 | 52 | 34 | 3.5 | 7.8 | 0.00 | 0.00 | 0.00 | 83 | 1016.4 |
| 20260507064227 | 52 | 34 | 3.5 | 7.8 | 0.00 | 0.00 | 0.00 | 83 | 1016.4 |
| 20260507064126 | 52 | 52 | 1.7 | 7.8 | 0.00 | 0.00 | 0.00 | 83 | 1016.4 |
| 20260507064026 | 52 | 58 | 1.7 | 7.8 | 0.00 | 0.00 | 0.00 | 83 | 1016.4 |
| 20260507063923 | 52 | 59 | 2.6 | 7.8 | 0.00 | 0.00 | 0.00 | 83 | 1016.4 |
| 20260507063822 | 52 | 59 | 1.7 | 7.8 | 0.00 | 0.00 | 0.00 | 84 | 1016.4 |
| 20260507063722 | 52 | 59 | 2.6 | 7.8 | 0.00 | 0.00 | 0.00 | 84 | 1016.4 |
| 20260507063622 | 52 | 59 | 3.5 | 7.8 | 0.00 | 0.00 | 0.00 | 84 | 1016.4 |
| 20260507063521 | 51 | 52 | 3.5 | 7.8 | 0.00 | 0.00 | 0.00 | 84 | 1016.4 |
| 20260507063421 | 51 | 55 | 3.5 | 7.8 | 0.00 | 0.00 | 0.00 | 84 | 1016.3 |
| 20260507063320 | 51 | 0 | 4.3 | 7.8 | 0.00 | 0.00 | 0.00 | 84 | 1016.3 |
| 20260507063222 | 51 | 14 | 4.3 | 7.8 | 0.00 | 0.00 | 0.00 | 83 | 1016.4 |
| 20260507063123 | 51 | 11 | 4.3 | 7.8 | 0.00 | 0.00 | 0.00 | 84 | 1016.3 |
| 20260507063020 | 51 | 66 | 4.3 | 7.8 | 0.00 | 0.00 | 0.00 | 84 | 1016.3 |
| 20260507062919 | 51 | 25 | 3.5 | 7.8 | 0.00 | 0.00 | 0.00 | 84 | 1016.4 |
| 20260507062817 | 51 | 11 | 3.5 | 7.8 | 0.00 | 0.00 | 0.00 | 84 | 1016.4 |
| 20260507062716 | 51 | 1 | 4.3 | 7.8 | 0.00 | 0.00 | 0.00 | 84 | 1016.3 |
| 20260507062616 | 51 | 21 | 4.3 | 7.8 | 0.00 | 0.00 | 0.00 | 84 | 1016.2 |
| 20260507062515 | 51 | 0 | 3.5 | 7.8 | 0.00 | 0.00 | 0.00 | 84 | 1016.2 |
| 20260507062414 | 51 | 0 | 4.3 | 7.8 | 0.00 | 0.00 | 0.00 | 84 | 1016.3 |
| 20260507062311 | 51 | 34 | 3.5 | 7.8 | 0.00 | 0.00 | 0.00 | 84 | 1016.2 |
| 20260507062212 | 51 | 58 | 2.6 | 7.8 | 0.00 | 0.00 | 0.00 | 85 | 1016.3 |
| 20260507062110 | 51 | 61 | 1.7 | 7.8 | 0.00 | 0.00 | 0.00 | 85 | 1016.3 |
| 20260507062011 | 51 | 61 | 2.6 | 7.8 | 0.00 | 0.00 | 0.00 | 85 | 1016.2 |
| 20260507061909 | 51 | 62 | 3.5 | 7.8 | 0.00 | 0.00 | 0.00 | 85 | 1016.3 |
| 20260507061810 | 51 | 357 | 2.6 | 7.8 | 0.00 | 0.00 | 0.00 | 86 | 1016.1 |
| 20260507061710 | 51 | 4 | 1.7 | 6.1 | 0.00 | 0.00 | 0.00 | 86 | 1016.2 |
| 20260507061609 | 51 | 4 | 2.6 | 6.1 | 0.00 | 0.00 | 0.00 | 86 | 1016.2 |
| 20260507061509 | 51 | 18 | 3.5 | 6.1 | 0.00 | 0.00 | 0.00 | 85 | 1016.1 |
| 20260507061407 | 51 | 353 | 4.3 | 6.1 | 0.00 | 0.00 | 0.00 | 86 | 1016.2 |
| 20260507061307 | 51 | 17 | 3.5 | 6.1 | 0.00 | 0.00 | 0.00 | 86 | 1016.2 |
| 20260507061208 | 51 | 4 | 2.6 | 6.1 | 0.00 | 0.00 | 0.00 | 86 | 1016.1 |
| 20260507061107 | 51 | 16 | 3.5 | 6.1 | 0.00 | 0.00 | 0.00 | 86 | 1016.1 |
| 20260507061007 | 51 | 18 | 3.5 | 6.1 | 0.00 | 0.00 | 0.00 | 86 | 1016.1 |
| 20260507060906 | 51 | 28 | 3.5 | 6.1 | 0.00 | 0.00 | 0.00 | 87 | 1016.1 |
| 20260507060810 | 51 | 0 | 3.5 | 6.1 | 0.00 | 0.00 | 0.00 | 87 | 1016.1 |
| 20260507060705 | 51 | 28 | 3.5 | 7.8 | 0.00 | 0.00 | 0.00 | 87 | 1016.0 |
| 20260507060606 | 51 | 0 | 3.5 | 7.8 | 0.00 | 0.00 | 0.00 | 87 | 1016.1 |
| 20260507060506 | 51 | 25 | 2.6 | 7.8 | 0.00 | 0.00 | 0.00 | 87 | 1016.0 |
| 20260507060405 | 51 | 3 | 1.7 | 7.8 | 0.00 | 0.00 | 0.00 | 87 | 1016.0 |
| 20260507060300 | 51 | 39 | 1.7 | 7.8 | 0.00 | 0.00 | 0.00 | 88 | 1016.0 |
| 20260507060200 | 50 | 39 | 1.7 | 7.8 | 0.00 | 0.00 | 0.00 | 88 | 1016.0 |
| 20260507060101 | 50 | 39 | 3.5 | 7.8 | 0.00 | 0.00 | 0.00 | 88 | 1016.0 |
| 20260507060001 | 50 | 39 | 3.5 | 7.8 | 0.00 | 0.00 | 0.00 | 88 | 1016.1 |
| 20260507055901 | 50 | 24 | 3.5 | 7.8 | 0.00 | 0.00 | 0.00 | 88 | 1016.0 |
| 20260507055800 | 50 | 28 | 2.6 | 7.8 | 0.00 | 0.00 | 0.00 | 88 | 1016.1 |
| 20260507055659 | 50 | 34 | 3.5 | 7.8 | 0.00 | 0.00 | 0.00 | 88 | 1016.1 |
| 20260507055559 | 50 | 34 | 4.3 | 7.8 | 0.00 | 0.00 | 0.00 | 88 | 1016.1 |
| 20260507055459 | 50 | 41 | 4.3 | 6.1 | 0.00 | 0.00 | 0.00 | 88 | 1016.1 |
| 20260507055358 | 50 | 1 | 2.6 | 6.1 | 0.00 | 0.00 | 0.00 | 88 | 1016.0 |
| 20260507055258 | 50 | 27 | 2.6 | 6.1 | 0.00 | 0.00 | 0.00 | 88 | 1016.0 |
| 20260507055157 | 50 | 27 | 3.5 | 6.1 | 0.00 | 0.00 | 0.00 | 88 | 1016.1 |
| 20260507055057 | 50 | 25 | 3.5 | 6.1 | 0.00 | 0.00 | 0.00 | 88 | 1016.0 |
| 20260507054957 | 50 | 37 | 3.5 | 6.1 | 0.00 | 0.00 | 0.00 | 89 | 1016.0 |
| 20260507054855 | 50 | 8 | 3.5 | 6.1 | 0.00 | 0.00 | 0.00 | 89 | 1016.0 |
| 20260507054756 | 50 | 17 | 3.5 | 6.1 | 0.00 | 0.00 | 0.00 | 89 | 1016.0 |
| 20260507054656 | 50 | 27 | 2.6 | 6.1 | 0.00 | 0.00 | 0.00 | 89 | 1016.0 |
| 20260507054558 | 50 | 48 | 2.6 | 6.1 | 0.00 | 0.00 | 0.00 | 89 | 1016.0 |
| 20260507054457 | 50 | 48 | 2.6 | 6.1 | 0.00 | 0.00 | 0.00 | 89 | 1016.1 |
| 20260507054355 | 50 | 25 | 2.6 | 4.3 | 0.00 | 0.00 | 0.00 | 89 | 1016.0 |
| 20260507054253 | 50 | 25 | 2.6 | 4.3 | 0.00 | 0.00 | 0.00 | 89 | 1016.0 |
| 20260507054151 | 50 | 25 | 2.6 | 4.3 | 0.00 | 0.00 | 0.00 | 90 | 1016.0 |
| 20260507054039 | 50 | 21 | 2.6 | 4.3 | 0.00 | 0.00 | 0.00 | 90 | 1016.1 |
| 20260507053939 | 50 | 21 | 1.7 | 4.3 | 0.00 | 0.00 | 0.00 | 90 | 1016.1 |
| 20260507053839 | 50 | 1 | 1.7 | 4.3 | 0.00 | 0.00 | 0.00 | 90 | 1016.0 |
| 20260507053738 | 49 | 0 | 1.7 | 4.3 | 0.00 | 0.00 | 0.00 | 90 | 1016.0 |
| 20260507053637 | 49 | 1 | 1.7 | 4.3 | 0.00 | 0.00 | 0.00 | 90 | 1016.1 |
| 20260507053536 | 49 | 8 | 2.6 | 4.3 | 0.00 | 0.00 | 0.00 | 90 | 1016.0 |
| 20260507053437 | 49 | 8 | 2.6 | 4.3 | 0.00 | 0.00 | 0.00 | 90 | 1016.1 |
| 20260507053337 | 49 | 11 | 1.7 | 4.3 | 0.00 | 0.00 | 0.00 | 91 | 1016.1 |
| 20260507053134 | 49 | 20 | 1.7 | 5.2 | 0.00 | 0.00 | 0.00 | 91 | 1016.1 |
| 20260507053034 | 49 | 21 | 1.7 | 5.2 | 0.00 | 0.00 | 0.00 | 91 | 1016.1 |
| 20260507052934 | 49 | 21 | 1.7 | 5.2 | 0.00 | 0.00 | 0.00 | 91 | 1016.0 |
| 20260507052834 | 49 | 21 | 1.7 | 5.2 | 0.00 | 0.00 | 0.00 | 91 | 1016.0 |
| 20260507052734 | 49 | 21 | 2.6 | 5.2 | 0.00 | 0.00 | 0.00 | 91 | 1016.0 |
| 20260507052635 | 49 | 31 | 2.6 | 5.2 | 0.00 | 0.00 | 0.00 | 91 | 1016.0 |
| 20260507052535 | 49 | 52 | 1.7 | 5.2 | 0.00 | 0.00 | 0.00 | 91 | 1016.0 |
| 20260507052434 | 49 | 52 | 2.6 | 5.2 | 0.00 | 0.00 | 0.00 | 92 | 1015.9 |
| 20260507052335 | 49 | 54 | 2.6 | 5.2 | 0.00 | 0.00 | 0.00 | 92 | 1015.9 |
| 20260507052234 | 49 | 55 | 2.6 | 5.2 | 0.00 | 0.00 | 0.00 | 92 | 1015.9 |
| 20260507052134 | 49 | 1 | 2.6 | 4.3 | 0.00 | 0.00 | 0.00 | 92 | 1015.9 |
| 20260507052035 | 49 | 1 | 1.7 | 4.3 | 0.00 | 0.00 | 0.00 | 92 | 1015.9 |
| 20260507051935 | 48 | 1 | 1.7 | 4.3 | 0.00 | 0.00 | 0.00 | 92 | 1015.9 |
| 20260507051834 | 48 | 1 | 1.7 | 4.3 | 0.00 | 0.00 | 0.00 | 92 | 1015.8 |
| 20260507051734 | 48 | 1 | 1.7 | 4.3 | 0.00 | 0.00 | 0.00 | 92 | 1015.9 |
| 20260507051633 | 48 | 1 | 1.7 | 4.3 | 0.00 | 0.00 | 0.00 | 92 | 1015.8 |
| 20260507051534 | 48 | 1 | 1.7 | 4.3 | 0.00 | 0.00 | 0.00 | 92 | 1015.8 |
| 20260507051434 | 48 | 0 | 1.7 | 4.3 | 0.00 | 0.00 | 0.00 | 92 | 1015.8 |
| 20260507051331 | 48 | 3 | 1.7 | 4.3 | 0.00 | 0.00 | 0.00 | 93 | 1015.8 |
| 20260507051229 | 48 | 1 | 1.7 | 4.3 | 0.00 | 0.00 | 0.00 | 93 | 1015.7 |
| 20260507051130 | 48 | 1 | 2.6 | 4.3 | 0.00 | 0.00 | 0.00 | 93 | 1015.7 |
| 20260507051030 | 48 | 1 | 2.6 | 4.3 | 0.00 | 0.00 | 0.00 | 93 | 1015.8 |
| 20260507050930 | 48 | 1 | 1.7 | 4.3 | 0.00 | 0.00 | 0.00 | 92 | 1015.7 |
| 20260507050829 | 48 | 1 | 2.6 | 4.3 | 0.00 | 0.00 | 0.00 | 92 | 1015.7 |
| 20260507050727 | 48 | 16 | 2.6 | 4.3 | 0.00 | 0.00 | 0.00 | 93 | 1015.8 |
| 20260507050626 | 48 | 16 | 2.6 | 4.3 | 0.00 | 0.00 | 0.00 | 93 | 1015.7 |
| 20260507050526 | 48 | 16 | 1.7 | 4.3 | 0.00 | 0.00 | 0.00 | 93 | 1015.8 |
| 20260507050435 | 48 | 16 | 1.7 | 4.3 | 0.00 | 0.00 | 0.00 | 93 | 1015.7 |
| 20260507050326 | 48 | 16 | 1.7 | 4.3 | 0.00 | 0.00 | 0.00 | 93 | 1015.7 |
| 20260507050225 | 48 | 16 | 1.7 | 4.3 | 0.00 | 0.00 | 0.00 | 93 | 1015.7 |
| 20260507050126 | 47 | 16 | 1.7 | 4.3 | 0.00 | 0.00 | 0.00 | 93 | 1015.7 |
| 20260507050024 | 47 | 16 | 1.7 | 4.3 | 0.00 | 0.00 | 0.00 | 93 | 1015.5 |
| 20260507045925 | 47 | 16 | 1.7 | 4.3 | 0.00 | 0.00 | 0.00 | 93 | 1015.7 |
| 20260507045824 | 47 | 17 | 1.7 | 4.3 | 0.00 | 0.00 | 0.00 | 93 | 1015.6 |
| 20260507045724 | 47 | 16 | 2.6 | 4.3 | 0.00 | 0.00 | 0.00 | 93 | 1015.6 |
| 20260507045623 | 47 | 16 | 2.6 | 4.3 | 0.00 | 0.00 | 0.00 | 93 | 1015.6 |
| 20260507045522 | 47 | 16 | 2.6 | 4.3 | 0.00 | 0.00 | 0.00 | 93 | 1015.6 |
| 20260507045423 | 47 | 16 | 1.7 | 4.3 | 0.00 | 0.00 | 0.00 | 93 | 1015.6 |
| 20260507045321 | 47 | 16 | 1.7 | 4.3 | 0.00 | 0.00 | 0.00 | 93 | 1015.6 |
| 20260507045222 | 47 | 24 | 1.7 | 4.3 | 0.00 | 0.00 | 0.00 | 93 | 1015.6 |
| 20260507045122 | 47 | 24 | 1.7 | 4.3 | 0.00 | 0.00 | 0.00 | 93 | 1015.6 |
| 20260507045022 | 47 | 24 | 2.6 | 4.3 | 0.00 | 0.00 | 0.00 | 93 | 1015.5 |
| 20260507044922 | 47 | 24 | 1.7 | 4.3 | 0.00 | 0.00 | 0.00 | 93 | 1015.6 |
| 20260507044820 | 47 | 11 | 0.9 | 4.3 | 0.00 | 0.00 | 0.00 | 93 | 1015.4 |
| 20260507044720 | 47 | 11 | 1.7 | 4.3 | 0.00 | 0.00 | 0.00 | 93 | 1015.5 |
| 20260507044619 | 47 | 11 | 1.7 | 4.3 | 0.00 | 0.00 | 0.00 | 93 | 1015.5 |
| 20260507044519 | 47 | 11 | 1.7 | 4.3 | 0.00 | 0.00 | 0.00 | 93 | 1015.5 |
| 20260507044420 | 47 | 11 | 0.9 | 4.3 | 0.00 | 0.00 | 0.00 | 93 | 1015.5 |
| 20260507044318 | 47 | 11 | 1.7 | 4.3 | 0.00 | 0.00 | 0.00 | 93 | 1015.5 |
| 20260507044220 | 47 | 11 | 3.5 | 4.3 | 0.00 | 0.00 | 0.00 | 93 | 1015.4 |
| 20260507044117 | 47 | 14 | 2.6 | 4.3 | 0.00 | 0.00 | 0.00 | 93 | 1015.5 |
| 20260507044017 | 47 | 17 | 1.7 | 4.3 | 0.00 | 0.00 | 0.00 | 93 | 1015.4 |
| 20260507043916 | 47 | 17 | 1.7 | 5.2 | 0.00 | 0.00 | 0.00 | 93 | 1015.4 |
| 20260507043817 | 47 | 17 | 1.7 | 5.2 | 0.00 | 0.00 | 0.00 | 93 | 1015.5 |
| 20260507043716 | 47 | 17 | 2.6 | 5.2 | 0.00 | 0.00 | 0.00 | 93 | 1015.4 |
| 20260507043616 | 47 | 17 | 2.6 | 5.2 | 0.00 | 0.00 | 0.00 | 93 | 1015.4 |
| 20260507043515 | 47 | 18 | 1.7 | 5.2 | 0.00 | 0.00 | 0.00 | 93 | 1015.4 |
| 20260507043418 | 47 | 20 | 1.7 | 5.2 | 0.00 | 0.00 | 0.00 | 93 | 1015.3 |
| 20260507043314 | 47 | 1 | 2.6 | 5.2 | 0.00 | 0.00 | 0.00 | 93 | 1015.4 |
| 20260507043212 | 47 | 1 | 2.6 | 5.2 | 0.00 | 0.00 | 0.00 | 93 | 1015.3 |
| 20260507043111 | 47 | 4 | 3.5 | 5.2 | 0.00 | 0.00 | 0.00 | 93 | 1015.4 |
| 20260507043011 | 47 | 13 | 2.6 | 5.2 | 0.00 | 0.00 | 0.00 | 93 | 1015.4 |
| 20260507042908 | 47 | 28 | 2.6 | 5.2 | 0.00 | 0.00 | 0.00 | 93 | 1015.4 |
| 20260507042808 | 47 | 17 | 2.6 | 6.1 | 0.00 | 0.00 | 0.00 | 93 | 1015.3 |
| 20260507042709 | 47 | 20 | 2.6 | 6.1 | 0.00 | 0.00 | 0.00 | 93 | 1015.3 |
| 20260507042609 | 47 | 10 | 1.7 | 6.1 | 0.00 | 0.00 | 0.00 | 93 | 1015.3 |
| 20260507042506 | 47 | 17 | 1.7 | 6.1 | 0.00 | 0.00 | 0.00 | 93 | 1015.3 |
| 20260507042406 | 47 | 17 | 2.6 | 6.1 | 0.00 | 0.00 | 0.00 | 93 | 1015.2 |
| 20260507042307 | 47 | 17 | 2.6 | 6.1 | 0.00 | 0.00 | 0.00 | 93 | 1015.3 |
| 20260507042204 | 47 | 17 | 2.6 | 6.1 | 0.00 | 0.00 | 0.00 | 93 | 1015.3 |
| 20260507042105 | 47 | 17 | 1.7 | 6.1 | 0.00 | 0.00 | 0.00 | 93 | 1015.3 |
| 20260507042002 | 47 | 17 | 2.6 | 6.1 | 0.00 | 0.00 | 0.00 | 93 | 1015.2 |
| 20260507041902 | 47 | 18 | 3.5 | 6.1 | 0.00 | 0.00 | 0.00 | 93 | 1015.2 |
| 20260507041801 | 47 | 0 | 2.6 | 4.3 | 0.00 | 0.00 | 0.00 | 93 | 1015.2 |
| 20260507041701 | 47 | 0 | 2.6 | 4.3 | 0.00 | 0.00 | 0.00 | 93 | 1015.3 |
| 20260507041601 | 47 | 10 | 1.7 | 4.3 | 0.00 | 0.00 | 0.00 | 93 | 1015.3 |
| 20260507041500 | 47 | 11 | 2.6 | 4.3 | 0.00 | 0.00 | 0.00 | 93 | 1015.3 |
| 20260507041402 | 47 | 11 | 2.6 | 4.3 | 0.00 | 0.00 | 0.00 | 93 | 1015.3 |
| 20260507041303 | 47 | 0 | 1.7 | 4.3 | 0.00 | 0.00 | 0.00 | 93 | 1015.3 |
| 20260507041201 | 47 | 0 | 1.7 | 4.3 | 0.00 | 0.00 | 0.00 | 93 | 1015.2 |
| 20260507041102 | 47 | 0 | 1.7 | 4.3 | 0.00 | 0.00 | 0.00 | 93 | 1015.2 |
| 20260507041000 | 47 | 0 | 2.6 | 4.3 | 0.00 | 0.00 | 0.00 | 93 | 1015.2 |
| 20260507040901 | 47 | 21 | 2.6 | 4.3 | 0.00 | 0.00 | 0.00 | 93 | 1015.2 |
| 20260507040800 | 47 | 21 | 1.7 | 4.3 | 0.00 | 0.00 | 0.00 | 93 | 1015.3 |
| 20260507040700 | 47 | 21 | 1.7 | 4.3 | 0.00 | 0.00 | 0.00 | 93 | 1015.2 |
| 20260507040600 | 47 | 28 | 1.7 | 4.3 | 0.00 | 0.00 | 0.00 | 93 | 1015.2 |
| 20260507040458 | 47 | 28 | 2.6 | 4.3 | 0.00 | 0.00 | 0.00 | 93 | 1015.2 |
| 20260507040403 | 47 | 28 | 2.6 | 4.3 | 0.00 | 0.00 | 0.00 | 93 | 1015.2 |
| 20260507040257 | 47 | 30 | 2.6 | 4.3 | 0.00 | 0.00 | 0.00 | 93 | 1015.2 |
| 20260507040158 | 47 | 30 | 1.7 | 4.3 | 0.00 | 0.00 | 0.00 | 93 | 1015.2 |
| 20260507040058 | 47 | 3 | 0.9 | 4.3 | 0.00 | 0.00 | 0.00 | 93 | 1015.2 |
| 20260507035959 | 47 | 3 | 1.7 | 4.3 | 0.00 | 0.00 | 0.00 | 93 | 1015.1 |
| 20260507035900 | 47 | 3 | 1.7 | 4.3 | 0.00 | 0.00 | 0.00 | 93 | 1015.2 |
| 20260507035759 | 47 | 3 | 1.7 | 4.3 | 0.00 | 0.00 | 0.00 | 93 | 1015.2 |
| 20260507035656 | 47 | 3 | 1.7 | 4.3 | 0.00 | 0.00 | 0.00 | 93 | 1015.2 |
| 20260507035555 | 47 | 3 | 2.6 | 4.3 | 0.00 | 0.00 | 0.00 | 93 | 1015.2 |
| 20260507035456 | 47 | 6 | 2.6 | 4.3 | 0.00 | 0.00 | 0.00 | 93 | 1015.1 |
| 20260507035354 | 47 | 6 | 2.6 | 3.5 | 0.00 | 0.00 | 0.00 | 93 | 1015.2 |
| 20260507035256 | 47 | 6 | 2.6 | 3.5 | 0.00 | 0.00 | 0.00 | 93 | 1015.1 |
| 20260507035154 | 47 | 7 | 1.7 | 3.5 | 0.00 | 0.00 | 0.00 | 92 | 1015.1 |
| 20260507035054 | 47 | 7 | 1.7 | 3.5 | 0.00 | 0.00 | 0.00 | 92 | 1015.2 |
| 20260507034953 | 47 | 7 | 1.7 | 3.5 | 0.00 | 0.00 | 0.00 | 92 | 1015.1 |
| 20260507034853 | 47 | 7 | 1.7 | 3.5 | 0.00 | 0.00 | 0.00 | 92 | 1015.2 |
| 20260507034754 | 47 | 7 | 0.9 | 3.5 | 0.00 | 0.00 | 0.00 | 93 | 1015.1 |
| 20260507034654 | 47 | 7 | 1.7 | 3.5 | 0.00 | 0.00 | 0.00 | 93 | 1015.1 |
| 20260507034551 | 47 | 7 | 1.7 | 3.5 | 0.00 | 0.00 | 0.00 | 92 | 1015.1 |
| 20260507034451 | 47 | 7 | 1.7 | 3.5 | 0.00 | 0.00 | 0.00 | 92 | 1015.1 |
| 20260507034349 | 47 | 7 | 1.7 | 3.5 | 0.00 | 0.00 | 0.00 | 92 | 1015.1 |
| 20260507034250 | 47 | 7 | 1.7 | 3.5 | 0.00 | 0.00 | 0.00 | 92 | 1015.1 |
| 20260507034151 | 47 | 7 | 1.7 | 3.5 | 0.00 | 0.00 | 0.00 | 92 | 1015.1 |
| 20260507034050 | 47 | 7 | 1.7 | 3.5 | 0.00 | 0.00 | 0.00 | 92 | 1015.0 |
| 20260507033946 | 47 | 7 | 1.7 | 3.5 | 0.00 | 0.00 | 0.00 | 92 | 1015.1 |
| 20260507033846 | 47 | 7 | 2.6 | 3.5 | 0.00 | 0.00 | 0.00 | 92 | 1015.0 |
| 20260507033743 | 47 | 7 | 2.6 | 3.5 | 0.00 | 0.00 | 0.00 | 92 | 1015.0 |
| 20260507033644 | 47 | 7 | 1.7 | 3.5 | 0.00 | 0.00 | 0.00 | 92 | 1015.0 |
| 20260507033543 | 47 | 6 | 1.7 | 3.5 | 0.00 | 0.00 | 0.00 | 92 | 1015.0 |
| 20260507033442 | 47 | 6 | 1.7 | 3.5 | 0.00 | 0.00 | 0.00 | 92 | 1014.9 |
| 20260507033346 | 47 | 6 | 1.7 | 3.5 | 0.00 | 0.00 | 0.00 | 92 | 1014.9 |
| 20260507033241 | 47 | 6 | 1.7 | 3.5 | 0.00 | 0.00 | 0.00 | 92 | 1015.0 |
| 20260507033141 | 47 | 6 | 1.7 | 3.5 | 0.00 | 0.00 | 0.00 | 92 | 1015.0 |
| 20260507033041 | 48 | 6 | 2.6 | 5.2 | 0.00 | 0.00 | 0.00 | 92 | 1014.9 |
| 20260507032939 | 48 | 6 | 1.7 | 5.2 | 0.00 | 0.00 | 0.00 | 92 | 1014.9 |
| 20260507032838 | 48 | 7 | 1.7 | 5.2 | 0.00 | 0.00 | 0.00 | 92 | 1014.9 |
| 20260507032737 | 48 | 7 | 1.7 | 5.2 | 0.00 | 0.00 | 0.00 | 92 | 1014.8 |
| 20260507032640 | 48 | 1 | 1.7 | 5.2 | 0.00 | 0.00 | 0.00 | 92 | 1014.9 |
| 20260507032538 | 48 | 1 | 1.7 | 5.2 | 0.00 | 0.00 | 0.00 | 92 | 1014.9 |
| 20260507032437 | 48 | 1 | 1.7 | 5.2 | 0.00 | 0.00 | 0.00 | 92 | 1015.0 |
| 20260507032337 | 48 | 0 | 1.7 | 5.2 | 0.00 | 0.00 | 0.00 | 92 | 1014.9 |
| 20260507032236 | 48 | 0 | 1.7 | 5.2 | 0.00 | 0.00 | 0.00 | 91 | 1014.9 |
| 20260507032137 | 48 | 1 | 1.7 | 5.2 | 0.00 | 0.00 | 0.00 | 91 | 1014.9 |
| 20260507032036 | 48 | 7 | 1.7 | 5.2 | 0.00 | 0.00 | 0.00 | 92 | 1014.8 |
| 20260507031937 | 48 | 8 | 1.7 | 5.2 | 0.00 | 0.00 | 0.00 | 92 | 1014.9 |
| 20260507031835 | 48 | 8 | 2.6 | 5.2 | 0.00 | 0.00 | 0.00 | 92 | 1014.9 |
| 20260507031735 | 48 | 8 | 2.6 | 5.2 | 0.00 | 0.00 | 0.00 | 92 | 1014.9 |
| 20260507031635 | 48 | 10 | 2.6 | 5.2 | 0.00 | 0.00 | 0.00 | 92 | 1014.8 |
| 20260507031535 | 48 | 11 | 3.5 | 5.2 | 0.00 | 0.00 | 0.00 | 92 | 1014.8 |
| 20260507031435 | 48 | 0 | 2.6 | 5.2 | 0.00 | 0.00 | 0.00 | 91 | 1014.8 |
| 20260507031335 | 48 | 1 | 2.6 | 5.2 | 0.00 | 0.00 | 0.00 | 92 | 1014.8 |
| 20260507031234 | 48 | 1 | 3.5 | 5.2 | 0.00 | 0.00 | 0.00 | 92 | 1014.8 |
| 20260507031134 | 48 | 1 | 3.5 | 5.2 | 0.00 | 0.00 | 0.00 | 92 | 1014.8 |
| 20260507031034 | 48 | 11 | 2.6 | 5.2 | 0.00 | 0.00 | 0.00 | 92 | 1014.8 |
| 20260507030934 | 48 | 17 | 2.6 | 5.2 | 0.00 | 0.00 | 0.00 | 91 | 1014.7 |
| 20260507030834 | 48 | 1 | 3.5 | 5.2 | 0.00 | 0.00 | 0.00 | 91 | 1014.7 |
| 20260507030734 | 48 | 4 | 2.6 | 5.2 | 0.00 | 0.00 | 0.00 | 91 | 1014.8 |
| 20260507030635 | 48 | 3 | 1.7 | 5.2 | 0.00 | 0.00 | 0.00 | 91 | 1014.8 |
| 20260507030534 | 48 | 3 | 2.6 | 5.2 | 0.00 | 0.00 | 0.00 | 91 | 1014.7 |
| 20260507030434 | 48 | 6 | 1.7 | 5.2 | 0.00 | 0.00 | 0.00 | 91 | 1014.7 |
| 20260507030335 | 48 | 6 | 2.6 | 5.2 | 0.00 | 0.00 | 0.00 | 91 | 1014.7 |
| 20260507030235 | 48 | 8 | 2.6 | 5.2 | 0.00 | 0.00 | 0.00 | 91 | 1014.7 |
| 20260507030138 | 48 | 7 | 2.6 | 5.2 | 0.00 | 0.00 | 0.00 | 91 | 1014.6 |
| 20260507030034 | 48 | 11 | 1.7 | 4.3 | 0.00 | 0.00 | 0.00 | 91 | 1014.7 |
| 20260507025935 | 48 | 11 | 1.7 | 4.3 | 0.00 | 0.00 | 0.00 | 91 | 1014.7 |
| 20260507025835 | 48 | 10 | 1.7 | 4.3 | 0.00 | 0.00 | 0.00 | 91 | 1014.6 |
| 20260507025734 | 48 | 11 | 2.6 | 4.3 | 0.00 | 0.00 | 0.00 | 91 | 1014.6 |
| 20260507025635 | 48 | 13 | 2.6 | 4.3 | 0.00 | 0.00 | 0.00 | 91 | 1014.7 |
| 20260507025534 | 48 | 14 | 2.6 | 4.3 | 0.00 | 0.00 | 0.00 | 91 | 1014.6 |
| 20260507025435 | 48 | 8 | 1.7 | 4.3 | 0.00 | 0.00 | 0.00 | 91 | 1014.6 |
| 20260507025334 | 48 | 8 | 1.7 | 5.2 | 0.00 | 0.00 | 0.00 | 91 | 1014.7 |
| 20260507025235 | 48 | 8 | 1.7 | 5.2 | 0.00 | 0.00 | 0.00 | 91 | 1014.7 |
| 20260507025135 | 48 | 8 | 2.6 | 5.2 | 0.00 | 0.00 | 0.00 | 91 | 1014.7 |
| 20260507025035 | 48 | 8 | 2.6 | 5.2 | 0.00 | 0.00 | 0.00 | 91 | 1014.7 |
| 20260507024935 | 48 | 16 | 2.6 | 5.2 | 0.00 | 0.00 | 0.00 | 91 | 1014.7 |
| 20260507024835 | 48 | 16 | 1.7 | 5.2 | 0.00 | 0.00 | 0.00 | 91 | 1014.7 |
| 20260507024735 | 48 | 16 | 1.7 | 5.2 | 0.00 | 0.00 | 0.00 | 90 | 1014.7 |
| 20260507024635 | 48 | 16 | 1.7 | 5.2 | 0.00 | 0.00 | 0.00 | 90 | 1014.7 |
| 20260507024534 | 48 | 16 | 1.7 | 5.2 | 0.00 | 0.00 | 0.00 | 90 | 1014.7 |
| 20260507024430 | 48 | 17 | 1.7 | 5.2 | 0.00 | 0.00 | 0.00 | 90 | 1014.7 |
| 20260507024329 | 48 | 8 | 1.7 | 5.2 | 0.00 | 0.00 | 0.00 | 90 | 1014.7 |
| 20260507024231 | 48 | 8 | 1.7 | 5.2 | 0.00 | 0.00 | 0.00 | 90 | 1014.7 |
| 20260507024130 | 48 | 8 | 1.7 | 5.2 | 0.00 | 0.00 | 0.00 | 90 | 1014.7 |
| 20260507024029 | 48 | 25 | 1.7 | 4.3 | 0.00 | 0.00 | 0.00 | 90 | 1014.7 |
| 20260507023930 | 48 | 25 | 1.7 | 4.3 | 0.00 | 0.00 | 0.00 | 90 | 1014.7 |
| 20260507023831 | 48 | 27 | 1.7 | 5.2 | 0.00 | 0.00 | 0.00 | 90 | 1014.7 |
| 20260507023730 | 48 | 27 | 2.6 | 5.2 | 0.00 | 0.00 | 0.00 | 90 | 1014.6 |
| 20260507023630 | 48 | 27 | 2.6 | 5.2 | 0.00 | 0.00 | 0.00 | 90 | 1014.7 |
| 20260507023528 | 48 | 42 | 1.7 | 5.2 | 0.00 | 0.00 | 0.00 | 90 | 1014.7 |
| 20260507023427 | 48 | 42 | 1.7 | 5.2 | 0.00 | 0.00 | 0.00 | 90 | 1014.8 |
| 20260507023327 | 48 | 0 | 2.6 | 5.2 | 0.00 | 0.00 | 0.00 | 90 | 1014.7 |
| 20260507023226 | 48 | 0 | 2.6 | 5.2 | 0.00 | 0.00 | 0.00 | 89 | 1014.6 |
| 20260507023123 | 48 | 6 | 1.7 | 5.2 | 0.00 | 0.00 | 0.00 | 90 | 1014.7 |
| 20260507023025 | 48 | 4 | 2.6 | 5.2 | 0.00 | 0.00 | 0.00 | 89 | 1014.7 |
| 20260507022923 | 48 | 0 | 3.5 | 5.2 | 0.00 | 0.00 | 0.00 | 89 | 1014.7 |
| 20260507022822 | 48 | 0 | 3.5 | 5.2 | 0.00 | 0.00 | 0.00 | 89 | 1014.6 |
| 20260507022723 | 48 | 0 | 3.5 | 5.2 | 0.00 | 0.00 | 0.00 | 89 | 1014.6 |
| 20260507022622 | 48 | 0 | 2.6 | 4.3 | 0.00 | 0.00 | 0.00 | 89 | 1014.6 |
| 20260507022522 | 48 | 0 | 1.7 | 4.3 | 0.00 | 0.00 | 0.00 | 89 | 1014.6 |
| 20260507022422 | 48 | 0 | 1.7 | 4.3 | 0.00 | 0.00 | 0.00 | 89 | 1014.6 |
| 20260507022321 | 48 | 1 | 2.6 | 4.3 | 0.00 | 0.00 | 0.00 | 89 | 1014.6 |
| 20260507022220 | 48 | 20 | 2.6 | 4.3 | 0.00 | 0.00 | 0.00 | 89 | 1014.7 |
| 20260507022121 | 48 | 16 | 1.7 | 4.3 | 0.00 | 0.00 | 0.00 | 89 | 1014.6 |
| 20260507022018 | 49 | 16 | 2.6 | 4.3 | 0.00 | 0.00 | 0.00 | 89 | 1014.6 |
| 20260507021917 | 49 | 17 | 2.6 | 4.3 | 0.00 | 0.00 | 0.00 | 89 | 1014.6 |
| 20260507021816 | 49 | 18 | 1.7 | 4.3 | 0.00 | 0.00 | 0.00 | 88 | 1014.6 |
| 20260507021714 | 49 | 18 | 2.6 | 4.3 | 0.00 | 0.00 | 0.00 | 88 | 1014.6 |
| 20260507021614 | 49 | 18 | 1.7 | 4.3 | 0.00 | 0.00 | 0.00 | 88 | 1014.7 |
| 20260507021513 | 49 | 23 | 1.7 | 4.3 | 0.00 | 0.00 | 0.00 | 88 | 1014.6 |
| 20260507021413 | 49 | 23 | 2.6 | 4.3 | 0.00 | 0.00 | 0.00 | 88 | 1014.6 |
| 20260507021314 | 49 | 10 | 2.6 | 5.2 | 0.00 | 0.00 | 0.00 | 88 | 1014.6 |
| 20260507021212 | 49 | 1 | 2.6 | 5.2 | 0.00 | 0.00 | 0.00 | 88 | 1014.6 |
| 20260507021111 | 49 | 1 | 2.6 | 5.2 | 0.00 | 0.00 | 0.00 | 88 | 1014.6 |
| 20260507021011 | 49 | 0 | 1.7 | 5.2 | 0.00 | 0.00 | 0.00 | 88 | 1014.6 |
| 20260507020910 | 49 | 7 | 1.7 | 5.2 | 0.00 | 0.00 | 0.00 | 88 | 1014.5 |
| 20260507020811 | 49 | 7 | 1.7 | 5.2 | 0.00 | 0.00 | 0.00 | 88 | 1014.5 |
| 20260507020710 | 49 | 7 | 1.7 | 5.2 | 0.00 | 0.00 | 0.00 | 88 | 1014.5 |
| 20260507020610 | 49 | 7 | 1.7 | 5.2 | 0.00 | 0.00 | 0.00 | 88 | 1014.5 |
| 20260507020510 | 49 | 7 | 3.5 | 5.2 | 0.00 | 0.00 | 0.00 | 88 | 1014.5 |
| 20260507020406 | 49 | 7 | 3.5 | 5.2 | 0.00 | 0.00 | 0.00 | 87 | 1014.5 |
| 20260507020302 | 49 | 3 | 2.6 | 5.2 | 0.00 | 0.00 | 0.00 | 87 | 1014.4 |
| 20260507020203 | 49 | 0 | 2.6 | 5.2 | 0.00 | 0.00 | 0.00 | 87 | 1014.5 |
| 20260507020005 | 49 | 35 | 1.7 | 5.2 | 0.00 | 0.00 | 0.00 | 87 | 1014.5 |
| 20260507015904 | 49 | 37 | 1.7 | 5.2 | 0.00 | 0.00 | 0.00 | 87 | 1014.4 |
| 20260507015803 | 49 | 37 | 2.6 | 5.2 | 0.00 | 0.00 | 0.00 | 87 | 1014.5 |
| 20260507015703 | 49 | 37 | 2.6 | 5.2 | 0.00 | 0.00 | 0.00 | 87 | 1014.5 |
| 20260507015602 | 49 | 37 | 2.6 | 5.2 | 0.00 | 0.00 | 0.00 | 87 | 1014.5 |
| 20260507015500 | 49 | 17 | 2.6 | 5.2 | 0.00 | 0.00 | 0.00 | 87 | 1014.4 |
| 20260507015401 | 49 | 17 | 2.6 | 5.2 | 0.00 | 0.00 | 0.00 | 87 | 1014.4 |
| 20260507015301 | 49 | 20 | 2.6 | 5.2 | 0.00 | 0.00 | 0.00 | 87 | 1014.4 |
| 20260507015202 | 49 | 0 | 2.6 | 5.2 | 0.00 | 0.00 | 0.00 | 87 | 1014.3 |
| 20260507015101 | 49 | 0 | 2.6 | 5.2 | 0.00 | 0.00 | 0.00 | 86 | 1014.4 |
| 20260507015003 | 49 | 0 | 2.6 | 5.2 | 0.00 | 0.00 | 0.00 | 86 | 1014.4 |
| 20260507014901 | 49 | 0 | 2.6 | 5.2 | 0.00 | 0.00 | 0.00 | 86 | 1014.5 |
| 20260507014802 | 49 | 8 | 1.7 | 4.3 | 0.00 | 0.00 | 0.00 | 86 | 1014.4 |
| 20260507014701 | 49 | 11 | 2.6 | 4.3 | 0.00 | 0.00 | 0.00 | 86 | 1014.4 |
| 20260507014559 | 49 | 11 | 2.6 | 4.3 | 0.00 | 0.00 | 0.00 | 86 | 1014.4 |
| 20260507014459 | 49 | 11 | 3.5 | 4.3 | 0.00 | 0.00 | 0.00 | 86 | 1014.4 |
| 20260507014359 | 49 | 8 | 2.6 | 4.3 | 0.00 | 0.00 | 0.00 | 86 | 1014.4 |
| 20260507014300 | 49 | 1 | 2.6 | 4.3 | 0.00 | 0.00 | 0.00 | 86 | 1014.4 |
| 20260507014158 | 49 | 14 | 2.6 | 4.3 | 0.00 | 0.00 | 0.00 | 86 | 1014.5 |
| 20260507014057 | 49 | 4 | 2.6 | 4.3 | 0.00 | 0.00 | 0.00 | 86 | 1014.4 |
| 20260507013956 | 49 | 1 | 3.5 | 4.3 | 0.00 | 0.00 | 0.00 | 86 | 1014.4 |
| 20260507013856 | 49 | 3 | 3.5 | 4.3 | 0.00 | 0.00 | 0.00 | 85 | 1014.4 |
| 20260507013757 | 49 | 0 | 2.6 | 4.3 | 0.00 | 0.00 | 0.00 | 85 | 1014.5 |
| 20260507013659 | 49 | 0 | 3.5 | 4.3 | 0.00 | 0.00 | 0.00 | 85 | 1014.4 |
| 20260507013558 | 49 | 0 | 3.5 | 6.1 | 0.00 | 0.00 | 0.00 | 85 | 1014.4 |
| 20260507013455 | 49 | 4 | 2.6 | 6.1 | 0.00 | 0.00 | 0.00 | 85 | 1014.5 |
| 20260507013356 | 49 | 11 | 2.6 | 6.1 | 0.00 | 0.00 | 0.00 | 85 | 1014.3 |
| 20260507013255 | 49 | 11 | 2.6 | 6.1 | 0.00 | 0.00 | 0.00 | 85 | 1014.3 |
| 20260507013156 | 49 | 16 | 2.6 | 6.1 | 0.00 | 0.00 | 0.00 | 85 | 1014.4 |
| 20260507013054 | 49 | 16 | 2.6 | 6.1 | 0.00 | 0.00 | 0.00 | 85 | 1014.4 |
| 20260507012953 | 49 | 16 | 2.6 | 6.1 | 0.00 | 0.00 | 0.00 | 85 | 1014.4 |
| 20260507012852 | 49 | 17 | 2.6 | 6.1 | 0.00 | 0.00 | 0.00 | 84 | 1014.4 |
| 20260507012752 | 50 | 10 | 3.5 | 6.1 | 0.00 | 0.00 | 0.00 | 84 | 1014.4 |
| 20260507012653 | 50 | 10 | 3.5 | 6.1 | 0.00 | 0.00 | 0.00 | 84 | 1014.4 |
| 20260507012551 | 50 | 17 | 2.6 | 6.1 | 0.00 | 0.00 | 0.00 | 84 | 1014.4 |
| 20260507012451 | 50 | 18 | 3.5 | 6.1 | 0.00 | 0.00 | 0.00 | 84 | 1014.4 |
| 20260507012350 | 50 | 8 | 3.5 | 6.1 | 0.00 | 0.00 | 0.00 | 84 | 1014.5 |
| 20260507012250 | 50 | 7 | 3.5 | 7.8 | 0.00 | 0.00 | 0.00 | 84 | 1014.4 |
| 20260507012151 | 50 | 0 | 2.6 | 7.8 | 0.00 | 0.00 | 0.00 | 84 | 1014.5 |
| 20260507012050 | 50 | 354 | 1.7 | 7.8 | 0.00 | 0.00 | 0.00 | 84 | 1014.4 |
| 20260507011949 | 50 | 354 | 2.6 | 7.8 | 0.00 | 0.00 | 0.00 | 84 | 1014.3 |
| 20260507011849 | 50 | 354 | 3.5 | 7.8 | 0.00 | 0.00 | 0.00 | 84 | 1014.4 |
| 20260507011752 | 50 | 0 | 3.5 | 7.8 | 0.00 | 0.00 | 0.00 | 84 | 1014.4 |
| 20260507011652 | 50 | 0 | 2.6 | 7.8 | 0.00 | 0.00 | 0.00 | 84 | 1014.4 |
| 20260507011550 | 50 | 1 | 2.6 | 7.8 | 0.00 | 0.00 | 0.00 | 84 | 1014.4 |
| 20260507011447 | 50 | 1 | 3.5 | 7.8 | 0.00 | 0.00 | 0.00 | 84 | 1014.3 |
| 20260507011347 | 50 | 27 | 3.5 | 7.8 | 0.00 | 0.00 | 0.00 | 84 | 1014.3 |
| 20260507011246 | 50 | 10 | 3.5 | 6.1 | 0.00 | 0.00 | 0.00 | 84 | 1014.3 |
| 20260507011146 | 50 | 1 | 3.5 | 6.1 | 0.00 | 0.00 | 0.00 | 83 | 1014.3 |
| 20260507011046 | 50 | 1 | 3.5 | 6.1 | 0.00 | 0.00 | 0.00 | 83 | 1014.3 |
| 20260507010946 | 50 | 1 | 3.5 | 6.1 | 0.00 | 0.00 | 0.00 | 83 | 1014.2 |
| 20260507010845 | 50 | 0 | 2.6 | 6.1 | 0.00 | 0.00 | 0.00 | 83 | 1014.2 |
| 20260507010745 | 50 | 0 | 1.7 | 5.2 | 0.00 | 0.00 | 0.00 | 83 | 1014.2 |
| 20260507010645 | 50 | 0 | 2.6 | 5.2 | 0.00 | 0.00 | 0.00 | 83 | 1014.2 |
| 20260507010544 | 50 | 10 | 2.6 | 5.2 | 0.00 | 0.00 | 0.00 | 83 | 1014.3 |
| 20260507010445 | 50 | 11 | 2.6 | 5.2 | 0.00 | 0.00 | 0.00 | 83 | 1014.3 |
| 20260507010343 | 50 | 10 | 2.6 | 5.2 | 0.00 | 0.00 | 0.00 | 83 | 1014.3 |
| 20260507010243 | 50 | 13 | 2.6 | 5.2 | 0.00 | 0.00 | 0.00 | 83 | 1014.3 |
| 20260507010143 | 50 | 18 | 2.6 | 5.2 | 0.00 | 0.00 | 0.00 | 83 | 1014.3 |
| 20260507010043 | 50 | 38 | 3.5 | 5.2 | 0.00 | 0.00 | 0.00 | 83 | 1014.4 |
| 20260507005942 | 50 | 0 | 3.5 | 5.2 | 0.00 | 0.00 | 0.00 | 83 | 1014.3 |
| 20260507005838 | 50 | 18 | 3.5 | 5.2 | 0.00 | 0.00 | 0.00 | 83 | 1014.3 |
| 20260507005739 | 50 | 24 | 2.6 | 5.2 | 0.00 | 0.00 | 0.00 | 83 | 1014.3 |
| 20260507005638 | 50 | 13 | 2.6 | 5.2 | 0.00 | 0.00 | 0.00 | 83 | 1014.2 |
| 20260507005538 | 50 | 13 | 2.6 | 5.2 | 0.00 | 0.00 | 0.00 | 83 | 1014.3 |
| 20260507005437 | 50 | 1 | 1.7 | 5.2 | 0.00 | 0.00 | 0.00 | 82 | 1014.4 |
| 20260507005339 | 50 | 4 | 2.6 | 5.2 | 0.00 | 0.00 | 0.00 | 82 | 1014.3 |
| 20260507005238 | 50 | 4 | 2.6 | 5.2 | 0.00 | 0.00 | 0.00 | 82 | 1014.3 |
| 20260507005136 | 50 | 0 | 2.6 | 5.2 | 0.00 | 0.00 | 0.00 | 82 | 1014.3 |
| 20260507005037 | 50 | 7 | 2.6 | 5.2 | 0.00 | 0.00 | 0.00 | 82 | 1014.3 |
| 20260507004936 | 50 | 0 | 2.6 | 7.8 | 0.00 | 0.00 | 0.00 | 82 | 1014.3 |
| 20260507004834 | 50 | 0 | 3.5 | 7.8 | 0.00 | 0.00 | 0.00 | 82 | 1014.3 |
| 20260507004734 | 50 | 357 | 2.6 | 7.8 | 0.00 | 0.00 | 0.00 | 82 | 1014.2 |
| 20260507004634 | 50 | 0 | 1.7 | 7.8 | 0.00 | 0.00 | 0.00 | 82 | 1014.3 |
| 20260507004534 | 50 | 357 | 2.6 | 7.8 | 0.00 | 0.00 | 0.00 | 82 | 1014.2 |
| 20260507004434 | 50 | 357 | 2.6 | 7.8 | 0.00 | 0.00 | 0.00 | 82 | 1014.2 |
| 20260507004334 | 50 | 13 | 2.6 | 7.8 | 0.00 | 0.00 | 0.00 | 82 | 1014.3 |
| 20260507004234 | 50 | 10 | 2.6 | 7.8 | 0.00 | 0.00 | 0.00 | 82 | 1014.3 |
| 20260507004134 | 51 | 0 | 3.5 | 7.8 | 0.00 | 0.00 | 0.00 | 82 | 1014.3 |
| 20260507004035 | 51 | 1 | 3.5 | 7.8 | 0.00 | 0.00 | 0.00 | 82 | 1014.2 |
| 20260507003934 | 51 | 6 | 2.6 | 7.8 | 0.00 | 0.00 | 0.00 | 82 | 1014.2 |
| 20260507003834 | 51 | 0 | 3.5 | 7.8 | 0.00 | 0.00 | 0.00 | 81 | 1014.2 |
| 20260507003735 | 51 | 7 | 4.3 | 7.8 | 0.00 | 0.00 | 0.00 | 81 | 1014.2 |
| 20260507003634 | 51 | 0 | 3.5 | 7.8 | 0.00 | 0.00 | 0.00 | 81 | 1014.2 |
| 20260507003534 | 51 | 350 | 3.5 | 7.8 | 0.00 | 0.00 | 0.00 | 81 | 1014.2 |
| 20260507003434 | 51 | 35 | 3.5 | 7.8 | 0.00 | 0.00 | 0.00 | 81 | 1014.2 |
| 20260507003333 | 51 | 16 | 3.5 | 7.8 | 0.00 | 0.00 | 0.00 | 81 | 1014.2 |
| 20260507003234 | 51 | 3 | 3.5 | 7.8 | 0.00 | 0.00 | 0.00 | 81 | 1014.2 |
| 20260507003135 | 51 | 62 | 3.5 | 7.8 | 0.00 | 0.00 | 0.00 | 81 | 1014.1 |
| 20260507003036 | 51 | 0 | 3.5 | 7.8 | 0.00 | 0.00 | 0.00 | 80 | 1014.2 |
| 20260507002937 | 51 | 344 | 2.6 | 6.1 | 0.00 | 0.00 | 0.00 | 80 | 1014.2 |
| 20260507002835 | 51 | 7 | 1.7 | 6.1 | 0.00 | 0.00 | 0.00 | 80 | 1014.2 |
| 20260507002734 | 51 | 3 | 2.6 | 6.1 | 0.00 | 0.00 | 0.00 | 80 | 1014.2 |
| 20260507002635 | 51 | 0 | 3.5 | 6.1 | 0.00 | 0.00 | 0.00 | 80 | 1014.2 |
| 20260507002535 | 51 | 35 | 3.5 | 6.1 | 0.00 | 0.00 | 0.00 | 80 | 1014.2 |
| 20260507002434 | 51 | 344 | 4.3 | 6.1 | 0.00 | 0.00 | 0.00 | 80 | 1014.2 |
| 20260507002335 | 51 | 0 | 4.3 | 6.1 | 0.00 | 0.00 | 0.00 | 79 | 1014.2 |
| 20260507002234 | 51 | 17 | 4.3 | 7.8 | 0.00 | 0.00 | 0.00 | 79 | 1014.2 |
| 20260507002133 | 51 | 357 | 3.5 | 10.4 | 0.00 | 0.00 | 0.00 | 79 | 1014.2 |
| 20260507002034 | 51 | 6 | 2.6 | 10.4 | 0.00 | 0.00 | 0.00 | 79 | 1014.2 |
| 20260507001934 | 51 | 21 | 1.7 | 10.4 | 0.00 | 0.00 | 0.00 | 79 | 1014.1 |
| 20260507001836 | 51 | 44 | 1.7 | 10.4 | 0.00 | 0.00 | 0.00 | 79 | 1014.2 |
| 20260507001735 | 51 | 45 | 2.6 | 10.4 | 0.00 | 0.00 | 0.00 | 79 | 1014.2 |
| 20260507001634 | 51 | 0 | 2.6 | 10.4 | 0.00 | 0.00 | 0.00 | 79 | 1014.2 |
| 20260507001534 | 51 | 0 | 3.5 | 10.4 | 0.00 | 0.00 | 0.00 | 78 | 1014.2 |
| 20260507001436 | 51 | 6 | 4.3 | 10.4 | 0.00 | 0.00 | 0.00 | 78 | 1014.2 |
| 20260507001336 | 52 | 30 | 5.2 | 10.4 | 0.00 | 0.00 | 0.00 | 78 | 1014.2 |
| 20260507001234 | 52 | 0 | 4.3 | 10.4 | 0.00 | 0.00 | 0.00 | 78 | 1014.1 |
| 20260507001134 | 52 | 21 | 4.3 | 8.7 | 0.00 | 0.00 | 0.00 | 78 | 1014.2 |
| 20260507001034 | 52 | 0 | 4.3 | 8.7 | 0.00 | 0.00 | 0.00 | 78 | 1014.2 |
| 20260507000934 | 52 | 0 | 5.2 | 8.7 | 0.00 | 0.00 | 0.00 | 78 | 1014.2 |
| 20260507000835 | 52 | 6 | 5.2 | 8.7 | 0.00 | 0.00 | 0.00 | 78 | 1014.1 |
| 20260507000734 | 52 | 337 | 4.3 | 8.7 | 0.00 | 0.00 | 0.00 | 78 | 1014.1 |
| 20260507000635 | 52 | 350 | 3.5 | 8.7 | 0.00 | 0.00 | 0.00 | 77 | 1014.1 |
| 20260507000535 | 52 | 11 | 4.3 | 8.7 | 0.00 | 0.00 | 0.00 | 77 | 1014.1 |
| 20260507000435 | 52 | 17 | 4.3 | 8.7 | 0.00 | 0.00 | 0.00 | 77 | 1014.1 |
| 20260507000336 | 52 | 348 | 4.3 | 8.7 | 0.00 | 0.00 | 0.00 | 77 | 1014.1 |
| 20260507000235 | 52 | 14 | 4.3 | 8.7 | 0.00 | 0.00 | 0.00 | 77 | 1014.1 |
| 20260507000137 | 52 | 357 | 3.5 | 8.7 | 0.00 | 0.00 | 0.00 | 77 | 1014.1 |
| 20260507000034 | 52 | 56 | 3.5 | 8.7 | 0.00 | 0.00 | 0.00 | 77 | 1014.1 |
| 20260506235934 | 52 | 24 | 4.3 | 8.7 | 0.00 | 0.00 | 0.00 | 77 | 1014.1 |
| 20260506235834 | 52 | 13 | 4.3 | 8.7 | 0.00 | 0.00 | 0.00 | 76 | 1014.1 |
| 20260506235734 | 52 | 355 | 3.5 | 8.7 | 0.00 | 0.00 | 0.00 | 76 | 1014.0 |
| 20260506235633 | 52 | 38 | 3.5 | 8.7 | 0.00 | 0.00 | 0.00 | 76 | 1014.1 |
| 20260506235533 | 52 | 6 | 3.5 | 8.7 | 0.00 | 0.00 | 0.00 | 76 | 1014.1 |
| 20260506235434 | 52 | 21 | 5.2 | 8.7 | 0.00 | 0.00 | 0.00 | 76 | 1014.1 |
| 20260506235334 | 52 | 11 | 4.3 | 8.7 | 0.00 | 0.00 | 0.00 | 76 | 1014.1 |
| 20260506235235 | 52 | 1 | 3.5 | 7.8 | 0.00 | 0.00 | 0.00 | 76 | 1014.1 |
| 20260506235133 | 53 | 0 | 3.5 | 7.8 | 0.00 | 0.00 | 0.00 | 76 | 1014.1 |
| 20260506235034 | 53 | 0 | 3.5 | 7.8 | 0.00 | 0.00 | 0.00 | 76 | 1014.1 |
| 20260506234934 | 53 | 7 | 4.3 | 7.8 | 0.00 | 0.00 | 0.00 | 75 | 1014.0 |
| 20260506234833 | 53 | 0 | 5.2 | 7.8 | 0.00 | 0.00 | 0.00 | 75 | 1014.0 |
| 20260506234734 | 53 | 16 | 4.3 | 7.8 | 0.00 | 0.00 | 0.00 | 75 | 1014.1 |
| 20260506234634 | 53 | 0 | 3.5 | 8.7 | 0.00 | 0.00 | 0.00 | 75 | 1014.1 |
| 20260506234535 | 53 | 341 | 3.5 | 8.7 | 0.00 | 0.00 | 0.00 | 75 | 1014.0 |
| 20260506234434 | 53 | 345 | 3.5 | 8.7 | 0.00 | 0.00 | 0.00 | 74 | 1014.0 |
| 20260506234334 | 53 | 347 | 3.5 | 8.7 | 0.00 | 0.00 | 0.00 | 74 | 1014.0 |
| 20260506234234 | 53 | 0 | 3.5 | 8.7 | 0.00 | 0.00 | 0.00 | 74 | 1014.0 |
| 20260506234136 | 53 | 0 | 3.5 | 8.7 | 0.00 | 0.00 | 0.00 | 74 | 1014.0 |
| 20260506234037 | 53 | 0 | 3.5 | 8.7 | 0.00 | 0.00 | 0.00 | 73 | 1014.0 |
| 20260506233935 | 53 | 357 | 3.5 | 8.7 | 0.00 | 0.00 | 0.00 | 73 | 1014.0 |
| 20260506233834 | 53 | 3 | 4.3 | 8.7 | 0.00 | 0.00 | 0.00 | 73 | 1013.9 |
| 20260506233734 | 53 | 0 | 4.3 | 8.7 | 0.00 | 0.00 | 0.00 | 73 | 1014.0 |
| 20260506233636 | 53 | 0 | 4.3 | 7.8 | 0.00 | 0.00 | 0.00 | 73 | 1013.9 |
| 20260506233534 | 53 | 16 | 4.3 | 7.8 | 0.00 | 0.00 | 0.00 | 73 | 1013.9 |
| 20260506233434 | 53 | 24 | 3.5 | 7.8 | 0.00 | 0.00 | 0.00 | 73 | 1013.9 |
| 20260506233334 | 53 | 34 | 2.6 | 7.8 | 0.00 | 0.00 | 0.00 | 73 | 1013.9 |
| 20260506233234 | 53 | 10 | 1.7 | 6.1 | 0.00 | 0.00 | 0.00 | 73 | 1013.9 |
| 20260506233134 | 53 | 10 | 2.6 | 6.1 | 0.00 | 0.00 | 0.00 | 73 | 1013.8 |
| 20260506233034 | 53 | 7 | 3.5 | 6.1 | 0.00 | 0.00 | 0.00 | 73 | 1013.8 |
| 20260506232934 | 53 | 4 | 1.7 | 6.1 | 0.00 | 0.00 | 0.00 | 73 | 1013.8 |
| 20260506232834 | 53 | 20 | 1.7 | 6.1 | 0.00 | 0.00 | 0.00 | 73 | 1013.8 |
| 20260506232733 | 53 | 20 | 1.7 | 6.1 | 0.00 | 0.00 | 0.00 | 73 | 1013.8 |
| 20260506232634 | 53 | 1 | 2.6 | 6.1 | 0.00 | 0.00 | 0.00 | 73 | 1013.8 |
| 20260506232534 | 53 | 1 | 2.6 | 6.1 | 0.00 | 0.00 | 0.00 | 72 | 1013.8 |
| 20260506232434 | 53 | 51 | 1.7 | 6.1 | 0.00 | 0.00 | 0.00 | 72 | 1013.8 |
| 20260506232334 | 53 | 51 | 3.5 | 6.1 | 0.00 | 0.00 | 0.00 | 72 | 1013.8 |
| 20260506232236 | 53 | 54 | 3.5 | 6.1 | 0.00 | 0.00 | 0.00 | 72 | 1013.8 |
| 20260506232134 | 53 | 28 | 3.5 | 6.1 | 0.00 | 0.00 | 0.00 | 72 | 1013.8 |
| 20260506232034 | 53 | 37 | 3.5 | 6.1 | 0.00 | 0.00 | 0.00 | 72 | 1013.8 |
| 20260506231935 | 53 | 0 | 2.6 | 6.1 | 0.00 | 0.00 | 0.00 | 72 | 1013.8 |
| 20260506231834 | 53 | 14 | 3.5 | 6.1 | 0.00 | 0.00 | 0.00 | 72 | 1013.8 |
| 20260506231736 | 53 | 18 | 3.5 | 6.1 | 0.00 | 0.00 | 0.00 | 72 | 1013.8 |
| 20260506231635 | 53 | 14 | 3.5 | 6.1 | 0.00 | 0.00 | 0.00 | 72 | 1013.8 |
| 20260506231535 | 53 | 34 | 3.5 | 6.1 | 0.00 | 0.00 | 0.00 | 72 | 1013.7 |
| 20260506231433 | 53 | 324 | 3.5 | 6.1 | 0.00 | 0.00 | 0.00 | 73 | 1013.8 |
| 20260506231335 | 53 | 21 | 3.5 | 6.1 | 0.00 | 0.00 | 0.00 | 73 | 1013.8 |
| 20260506231235 | 53 | 7 | 4.3 | 6.1 | 0.00 | 0.00 | 0.00 | 73 | 1013.8 |
| 20260506231133 | 53 | 0 | 3.5 | 6.1 | 0.00 | 0.00 | 0.00 | 73 | 1013.8 |
| 20260506231034 | 53 | 24 | 2.6 | 6.1 | 0.00 | 0.00 | 0.00 | 73 | 1013.8 |
| 20260506230934 | 53 | 1 | 2.6 | 6.1 | 0.00 | 0.00 | 0.00 | 74 | 1013.7 |
| 20260506230834 | 53 | 38 | 3.5 | 6.1 | 0.00 | 0.00 | 0.00 | 74 | 1013.7 |
| 20260506230734 | 53 | 3 | 3.5 | 6.1 | 0.00 | 0.00 | 0.00 | 74 | 1013.7 |
| 20260506230636 | 53 | 320 | 2.6 | 6.1 | 0.00 | 0.00 | 0.00 | 74 | 1013.7 |
| 20260506230537 | 53 | 4 | 3.5 | 6.1 | 0.00 | 0.00 | 0.00 | 74 | 1013.7 |
| 20260506230434 | 53 | 42 | 3.5 | 6.1 | 0.00 | 0.00 | 0.00 | 75 | 1013.8 |
| 20260506230335 | 53 | 44 | 2.6 | 6.1 | 0.00 | 0.00 | 0.00 | 75 | 1013.8 |
| 20260506230233 | 53 | 16 | 2.6 | 6.1 | 0.00 | 0.00 | 0.00 | 75 | 1013.7 |
| 20260506230135 | 53 | 4 | 2.6 | 6.1 | 0.00 | 0.00 | 0.00 | 75 | 1013.6 |
| 20260506230034 | 53 | 0 | 3.5 | 6.1 | 0.00 | 0.00 | 0.00 | 75 | 1013.6 |
| 20260506225934 | 53 | 351 | 3.5 | 6.1 | 0.00 | 0.00 | 0.00 | 76 | 1013.6 |
| 20260506225834 | 53 | 351 | 3.5 | 6.1 | 0.00 | 0.00 | 0.00 | 76 | 1013.6 |
| 20260506225735 | 53 | 10 | 2.6 | 4.3 | 0.00 | 0.00 | 0.00 | 76 | 1013.6 |
| 20260506225633 | 53 | 11 | 1.7 | 3.5 | 0.00 | 0.00 | 0.00 | 76 | 1013.6 |
| 20260506225534 | 53 | 13 | 1.7 | 3.5 | 0.00 | 0.00 | 0.00 | 76 | 1013.6 |
| 20260506225433 | 53 | 13 | 1.7 | 3.5 | 0.00 | 0.00 | 0.00 | 76 | 1013.6 |
| 20260506225334 | 53 | 13 | 1.7 | 3.5 | 0.00 | 0.00 | 0.00 | 76 | 1013.6 |
| 20260506225234 | 53 | 13 | 1.7 | 2.6 | 0.00 | 0.00 | 0.00 | 76 | 1013.6 |
| 20260506225134 | 53 | 13 | 0.9 | 2.6 | 0.00 | 0.00 | 0.00 | 76 | 1013.6 |
| 20260506225034 | 53 | 13 | 0.9 | 2.6 | 0.00 | 0.00 | 0.00 | 76 | 1013.6 |
| 20260506224934 | 53 | 13 | 0.9 | 2.6 | 0.00 | 0.00 | 0.00 | 76 | 1013.7 |
| 20260506224833 | 53 | 13 | 0.9 | 3.5 | 0.00 | 0.00 | 0.00 | 76 | 1013.7 |
| 20260506224734 | 53 | 13 | 1.7 | 3.5 | 0.00 | 0.00 | 0.00 | 76 | 1013.6 |
| 20260506224635 | 53 | 13 | 0.9 | 5.2 | 0.00 | 0.00 | 0.00 | 76 | 1013.6 |
| 20260506224535 | 54 | 13 | 0.9 | 5.2 | 0.00 | 0.00 | 0.00 | 76 | 1013.6 |
| 20260506224436 | 54 | 13 | 0.9 | 5.2 | 0.00 | 0.00 | 0.00 | 76 | 1013.6 |
| 20260506224336 | 54 | 13 | 0.9 | 5.2 | 0.00 | 0.00 | 0.00 | 76 | 1013.7 |
| 20260506224236 | 54 | 13 | 0.9 | 5.2 | 0.00 | 0.00 | 0.00 | 76 | 1013.6 |
| 20260506224134 | 54 | 13 | 0.9 | 5.2 | 0.00 | 0.00 | 0.00 | 76 | 1013.6 |
| 20260506224036 | 54 | 13 | 1.7 | 5.2 | 0.00 | 0.00 | 0.00 | 76 | 1013.5 |
| 20260506223934 | 54 | 13 | 2.6 | 5.2 | 0.00 | 0.00 | 0.00 | 76 | 1013.6 |
| 20260506223834 | 54 | 13 | 3.5 | 5.2 | 0.00 | 0.00 | 0.00 | 76 | 1013.6 |
| 20260506223735 | 54 | 11 | 3.5 | 6.1 | 0.00 | 0.00 | 0.00 | 76 | 1013.6 |
| 20260506223634 | 54 | 30 | 2.6 | 6.1 | 0.00 | 0.00 | 0.00 | 76 | 1013.6 |
| 20260506223535 | 54 | 30 | 1.7 | 6.1 | 0.00 | 0.00 | 0.00 | 75 | 1013.5 |
| 20260506223434 | 54 | 30 | 1.7 | 6.1 | 0.00 | 0.00 | 0.00 | 75 | 1013.5 |
| 20260506223334 | 54 | 30 | 1.7 | 6.1 | 0.00 | 0.00 | 0.00 | 75 | 1013.6 |
| 20260506223234 | 54 | 31 | 3.5 | 6.1 | 0.00 | 0.00 | 0.00 | 75 | 1013.5 |
| 20260506223134 | 54 | 31 | 2.6 | 6.1 | 0.00 | 0.00 | 0.00 | 75 | 1013.5 |
| 20260506223034 | 54 | 28 | 2.6 | 6.1 | 0.00 | 0.00 | 0.00 | 75 | 1013.5 |
| 20260506222934 | 54 | 0 | 3.5 | 6.1 | 0.00 | 0.00 | 0.00 | 75 | 1013.5 |
| 20260506222834 | 54 | 1 | 3.5 | 6.1 | 0.00 | 0.00 | 0.00 | 76 | 1013.6 |
| 20260506222734 | 54 | 0 | 1.7 | 6.1 | 0.00 | 0.00 | 0.00 | 76 | 1013.6 |
| 20260506222638 | 54 | 0 | 2.6 | 6.1 | 0.00 | 0.00 | 0.00 | 76 | 1013.4 |
| 20260506222535 | 54 | 0 | 3.5 | 6.1 | 0.00 | 0.00 | 0.00 | 76 | 1013.5 |
| 20260506222435 | 54 | 11 | 3.5 | 6.1 | 0.00 | 0.00 | 0.00 | 76 | 1013.5 |
| 20260506222335 | 54 | 24 | 3.5 | 6.1 | 0.00 | 0.00 | 0.00 | 76 | 1013.5 |
| 20260506222234 | 54 | 35 | 3.5 | 6.1 | 0.00 | 0.00 | 0.00 | 76 | 1013.5 |
| 20260506222134 | 54 | 7 | 2.6 | 5.2 | 0.00 | 0.00 | 0.00 | 76 | 1013.5 |
| 20260506222034 | 54 | 4 | 2.6 | 5.2 | 0.00 | 0.00 | 0.00 | 76 | 1013.5 |
| 20260506221934 | 54 | 4 | 1.7 | 5.2 | 0.00 | 0.00 | 0.00 | 76 | 1013.5 |
| 20260506221835 | 54 | 11 | 1.7 | 5.2 | 0.00 | 0.00 | 0.00 | 76 | 1013.4 |
| 20260506221734 | 54 | 11 | 2.6 | 5.2 | 0.00 | 0.00 | 0.00 | 76 | 1013.4 |
| 20260506221634 | 54 | 0 | 3.5 | 6.1 | 0.00 | 0.00 | 0.00 | 76 | 1013.5 |
| 20260506221534 | 54 | 17 | 3.5 | 6.1 | 0.00 | 0.00 | 0.00 | 77 | 1013.4 |
| 20260506221434 | 54 | 341 | 4.3 | 6.1 | 0.00 | 0.00 | 0.00 | 77 | 1013.4 |
| 20260506221334 | 54 | 3 | 3.5 | 6.1 | 0.00 | 0.00 | 0.00 | 77 | 1013.4 |
| 20260506221234 | 54 | 21 | 2.6 | 7.8 | 0.00 | 0.00 | 0.00 | 77 | 1013.4 |
| 20260506221134 | 54 | 31 | 2.6 | 7.8 | 0.00 | 0.00 | 0.00 | 77 | 1013.4 |
| 20260506221036 | 54 | 6 | 2.6 | 7.8 | 0.00 | 0.00 | 0.00 | 77 | 1013.4 |
| 20260506220936 | 54 | 23 | 3.5 | 7.8 | 0.00 | 0.00 | 0.00 | 77 | 1013.4 |
| 20260506220836 | 54 | 353 | 3.5 | 7.8 | 0.00 | 0.00 | 0.00 | 77 | 1013.4 |
| 20260506220736 | 54 | 353 | 3.5 | 7.8 | 0.00 | 0.00 | 0.00 | 78 | 1013.4 |
| 20260506220635 | 54 | 1 | 3.5 | 7.8 | 0.00 | 0.00 | 0.00 | 78 | 1013.3 |
| 20260506220536 | 54 | 351 | 3.5 | 7.8 | 0.00 | 0.00 | 0.00 | 78 | 1013.3 |
| 20260506220434 | 54 | 13 | 4.3 | 7.8 | 0.00 | 0.00 | 0.00 | 78 | 1013.3 |
| 20260506220334 | 54 | 347 | 3.5 | 7.8 | 0.00 | 0.00 | 0.00 | 78 | 1013.3 |
| 20260506220234 | 54 | 337 | 3.5 | 7.8 | 0.00 | 0.00 | 0.00 | 78 | 1013.3 |
| 20260506220134 | 54 | 0 | 2.6 | 7.8 | 0.00 | 0.00 | 0.00 | 78 | 1013.3 |
| 20260506220034 | 54 | 357 | 3.5 | 7.8 | 0.00 | 0.00 | 0.00 | 78 | 1013.3 |
| 20260506215935 | 54 | 0 | 3.5 | 7.8 | 0.00 | 0.00 | 0.00 | 78 | 1013.3 |
| 20260506215833 | 54 | 0 | 3.5 | 7.8 | 0.00 | 0.00 | 0.00 | 78 | 1013.3 |
| 20260506215734 | 54 | 1 | 3.5 | 7.8 | 0.00 | 0.00 | 0.00 | 78 | 1013.4 |
| 20260506215633 | 54 | 7 | 4.3 | 8.7 | 0.00 | 0.00 | 0.00 | 78 | 1013.4 |
| 20260506215535 | 54 | 0 | 5.2 | 8.7 | 0.00 | 0.00 | 0.00 | 78 | 1013.3 |
| 20260506215434 | 54 | 4 | 5.2 | 8.7 | 0.00 | 0.00 | 0.00 | 78 | 1013.2 |
| 20260506215334 | 54 | 11 | 4.3 | 8.7 | 0.00 | 0.00 | 0.00 | 78 | 1013.2 |
| 20260506215235 | 54 | 0 | 4.3 | 8.7 | 0.00 | 0.00 | 0.00 | 79 | 1013.4 |
| 20260506215135 | 54 | 353 | 3.5 | 8.7 | 0.00 | 0.00 | 0.00 | 79 | 1013.3 |
| 20260506215035 | 54 | 0 | 3.5 | 8.7 | 0.00 | 0.00 | 0.00 | 79 | 1013.3 |
| 20260506214936 | 54 | 337 | 4.3 | 8.7 | 0.00 | 0.00 | 0.00 | 79 | 1013.3 |
| 20260506214837 | 54 | 6 | 4.3 | 8.7 | 0.00 | 0.00 | 0.00 | 79 | 1013.3 |
| 20260506214736 | 54 | 7 | 4.3 | 8.7 | 0.00 | 0.00 | 0.00 | 79 | 1013.4 |
| 20260506214636 | 54 | 1 | 4.3 | 6.1 | 0.00 | 0.00 | 0.00 | 79 | 1013.3 |
| 20260506214537 | 54 | 18 | 3.5 | 6.1 | 0.00 | 0.00 | 0.00 | 79 | 1013.3 |
| 20260506214435 | 54 | 0 | 3.5 | 6.1 | 0.00 | 0.00 | 0.00 | 79 | 1013.2 |
| 20260506214334 | 54 | 0 | 3.5 | 7.8 | 0.00 | 0.00 | 0.00 | 79 | 1013.3 |
| 20260506214234 | 54 | 357 | 3.5 | 7.8 | 0.00 | 0.00 | 0.00 | 79 | 1013.3 |
| 20260506214134 | 54 | 0 | 3.5 | 7.8 | 0.00 | 0.00 | 0.00 | 79 | 1013.3 |
| 20260506214034 | 54 | 0 | 3.5 | 7.8 | 0.00 | 0.00 | 0.00 | 79 | 1013.3 |
| 20260506213934 | 54 | 0 | 4.3 | 7.8 | 0.00 | 0.00 | 0.00 | 79 | 1013.2 |
| 20260506213834 | 54 | 345 | 3.5 | 7.8 | 0.00 | 0.00 | 0.00 | 78 | 1013.3 |
| 20260506213735 | 54 | 0 | 2.6 | 7.8 | 0.00 | 0.00 | 0.00 | 78 | 1013.3 |
| 20260506213633 | 54 | 0 | 3.5 | 7.8 | 0.00 | 0.00 | 0.00 | 79 | 1013.3 |
| 20260506213534 | 54 | 0 | 4.3 | 7.8 | 0.00 | 0.00 | 0.00 | 79 | 1013.3 |
| 20260506213434 | 54 | 0 | 4.3 | 7.8 | 0.00 | 0.00 | 0.00 | 79 | 1013.2 |
| 20260506213334 | 54 | 344 | 4.3 | 7.8 | 0.00 | 0.00 | 0.00 | 79 | 1013.2 |
| 20260506213234 | 54 | 3 | 3.5 | 7.8 | 0.00 | 0.00 | 0.00 | 78 | 1013.2 |
| 20260506213134 | 54 | 0 | 3.5 | 7.8 | 0.00 | 0.00 | 0.00 | 78 | 1013.2 |
| 20260506213034 | 54 | 0 | 4.3 | 7.8 | 0.00 | 0.00 | 0.00 | 78 | 1013.2 |
| 20260506212936 | 54 | 10 | 4.3 | 7.8 | 0.00 | 0.00 | 0.00 | 78 | 1013.2 |
| 20260506212839 | 54 | 14 | 3.5 | 8.7 | 0.00 | 0.00 | 0.00 | 78 | 1013.2 |
| 20260506212736 | 54 | 0 | 3.5 | 8.7 | 0.00 | 0.00 | 0.00 | 78 | 1013.2 |
| 20260506212636 | 54 | 355 | 4.3 | 8.7 | 0.00 | 0.00 | 0.00 | 78 | 1013.2 |
| 20260506212537 | 54 | 350 | 4.3 | 8.7 | 0.00 | 0.00 | 0.00 | 78 | 1013.2 |
| 20260506212436 | 54 | 0 | 4.3 | 8.7 | 0.00 | 0.00 | 0.00 | 79 | 1013.2 |
| 20260506212335 | 54 | 354 | 3.5 | 8.7 | 0.00 | 0.00 | 0.00 | 79 | 1013.2 |
| 20260506212235 | 54 | 0 | 4.3 | 8.7 | 0.00 | 0.00 | 0.00 | 79 | 1013.1 |
| 20260506212135 | 54 | 6 | 4.3 | 8.7 | 0.00 | 0.00 | 0.00 | 79 | 1013.1 |
| 20260506212036 | 54 | 24 | 5.2 | 8.7 | 0.00 | 0.00 | 0.00 | 79 | 1013.2 |
| 20260506211934 | 54 | 0 | 4.3 | 8.7 | 0.00 | 0.00 | 0.00 | 79 | 1013.2 |
| 20260506211834 | 54 | 6 | 3.5 | 7.8 | 0.00 | 0.00 | 0.00 | 79 | 1013.1 |
| 20260506211734 | 54 | 13 | 3.5 | 7.8 | 0.00 | 0.00 | 0.00 | 79 | 1013.1 |
| 20260506211635 | 54 | 7 | 3.5 | 7.8 | 0.00 | 0.00 | 0.00 | 79 | 1013.1 |
| 20260506211535 | 54 | 35 | 3.5 | 8.7 | 0.00 | 0.00 | 0.00 | 78 | 1013.2 |
| 20260506211434 | 54 | 1 | 3.5 | 8.7 | 0.00 | 0.00 | 0.00 | 78 | 1013.2 |
| 20260506211334 | 54 | 337 | 3.5 | 8.7 | 0.00 | 0.00 | 0.00 | 78 | 1013.1 |
| 20260506211234 | 54 | 6 | 4.3 | 8.7 | 0.00 | 0.00 | 0.00 | 78 | 1013.1 |
| 20260506211133 | 54 | 0 | 4.3 | 8.7 | 0.00 | 0.00 | 0.00 | 78 | 1013.0 |
| 20260506211034 | 54 | 0 | 4.3 | 8.7 | 0.00 | 0.00 | 0.00 | 78 | 1013.1 |
| 20260506210934 | 54 | 357 | 3.5 | 8.7 | 0.00 | 0.00 | 0.00 | 78 | 1013.1 |
| 20260506210835 | 54 | 3 | 3.5 | 8.7 | 0.00 | 0.00 | 0.00 | 79 | 1013.1 |
| 20260506210735 | 54 | 7 | 4.3 | 8.7 | 0.00 | 0.00 | 0.00 | 79 | 1013.1 |
| 20260506210638 | 54 | 358 | 4.3 | 8.7 | 0.00 | 0.00 | 0.00 | 79 | 1013.0 |
| 20260506210535 | 54 | 3 | 4.3 | 6.1 | 0.00 | 0.00 | 0.00 | 79 | 1013.0 |
| 20260506210436 | 54 | 0 | 3.5 | 6.1 | 0.00 | 0.00 | 0.00 | 79 | 1013.0 |
| 20260506210336 | 54 | 337 | 3.5 | 6.1 | 0.00 | 0.00 | 0.00 | 79 | 1013.1 |
| 20260506210233 | 54 | 330 | 2.6 | 6.1 | 0.00 | 0.00 | 0.00 | 79 | 1013.1 |
| 20260506210135 | 54 | 0 | 1.7 | 6.1 | 0.00 | 0.00 | 0.00 | 79 | 1013.1 |
| 20260506210034 | 54 | 0 | 2.6 | 6.1 | 0.00 | 0.00 | 0.00 | 79 | 1013.1 |
| 20260506205943 | 54 | 0 | 3.5 | 6.1 | 0.00 | 0.00 | 0.00 | 79 | 1013.1 |
| 20260506205834 | 54 | 6 | 3.5 | 6.1 | 0.00 | 0.00 | 0.00 | 79 | 1013.1 |
| 20260506205733 | 54 | 0 | 3.5 | 6.1 | 0.00 | 0.00 | 0.00 | 79 | 1013.1 |
| 20260506205633 | 54 | 0 | 3.5 | 6.1 | 0.00 | 0.00 | 0.00 | 79 | 1013.1 |
| 20260506205533 | 54 | 0 | 2.6 | 6.1 | 0.00 | 0.00 | 0.00 | 79 | 1013.1 |
| 20260506205435 | 54 | 0 | 2.6 | 6.1 | 0.00 | 0.00 | 0.00 | 79 | 1013.1 |
| 20260506205334 | 54 | 353 | 2.6 | 6.1 | 0.00 | 0.00 | 0.00 | 79 | 1013.1 |
| 20260506205234 | 54 | 0 | 3.5 | 6.1 | 0.00 | 0.00 | 0.00 | 79 | 1013.0 |
| 20260506205134 | 54 | 0 | 4.3 | 6.1 | 0.00 | 0.00 | 0.00 | 79 | 1013.0 |
| 20260506205034 | 54 | 353 | 3.5 | 7.8 | 0.00 | 0.00 | 0.00 | 79 | 1013.1 |
| 20260506204933 | 54 | 0 | 3.5 | 7.8 | 0.00 | 0.00 | 0.00 | 79 | 1013.0 |
| 20260506204833 | 54 | 0 | 3.5 | 7.8 | 0.00 | 0.00 | 0.00 | 79 | 1013.1 |
| 20260506204734 | 54 | 4 | 2.6 | 7.8 | 0.00 | 0.00 | 0.00 | 79 | 1013.0 |
| 20260506204636 | 54 | 4 | 3.5 | 7.8 | 0.00 | 0.00 | 0.00 | 79 | 1013.0 |
| 20260506204536 | 54 | 0 | 3.5 | 7.8 | 0.00 | 0.00 | 0.00 | 79 | 1013.0 |
| 20260506204435 | 54 | 10 | 3.5 | 7.8 | 0.00 | 0.00 | 0.00 | 80 | 1013.0 |
| 20260506204336 | 54 | 13 | 4.3 | 7.8 | 0.00 | 0.00 | 0.00 | 80 | 1013.0 |
| 20260506204235 | 54 | 31 | 4.3 | 7.8 | 0.00 | 0.00 | 0.00 | 80 | 1012.9 |
| 20260506204135 | 54 | 8 | 3.5 | 7.8 | 0.00 | 0.00 | 0.00 | 80 | 1013.0 |
| 20260506204034 | 54 | 355 | 4.3 | 7.8 | 0.00 | 0.00 | 0.00 | 80 | 1013.0 |
| 20260506203933 | 54 | 358 | 5.2 | 7.8 | 0.00 | 0.00 | 0.00 | 80 | 1013.0 |
| 20260506203834 | 54 | 0 | 4.3 | 6.1 | 0.00 | 0.00 | 0.00 | 80 | 1012.9 |
| 20260506203734 | 54 | 340 | 3.5 | 6.1 | 0.00 | 0.00 | 0.00 | 80 | 1012.9 |
| 20260506203634 | 54 | 0 | 4.3 | 6.1 | 0.00 | 0.00 | 0.00 | 80 | 1013.0 |
| 20260506203534 | 54 | 0 | 3.5 | 6.1 | 0.00 | 0.00 | 0.00 | 80 | 1012.9 |
| 20260506203434 | 54 | 0 | 3.5 | 6.1 | 0.00 | 0.00 | 0.00 | 80 | 1012.9 |
| 20260506203334 | 54 | 340 | 3.5 | 6.1 | 0.00 | 0.00 | 0.00 | 80 | 1013.0 |
| 20260506203234 | 54 | 0 | 2.6 | 6.1 | 0.00 | 0.00 | 0.00 | 80 | 1013.0 |
| 20260506203134 | 54 | 0 | 2.6 | 6.1 | 0.00 | 0.00 | 0.00 | 80 | 1012.9 |
| 20260506203034 | 54 | 0 | 3.5 | 6.1 | 0.00 | 0.00 | 0.00 | 80 | 1012.9 |
| 20260506202935 | 54 | 7 | 2.6 | 6.1 | 0.00 | 0.00 | 0.00 | 80 | 1012.8 |
| 20260506202834 | 54 | 0 | 2.6 | 6.1 | 0.00 | 0.00 | 0.00 | 80 | 1012.9 |
| 20260506202734 | 54 | 0 | 4.3 | 6.1 | 0.00 | 0.00 | 0.00 | 80 | 1012.9 |
| 20260506202633 | 54 | 1 | 3.5 | 6.1 | 0.00 | 0.00 | 0.00 | 80 | 1012.9 |
| 20260506202533 | 54 | 0 | 3.5 | 6.1 | 0.00 | 0.00 | 0.00 | 80 | 1012.9 |
| 20260506202432 | 54 | 0 | 2.6 | 6.1 | 0.00 | 0.00 | 0.00 | 80 | 1012.9 |
| 20260506202333 | 54 | 0 | 2.6 | 6.1 | 0.00 | 0.00 | 0.00 | 80 | 1012.9 |
| 20260506202231 | 53 | 0 | 3.5 | 6.1 | 0.00 | 0.00 | 0.00 | 80 | 1012.9 |
| 20260506202130 | 53 | 1 | 3.5 | 6.1 | 0.00 | 0.00 | 0.00 | 80 | 1012.9 |
| 20260506202029 | 54 | 350 | 3.5 | 6.1 | 0.00 | 0.00 | 0.00 | 80 | 1012.8 |
| 20260506201929 | 54 | 0 | 2.6 | 7.8 | 0.00 | 0.00 | 0.00 | 80 | 1012.9 |
| 20260506201832 | 54 | 348 | 2.6 | 7.8 | 0.00 | 0.00 | 0.00 | 80 | 1012.8 |
| 20260506201731 | 54 | 0 | 3.5 | 7.8 | 0.00 | 0.00 | 0.00 | 79 | 1012.8 |
| 20260506201631 | 54 | 0 | 3.5 | 7.8 | 0.00 | 0.00 | 0.00 | 79 | 1012.8 |
| 20260506201529 | 54 | 340 | 3.5 | 7.8 | 0.00 | 0.00 | 0.00 | 79 | 1012.8 |
| 20260506201429 | 54 | 0 | 4.3 | 7.8 | 0.00 | 0.00 | 0.00 | 79 | 1012.8 |
| 20260506201330 | 54 | 0 | 3.5 | 8.7 | 0.00 | 0.00 | 0.00 | 79 | 1012.8 |
| 20260506201230 | 54 | 11 | 3.5 | 8.7 | 0.00 | 0.00 | 0.00 | 79 | 1012.7 |
| 20260506201129 | 54 | 0 | 3.5 | 8.7 | 0.00 | 0.00 | 0.00 | 79 | 1012.8 |
| 20260506201029 | 54 | 1 | 4.3 | 8.7 | 0.00 | 0.00 | 0.00 | 79 | 1012.8 |
| 20260506200928 | 54 | 357 | 4.3 | 8.7 | 0.00 | 0.00 | 0.00 | 79 | 1012.8 |
| 20260506200830 | 54 | 1 | 4.3 | 8.7 | 0.00 | 0.00 | 0.00 | 79 | 1012.8 |
| 20260506200729 | 54 | 347 | 3.5 | 8.7 | 0.00 | 0.00 | 0.00 | 79 | 1012.8 |
| 20260506200630 | 54 | 351 | 3.5 | 8.7 | 0.00 | 0.00 | 0.00 | 79 | 1012.7 |
| 20260506200531 | 54 | 351 | 5.2 | 8.7 | 0.00 | 0.00 | 0.00 | 79 | 1012.8 |
| 20260506200432 | 54 | 336 | 5.2 | 8.7 | 0.00 | 0.00 | 0.00 | 79 | 1012.8 |
| 20260506200330 | 54 | 350 | 4.3 | 7.8 | 0.00 | 0.00 | 0.00 | 79 | 1012.8 |
| 20260506200229 | 54 | 0 | 3.5 | 7.8 | 0.00 | 0.00 | 0.00 | 79 | 1012.8 |
| 20260506200129 | 54 | 358 | 3.5 | 7.8 | 0.00 | 0.00 | 0.00 | 79 | 1012.8 |
| 20260506200029 | 54 | 353 | 4.3 | 7.8 | 0.00 | 0.00 | 0.00 | 79 | 1012.8 |
| 20260506195929 | 54 | 353 | 5.2 | 7.8 | 0.00 | 0.00 | 0.00 | 79 | 1012.8 |
| 20260506195830 | 54 | 0 | 5.2 | 7.8 | 0.00 | 0.00 | 0.00 | 79 | 1012.8 |
| 20260506195730 | 54 | 347 | 4.3 | 7.8 | 0.00 | 0.00 | 0.00 | 79 | 1012.7 |
| 20260506195629 | 54 | 347 | 4.3 | 7.8 | 0.00 | 0.00 | 0.00 | 79 | 1012.7 |
| 20260506195529 | 54 | 357 | 3.5 | 7.8 | 0.00 | 0.00 | 0.00 | 79 | 1012.7 |
| 20260506195429 | 54 | 13 | 2.6 | 10.4 | 0.00 | 0.00 | 0.00 | 79 | 1012.8 |
| 20260506195328 | 54 | 0 | 3.5 | 10.4 | 0.00 | 0.00 | 0.00 | 79 | 1012.7 |
| 20260506195230 | 54 | 347 | 3.5 | 10.4 | 0.00 | 0.00 | 0.00 | 79 | 1012.7 |
| 20260506195129 | 54 | 345 | 3.5 | 10.4 | 0.00 | 0.00 | 0.00 | 79 | 1012.7 |
| 20260506195029 | 54 | 0 | 4.3 | 10.4 | 0.00 | 0.00 | 0.00 | 79 | 1012.6 |
| 20260506194929 | 54 | 343 | 5.2 | 10.4 | 0.00 | 0.00 | 0.00 | 79 | 1012.6 |
| 20260506194831 | 54 | 0 | 5.2 | 10.4 | 0.00 | 0.00 | 0.00 | 79 | 1012.6 |
| 20260506194730 | 54 | 6 | 5.2 | 10.4 | 0.00 | 0.00 | 0.00 | 79 | 1012.6 |
| 20260506194630 | 54 | 357 | 5.2 | 10.4 | 0.00 | 0.00 | 0.00 | 79 | 1012.6 |
| 20260506194529 | 54 | 0 | 4.3 | 10.4 | 0.00 | 0.00 | 0.00 | 79 | 1012.6 |
| 20260506194429 | 54 | 0 | 4.3 | 7.8 | 0.00 | 0.00 | 0.00 | 79 | 1012.6 |
| 20260506194329 | 54 | 0 | 5.2 | 7.8 | 0.00 | 0.00 | 0.00 | 79 | 1012.6 |
| 20260506194229 | 54 | 358 | 5.2 | 7.8 | 0.00 | 0.00 | 0.00 | 79 | 1012.6 |
| 20260506194129 | 54 | 1 | 4.3 | 7.8 | 0.00 | 0.00 | 0.00 | 79 | 1012.5 |
| 20260506194030 | 54 | 0 | 4.3 | 7.8 | 0.00 | 0.00 | 0.00 | 79 | 1012.4 |
| 20260506193929 | 54 | 0 | 3.5 | 8.7 | 0.00 | 0.00 | 0.00 | 79 | 1012.5 |
| 20260506193828 | 54 | 358 | 3.5 | 8.7 | 0.00 | 0.00 | 0.00 | 79 | 1012.5 |
| 20260506193729 | 54 | 351 | 4.3 | 8.7 | 0.00 | 0.00 | 0.00 | 79 | 1012.5 |
| 20260506193629 | 54 | 343 | 5.2 | 9.6 | 0.00 | 0.00 | 0.00 | 79 | 1012.5 |
| 20260506193529 | 54 | 0 | 4.3 | 9.6 | 0.00 | 0.00 | 0.00 | 79 | 1012.5 |
| 20260506193430 | 54 | 1 | 3.5 | 9.6 | 0.00 | 0.00 | 0.00 | 79 | 1012.5 |
| 20260506193330 | 54 | 0 | 3.5 | 9.6 | 0.00 | 0.00 | 0.00 | 79 | 1012.5 |
| 20260506193229 | 54 | 0 | 4.3 | 9.6 | 0.00 | 0.00 | 0.00 | 79 | 1012.5 |
| 20260506193126 | 54 | 337 | 4.3 | 9.6 | 0.00 | 0.00 | 0.00 | 79 | 1012.5 |
| 20260506193025 | 54 | 0 | 4.3 | 9.6 | 0.00 | 0.00 | 0.00 | 79 | 1012.5 |
| 20260506192923 | 54 | 343 | 4.3 | 9.6 | 0.00 | 0.00 | 0.00 | 79 | 1012.4 |
| 20260506192815 | 54 | 11 | 5.2 | 9.6 | 0.00 | 0.00 | 0.00 | 79 | 1012.4 |
| 20260506192711 | 54 | 350 | 5.2 | 10.4 | 0.00 | 0.00 | 0.00 | 78 | 1012.4 |
| 20260506192610 | 54 | 25 | 4.3 | 10.4 | 0.00 | 0.00 | 0.00 | 78 | 1012.4 |
| 20260506192510 | 54 | 319 | 4.3 | 10.4 | 0.00 | 0.00 | 0.00 | 78 | 1012.4 |
| 20260506192410 | 54 | 0 | 4.3 | 10.4 | 0.00 | 0.00 | 0.00 | 78 | 1012.4 |
| 20260506192310 | 54 | 0 | 4.3 | 10.4 | 0.00 | 0.00 | 0.00 | 78 | 1012.4 |
| 20260506192207 | 54 | 347 | 5.2 | 10.4 | 0.00 | 0.00 | 0.00 | 78 | 1012.4 |
| 20260506192107 | 54 | 343 | 4.3 | 10.4 | 0.00 | 0.00 | 0.00 | 78 | 1012.4 |
| 20260506192006 | 54 | 6 | 4.3 | 10.4 | 0.00 | 0.00 | 0.00 | 78 | 1012.3 |
| 20260506191906 | 54 | 354 | 5.2 | 10.4 | 0.00 | 0.00 | 0.00 | 78 | 1012.3 |
| 20260506191806 | 54 | 355 | 6.1 | 10.4 | 0.00 | 0.00 | 0.00 | 78 | 1012.3 |
| 20260506191707 | 54 | 329 | 5.2 | 10.4 | 0.00 | 0.00 | 0.00 | 78 | 1012.4 |
| 20260506191606 | 54 | 0 | 4.3 | 10.4 | 0.00 | 0.00 | 0.00 | 78 | 1012.3 |
| 20260506191506 | 54 | 345 | 5.2 | 10.4 | 0.00 | 0.00 | 0.00 | 78 | 1012.4 |
| 20260506191406 | 54 | 320 | 6.1 | 10.4 | 0.00 | 0.00 | 0.00 | 78 | 1012.3 |
| 20260506191304 | 54 | 358 | 5.2 | 10.4 | 0.00 | 0.00 | 0.00 | 78 | 1012.3 |
| 20260506191204 | 54 | 8 | 5.2 | 10.4 | 0.00 | 0.00 | 0.00 | 78 | 1012.4 |
| 20260506191104 | 54 | 347 | 5.2 | 10.4 | 0.00 | 0.00 | 0.00 | 78 | 1012.4 |
| 20260506191004 | 54 | 340 | 5.2 | 10.4 | 0.00 | 0.00 | 0.00 | 78 | 1012.4 |
| 20260506190900 | 54 | 8 | 6.1 | 10.4 | 0.00 | 0.00 | 0.00 | 78 | 1012.3 |
| 20260506190802 | 54 | 0 | 6.1 | 11.3 | 0.00 | 0.00 | 0.00 | 78 | 1012.3 |
| 20260506190702 | 54 | 317 | 6.1 | 11.3 | 0.00 | 0.00 | 0.00 | 78 | 1012.3 |
| 20260506190601 | 54 | 347 | 6.1 | 11.3 | 0.00 | 0.00 | 0.00 | 78 | 1012.3 |
| 20260506190501 | 54 | 324 | 6.1 | 11.3 | 0.00 | 0.00 | 0.00 | 78 | 1012.3 |
| 20260506190357 | 54 | 355 | 6.1 | 11.3 | 0.00 | 0.00 | 0.00 | 78 | 1012.3 |
| 20260506190258 | 54 | 0 | 5.2 | 11.3 | 0.00 | 0.00 | 0.00 | 78 | 1012.2 |
| 20260506190157 | 54 | 334 | 6.1 | 11.3 | 0.00 | 0.00 | 0.00 | 78 | 1012.3 |
| 20260506190057 | 54 | 340 | 6.1 | 11.3 | 0.00 | 0.00 | 0.00 | 78 | 1012.2 |
| 20260506185957 | 54 | 354 | 6.1 | 11.3 | 0.00 | 0.00 | 0.00 | 78 | 1012.2 |
| 20260506185856 | 54 | 0 | 7.0 | 11.3 | 0.00 | 0.00 | 0.00 | 78 | 1012.2 |
| 20260506185755 | 54 | 338 | 5.2 | 10.4 | 0.00 | 0.00 | 0.00 | 78 | 1012.3 |
| 20260506185656 | 54 | 354 | 4.3 | 10.4 | 0.00 | 0.00 | 0.00 | 78 | 1012.2 |
| 20260506185554 | 54 | 345 | 4.3 | 10.4 | 0.00 | 0.00 | 0.00 | 78 | 1012.2 |
| 20260506185455 | 54 | 334 | 6.1 | 10.4 | 0.00 | 0.00 | 0.00 | 78 | 1012.2 |
| 20260506185355 | 54 | 314 | 7.0 | 10.4 | 0.00 | 0.00 | 0.00 | 78 | 1012.1 |
| 20260506185254 | 54 | 344 | 5.2 | 10.4 | 0.00 | 0.00 | 0.00 | 78 | 1012.1 |
| 20260506185154 | 54 | 331 | 5.2 | 10.4 | 0.00 | 0.00 | 0.00 | 78 | 1012.1 |
| 20260506185053 | 54 | 0 | 5.2 | 10.4 | 0.00 | 0.00 | 0.00 | 78 | 1012.1 |
| 20260506184954 | 54 | 0 | 5.2 | 10.4 | 0.00 | 0.00 | 0.00 | 78 | 1012.1 |
| 20260506184851 | 54 | 341 | 6.1 | 10.4 | 0.00 | 0.00 | 0.00 | 78 | 1012.0 |
| 20260506184752 | 54 | 348 | 7.0 | 10.4 | 0.00 | 0.00 | 0.00 | 78 | 1012.1 |
| 20260506184653 | 54 | 8 | 5.2 | 9.6 | 0.00 | 0.00 | 0.00 | 78 | 1012.1 |
| 20260506184552 | 54 | 319 | 5.2 | 9.6 | 0.00 | 0.00 | 0.00 | 78 | 1012.1 |
| 20260506184452 | 54 | 344 | 5.2 | 9.6 | 0.00 | 0.00 | 0.00 | 78 | 1012.1 |
| 20260506184351 | 54 | 0 | 5.2 | 9.6 | 0.00 | 0.00 | 0.00 | 78 | 1012.0 |
| 20260506184250 | 54 | 343 | 6.1 | 9.6 | 0.00 | 0.00 | 0.00 | 78 | 1012.1 |
| 20260506184149 | 54 | 0 | 5.2 | 10.4 | 0.00 | 0.00 | 0.00 | 78 | 1012.0 |
| 20260506184048 | 54 | 4 | 4.3 | 10.4 | 0.00 | 0.00 | 0.00 | 78 | 1012.0 |
| 20260506183947 | 54 | 353 | 5.2 | 10.4 | 0.00 | 0.00 | 0.00 | 78 | 1012.0 |
| 20260506183848 | 54 | 321 | 5.2 | 10.4 | 0.00 | 0.00 | 0.00 | 78 | 1012.0 |
| 20260506183745 | 54 | 317 | 6.1 | 10.4 | 0.00 | 0.00 | 0.00 | 78 | 1012.0 |
| 20260506183645 | 54 | 0 | 6.1 | 10.4 | 0.00 | 0.00 | 0.00 | 77 | 1012.0 |
| 20260506183545 | 55 | 326 | 6.1 | 10.4 | 0.00 | 0.00 | 0.00 | 77 | 1012.0 |
| 20260506183444 | 55 | 341 | 7.0 | 10.4 | 0.00 | 0.00 | 0.00 | 77 | 1012.0 |
| 20260506183341 | 55 | 0 | 6.1 | 10.4 | 0.00 | 0.00 | 0.00 | 77 | 1012.0 |
| 20260506183242 | 55 | 333 | 5.2 | 10.4 | 0.00 | 0.00 | 0.00 | 77 | 1012.0 |
| 20260506183141 | 55 | 358 | 5.2 | 10.4 | 0.00 | 0.00 | 0.00 | 77 | 1011.9 |
| 20260506183040 | 55 | 10 | 6.1 | 10.4 | 0.00 | 0.00 | 0.00 | 77 | 1011.9 |
| 20260506182939 | 55 | 28 | 7.0 | 10.4 | 0.00 | 0.00 | 0.00 | 77 | 1011.9 |
| 20260506182839 | 55 | 0 | 7.8 | 12.2 | 0.00 | 0.00 | 0.00 | 77 | 1011.9 |
| 20260506182738 | 55 | 348 | 7.0 | 12.2 | 0.00 | 0.00 | 0.00 | 77 | 1011.9 |
| 20260506182636 | 55 | 336 | 6.1 | 12.2 | 0.00 | 0.00 | 0.00 | 77 | 1011.9 |
| 20260506182536 | 55 | 345 | 6.1 | 12.2 | 0.00 | 0.00 | 0.00 | 77 | 1011.9 |
| 20260506182434 | 55 | 0 | 6.1 | 12.2 | 0.00 | 0.00 | 0.00 | 76 | 1011.9 |
| 20260506182336 | 55 | 0 | 7.0 | 12.2 | 0.00 | 0.00 | 0.00 | 76 | 1011.9 |
| 20260506182234 | 55 | 357 | 6.1 | 12.2 | 0.00 | 0.00 | 0.00 | 76 | 1011.9 |
| 20260506182135 | 55 | 0 | 5.2 | 12.2 | 0.00 | 0.00 | 0.00 | 76 | 1011.8 |
| 20260506182033 | 55 | 353 | 6.1 | 12.2 | 0.00 | 0.00 | 0.00 | 76 | 1011.9 |
| 20260506181935 | 55 | 0 | 6.1 | 12.2 | 0.00 | 0.00 | 0.00 | 76 | 1011.9 |
| 20260506181836 | 55 | 357 | 5.2 | 12.2 | 0.00 | 0.00 | 0.00 | 76 | 1011.8 |
| 20260506181735 | 55 | 0 | 5.2 | 12.2 | 0.00 | 0.00 | 0.00 | 75 | 1011.8 |
| 20260506181637 | 55 | 350 | 6.1 | 12.2 | 0.00 | 0.00 | 0.00 | 75 | 1011.7 |
| 20260506181535 | 55 | 0 | 7.0 | 12.2 | 0.00 | 0.00 | 0.00 | 75 | 1011.8 |
| 20260506181436 | 55 | 343 | 6.1 | 12.2 | 0.00 | 0.00 | 0.00 | 75 | 1011.8 |
| 20260506181334 | 55 | 341 | 7.8 | 12.2 | 0.00 | 0.00 | 0.00 | 75 | 1011.8 |
| 20260506181233 | 55 | 0 | 7.8 | 12.2 | 0.00 | 0.00 | 0.00 | 75 | 1011.6 |
| 20260506181133 | 55 | 0 | 7.0 | 11.3 | 0.00 | 0.00 | 0.00 | 75 | 1011.7 |
| 20260506181034 | 55 | 324 | 7.0 | 10.4 | 0.00 | 0.00 | 0.00 | 75 | 1011.7 |
| 20260506180934 | 55 | 338 | 7.0 | 10.4 | 0.00 | 0.00 | 0.00 | 75 | 1011.7 |
| 20260506180834 | 55 | 0 | 7.0 | 10.4 | 0.00 | 0.00 | 0.00 | 75 | 1011.6 |
| 20260506180734 | 55 | 353 | 6.1 | 10.4 | 0.00 | 0.00 | 0.00 | 74 | 1011.5 |
| 20260506180633 | 55 | 334 | 5.2 | 10.4 | 0.00 | 0.00 | 0.00 | 74 | 1011.6 |
| 20260506180533 | 55 | 0 | 6.1 | 10.4 | 0.00 | 0.00 | 0.00 | 74 | 1011.6 |
| 20260506180433 | 55 | 310 | 6.1 | 10.4 | 0.00 | 0.00 | 0.00 | 74 | 1011.5 |
| 20260506180330 | 55 | 0 | 7.0 | 11.3 | 0.00 | 0.00 | 0.00 | 74 | 1011.5 |
| 20260506180229 | 55 | 357 | 6.1 | 11.3 | 0.00 | 0.00 | 0.00 | 74 | 1011.4 |
| 20260506180129 | 55 | 337 | 6.1 | 11.3 | 0.00 | 0.00 | 0.00 | 74 | 1011.5 |
| 20260506180029 | 55 | 0 | 7.0 | 11.3 | 0.00 | 0.00 | 0.00 | 74 | 1011.5 |
| 20260506175931 | 55 | 0 | 6.1 | 12.2 | 0.00 | 0.00 | 0.00 | 74 | 1011.5 |
| 20260506175832 | 56 | 0 | 6.1 | 12.2 | 0.00 | 0.00 | 0.00 | 74 | 1011.5 |
| 20260506175730 | 56 | 0 | 6.1 | 12.2 | 0.00 | 0.00 | 0.00 | 74 | 1011.4 |
| 20260506175629 | 56 | 0 | 5.2 | 12.2 | 0.00 | 0.00 | 0.00 | 74 | 1011.4 |
| 20260506175529 | 56 | 355 | 6.1 | 12.2 | 0.00 | 0.00 | 0.00 | 74 | 1011.5 |
| 20260506175429 | 56 | 350 | 7.0 | 12.2 | 0.00 | 0.00 | 0.00 | 74 | 1011.5 |
| 20260506175330 | 56 | 334 | 6.1 | 12.2 | 0.00 | 0.00 | 0.00 | 73 | 1011.3 |
| 20260506175230 | 56 | 327 | 7.0 | 12.2 | 0.00 | 0.00 | 0.00 | 73 | 1011.3 |
| 20260506175131 | 56 | 343 | 7.8 | 12.2 | 0.00 | 0.00 | 0.00 | 73 | 1011.3 |
| 20260506175029 | 56 | 330 | 7.0 | 12.2 | 0.00 | 0.00 | 0.00 | 74 | 1011.4 |
| 20260506174928 | 56 | 0 | 6.1 | 15.6 | 0.00 | 0.00 | 0.00 | 74 | 1011.3 |
| 20260506174830 | 56 | 341 | 7.0 | 15.6 | 0.00 | 0.00 | 0.00 | 73 | 1011.4 |
| 20260506174730 | 56 | 0 | 7.0 | 15.6 | 0.00 | 0.00 | 0.00 | 73 | 1011.4 |
| 20260506174628 | 56 | 324 | 6.1 | 15.6 | 0.00 | 0.00 | 0.00 | 73 | 1011.4 |
| 20260506174530 | 56 | 28 | 6.1 | 15.6 | 0.00 | 0.00 | 0.00 | 73 | 1011.3 |
| 20260506174427 | 56 | 357 | 7.8 | 15.6 | 0.00 | 0.00 | 0.00 | 72 | 1011.3 |
| 20260506174328 | 56 | 327 | 7.8 | 15.6 | 0.00 | 0.00 | 0.00 | 72 | 1011.4 |
| 20260506174227 | 56 | 336 | 8.7 | 15.6 | 0.00 | 0.00 | 0.00 | 72 | 1011.4 |
| 20260506174127 | 56 | 334 | 8.7 | 15.6 | 0.00 | 0.00 | 0.00 | 72 | 1011.2 |
| 20260506174026 | 56 | 316 | 8.7 | 15.6 | 0.00 | 0.00 | 0.00 | 72 | 1011.3 |
| 20260506173927 | 56 | 338 | 8.7 | 13.0 | 0.00 | 0.00 | 0.00 | 72 | 1011.2 |
| 20260506173825 | 56 | 358 | 7.8 | 13.0 | 0.00 | 0.00 | 0.00 | 72 | 1011.3 |
| 20260506173725 | 56 | 353 | 7.0 | 12.2 | 0.00 | 0.00 | 0.00 | 72 | 1011.2 |
| 20260506173624 | 56 | 17 | 7.8 | 12.2 | 0.00 | 0.00 | 0.00 | 72 | 1011.2 |
| 20260506173524 | 56 | 0 | 7.8 | 13.9 | 0.00 | 0.00 | 0.00 | 72 | 1011.2 |
| 20260506173424 | 56 | 337 | 7.8 | 13.9 | 0.00 | 0.00 | 0.00 | 72 | 1011.2 |
| 20260506173326 | 56 | 303 | 7.8 | 13.9 | 0.00 | 0.00 | 0.00 | 72 | 1011.3 |
| 20260506173224 | 56 | 344 | 7.8 | 14.8 | 0.00 | 0.00 | 0.00 | 72 | 1011.2 |
| 20260506173124 | 56 | 0 | 6.1 | 14.8 | 0.00 | 0.00 | 0.00 | 72 | 1011.2 |
| 20260506173018 | 56 | 11 | 6.1 | 14.8 | 0.00 | 0.00 | 0.00 | 72 | 1011.2 |
| 20260506172915 | 56 | 348 | 7.0 | 14.8 | 0.00 | 0.00 | 0.00 | 72 | 1011.3 |
| 20260506172815 | 56 | 353 | 7.0 | 14.8 | 0.00 | 0.00 | 0.00 | 71 | 1011.3 |
| 20260506172717 | 56 | 348 | 7.8 | 14.8 | 0.00 | 0.00 | 0.00 | 71 | 1011.1 |
| 20260506172617 | 56 | 338 | 7.8 | 14.8 | 0.00 | 0.00 | 0.00 | 71 | 1011.1 |
| 20260506172513 | 56 | 333 | 7.8 | 14.8 | 0.00 | 0.00 | 0.00 | 71 | 1011.2 |
| 20260506172413 | 56 | 331 | 8.7 | 14.8 | 0.00 | 0.00 | 0.00 | 71 | 1011.1 |
| 20260506172308 | 56 | 333 | 8.7 | 13.0 | 0.00 | 0.00 | 0.00 | 71 | 1011.1 |
| 20260506172207 | 56 | 309 | 7.8 | 13.0 | 0.00 | 0.00 | 0.00 | 71 | 1011.2 |
| 20260506172106 | 56 | 333 | 7.0 | 13.0 | 0.00 | 0.00 | 0.00 | 71 | 1011.2 |
| 20260506172004 | 56 | 348 | 7.8 | 13.0 | 0.00 | 0.00 | 0.00 | 71 | 1011.1 |
| 20260506171903 | 56 | 329 | 7.8 | 13.0 | 0.00 | 0.00 | 0.00 | 71 | 1011.1 |
| 20260506171802 | 56 | 0 | 7.8 | 13.0 | 0.00 | 0.00 | 0.00 | 71 | 1011.2 |
| 20260506171702 | 56 | 351 | 8.7 | 13.0 | 0.00 | 0.00 | 0.00 | 70 | 1011.1 |
| 20260506171559 | 56 | 0 | 8.7 | 13.0 | 0.00 | 0.00 | 0.00 | 70 | 1011.1 |
| 20260506171459 | 56 | 341 | 7.8 | 13.0 | 0.00 | 0.00 | 0.00 | 70 | 1011.2 |
| 20260506171359 | 56 | 1 | 7.8 | 13.0 | 0.00 | 0.00 | 0.00 | 70 | 1011.1 |
| 20260506171257 | 57 | 6 | 7.8 | 13.9 | 0.00 | 0.00 | 0.00 | 70 | 1011.1 |
| 20260506171158 | 57 | 338 | 7.8 | 13.9 | 0.00 | 0.00 | 0.00 | 70 | 1011.1 |
| 20260506171058 | 57 | 345 | 6.1 | 13.9 | 0.00 | 0.00 | 0.00 | 70 | 1011.1 |
| 20260506170958 | 56 | 7 | 6.1 | 13.9 | 0.00 | 0.00 | 0.00 | 70 | 1011.1 |
| 20260506170855 | 56 | 351 | 7.8 | 13.9 | 0.00 | 0.00 | 0.00 | 69 | 1011.1 |
| 20260506170757 | 56 | 357 | 8.7 | 13.9 | 0.00 | 0.00 | 0.00 | 69 | 1011.0 |
| 20260506170656 | 57 | 357 | 8.7 | 13.9 | 0.00 | 0.00 | 0.00 | 69 | 1011.0 |
| 20260506170556 | 57 | 350 | 7.8 | 13.9 | 0.00 | 0.00 | 0.00 | 70 | 1011.1 |
| 20260506170456 | 57 | 344 | 8.7 | 13.9 | 0.00 | 0.00 | 0.00 | 69 | 1011.0 |
| 20260506170355 | 57 | 0 | 7.8 | 13.9 | 0.00 | 0.00 | 0.00 | 70 | 1011.1 |
| 20260506170254 | 57 | 347 | 7.0 | 13.0 | 0.00 | 0.00 | 0.00 | 70 | 1011.1 |
| 20260506170153 | 57 | 357 | 6.1 | 13.0 | 0.00 | 0.00 | 0.00 | 70 | 1011.1 |